Wetterdaten: Mittwoch, 10.01.2018
Datum Zeit Temp. A. Feuchte A. Luftdruck Regen Wind Richtung Richtung Sonnenschein ET UV Solar Taupunkt Windchill Windböen
10.01.2018 00:00 1,3 °C 75 % 1013,9 hPa 0,0 mm 1,6 km/h (1 Bft) S-SW 202 ° 0 min 0,025 mm 0,0 UV-I 0 W/m² -2,6 °C 1,3 °C 4,8 km/h (1 Bft)
10.01.2018 00:01 1,3 °C 76 % 1013,9 hPa 0,0 mm 1,6 km/h (1 Bft) S-SW 202 ° 0 min 0,000 mm 0,0 UV-I 0 W/m² -2,5 °C 1,3 °C 1,6 km/h (1 Bft)
10.01.2018 00:02 1,3 °C 78 % 1013,9 hPa 0,0 mm 0,0 km/h (0 Bft) S-SW 202 ° 0 min 0,000 mm 0,0 UV-I 0 W/m² -2,1 °C 1,3 °C 1,6 km/h (1 Bft)
10.01.2018 00:03 1,3 °C 78 % 1013,9 hPa 0,0 mm 1,6 km/h (1 Bft) S-SW 202 ° 0 min 0,000 mm 0,0 UV-I 0 W/m² -2,1 °C 1,3 °C 3,2 km/h (1 Bft)
10.01.2018 00:04 1,3 °C 78 % 1013,9 hPa 0,0 mm 3,2 km/h (1 Bft) S-SW 202 ° 0 min 0,000 mm 0,0 UV-I 0 W/m² -2,1 °C 1,3 °C 6,4 km/h (2 Bft)
10.01.2018 00:05 1,3 °C 79 % 1013,9 hPa 0,0 mm 3,2 km/h (1 Bft) S-SW 202 ° 0 min 0,000 mm 0,0 UV-I 0 W/m² -1,9 °C 1,3 °C 6,4 km/h (2 Bft)
10.01.2018 00:06 1,4 °C 80 % 1013,9 hPa 0,0 mm 4,0 km/h (1 Bft) S-SW 192 ° 0 min 0,000 mm 0,0 UV-I 0 W/m² -1,7 °C 1,4 °C 4,8 km/h (1 Bft)
10.01.2018 00:07 1,4 °C 80 % 1013,7 hPa 0,0 mm 1,7 km/h (1 Bft) S-SW 192 ° 0 min 0,000 mm 0,0 UV-I 0 W/m² -1,7 °C 1,4 °C 3,2 km/h (1 Bft)
10.01.2018 00:08 1,5 °C 81 % 1013,7 hPa 0,0 mm 0,1 km/h (0 Bft) S-SW 192 ° 0 min 0,000 mm 0,0 UV-I 0 W/m² -1,4 °C 1,5 °C 1,6 km/h (1 Bft)
10.01.2018 00:09 1,6 °C 80 % 1013,8 hPa 0,0 mm 0,0 km/h (0 Bft) S-SW 192 ° 0 min 0,000 mm 0,0 UV-I 0 W/m² -1,5 °C 1,6 °C 0,0 km/h (0 Bft)
10.01.2018 00:10 1,6 °C 80 % 1013,8 hPa 0,0 mm 0,0 km/h (0 Bft) S-SW 192 ° 0 min 0,000 mm 0,0 UV-I 0 W/m² -1,5 °C 1,6 °C 0,0 km/h (0 Bft)
10.01.2018 00:11 1,6 °C 79 % 1013,8 hPa 0,0 mm 0,0 km/h (0 Bft) S-SW 192 ° 0 min 0,000 mm 0,0 UV-I 0 W/m² -1,6 °C 1,6 °C 0,0 km/h (0 Bft)
10.01.2018 00:12 1,6 °C 79 % 1013,7 hPa 0,0 mm 0,0 km/h (0 Bft) S-SW 192 ° 0 min 0,000 mm 0,0 UV-I 0 W/m² -1,6 °C 1,6 °C 0,0 km/h (0 Bft)
10.01.2018 00:13 1,6 °C 78 % 1013,7 hPa 0,0 mm 0,0 km/h (0 Bft) S-SW 192 ° 0 min 0,000 mm 0,0 UV-I 0 W/m² -1,8 °C 1,6 °C 0,0 km/h (0 Bft)
10.01.2018 00:14 1,6 °C 78 % 1013,7 hPa 0,0 mm 0,0 km/h (0 Bft) S-SW 192 ° 0 min 0,000 mm 0,0 UV-I 0 W/m² -1,8 °C 1,6 °C 0,0 km/h (0 Bft)
10.01.2018 00:15 1,6 °C 78 % 1013,8 hPa 0,0 mm 0,0 km/h (0 Bft) S-SW 192 ° 0 min 0,000 mm 0,0 UV-I 0 W/m² -1,8 °C 1,6 °C 0,0 km/h (0 Bft)
10.01.2018 00:16 1,6 °C 78 % 1013,8 hPa 0,0 mm 0,0 km/h (0 Bft) S-SW 192 ° 0 min 0,000 mm 0,0 UV-I 0 W/m² -1,8 °C 1,6 °C 0,0 km/h (0 Bft)
10.01.2018 00:17 1,6 °C 78 % 1013,8 hPa 0,0 mm 0,0 km/h (0 Bft) S-SW 192 ° 0 min 0,000 mm 0,0 UV-I 0 W/m² -1,8 °C 1,6 °C 0,0 km/h (0 Bft)
10.01.2018 00:18 1,6 °C 78 % 1013,9 hPa 0,0 mm 0,0 km/h (0 Bft) S-SW 192 ° 0 min 0,000 mm 0,0 UV-I 0 W/m² -1,8 °C 1,6 °C 0,0 km/h (0 Bft)
10.01.2018 00:19 1,6 °C 77 % 1013,9 hPa 0,0 mm 0,0 km/h (0 Bft) S-SW 192 ° 0 min 0,000 mm 0,0 UV-I 0 W/m² -2,0 °C 1,6 °C 0,0 km/h (0 Bft)
10.01.2018 00:20 1,6 °C 77 % 1013,9 hPa 0,0 mm 0,0 km/h (0 Bft) S-SW 192 ° 0 min 0,000 mm 0,0 UV-I 0 W/m² -2,0 °C 1,6 °C 0,0 km/h (0 Bft)
10.01.2018 00:21 1,6 °C 77 % 1013,9 hPa 0,0 mm 0,0 km/h (0 Bft) S-SW 192 ° 0 min 0,000 mm 0,0 UV-I 0 W/m² -2,0 °C 1,6 °C 0,0 km/h (0 Bft)
10.01.2018 00:22 1,6 °C 77 % 1014,0 hPa 0,0 mm 0,0 km/h (0 Bft) S-SW 192 ° 0 min 0,000 mm 0,0 UV-I 0 W/m² -2,0 °C 1,6 °C 0,0 km/h (0 Bft)
10.01.2018 00:23 1,6 °C 77 % 1014,0 hPa 0,0 mm 1,0 km/h (0 Bft) S 190 ° 0 min 0,000 mm 0,0 UV-I 0 W/m² -2,0 °C 1,6 °C 3,2 km/h (1 Bft)
10.01.2018 00:24 1,6 °C 78 % 1013,9 hPa 0,0 mm 2,4 km/h (1 Bft) S 190 ° 0 min 0,000 mm 0,0 UV-I 0 W/m² -1,8 °C 1,6 °C 3,2 km/h (1 Bft)
10.01.2018 00:25 1,6 °C 78 % 1014,0 hPa 0,0 mm 2,1 km/h (1 Bft) W-NW 286 ° 0 min 0,000 mm 0,0 UV-I 0 W/m² -1,8 °C 1,6 °C 4,8 km/h (1 Bft)
10.01.2018 00:26 1,5 °C 78 % 1014,0 hPa 0,0 mm 2,3 km/h (1 Bft) W-NW 286 ° 0 min 0,000 mm 0,0 UV-I 0 W/m² -1,9 °C 1,5 °C 4,8 km/h (1 Bft)
10.01.2018 00:27 1,4 °C 78 % 1014,0 hPa 0,0 mm 0,9 km/h (0 Bft) W-NW 286 ° 0 min 0,000 mm 0,0 UV-I 0 W/m² -2,0 °C 1,4 °C 3,2 km/h (1 Bft)
10.01.2018 00:28 1,4 °C 77 % 1014,1 hPa 0,0 mm 0,0 km/h (0 Bft) W 269 ° 0 min 0,000 mm 0,0 UV-I 0 W/m² -2,2 °C 1,4 °C 0,0 km/h (0 Bft)
10.01.2018 00:29 1,4 °C 77 % 1014,0 hPa 0,0 mm 3,2 km/h (1 Bft) S-SW 212 ° 0 min 0,000 mm 0,0 UV-I 0 W/m² -2,2 °C 1,4 °C 6,4 km/h (2 Bft)
10.01.2018 00:30 1,3 °C 78 % 1014,1 hPa 0,0 mm 0,5 km/h (0 Bft) S-SW 212 ° 0 min 0,000 mm 0,0 UV-I 0 W/m² -2,1 °C 1,3 °C 1,6 km/h (1 Bft)
10.01.2018 00:31 1,3 °C 79 % 1014,1 hPa 0,0 mm 2,1 km/h (1 Bft) S-SW 194 ° 0 min 0,000 mm 0,0 UV-I 0 W/m² -1,9 °C 1,3 °C 4,8 km/h (1 Bft)
10.01.2018 00:32 1,3 °C 81 % 1014,1 hPa 0,0 mm 3,8 km/h (1 Bft) NW 309 ° 0 min 0,000 mm 0,0 UV-I 0 W/m² -1,6 °C 1,3 °C 6,4 km/h (2 Bft)
10.01.2018 00:33 1,3 °C 82 % 1014,1 hPa 0,0 mm 1,8 km/h (1 Bft) NW 308 ° 0 min 0,000 mm 0,0 UV-I 0 W/m² -1,4 °C 1,3 °C 3,2 km/h (1 Bft)
10.01.2018 00:34 1,3 °C 80 % 1014,1 hPa 0,0 mm 0,3 km/h (0 Bft) W-NW 301 ° 0 min 0,000 mm 0,0 UV-I 0 W/m² -1,8 °C 1,3 °C 1,6 km/h (1 Bft)
10.01.2018 00:35 1,3 °C 80 % 1014,1 hPa 0,0 mm 1,6 km/h (1 Bft) W-SW 242 ° 0 min 0,000 mm 0,0 UV-I 0 W/m² -1,8 °C 1,3 °C 3,2 km/h (1 Bft)
10.01.2018 00:36 1,3 °C 80 % 1014,1 hPa 0,0 mm 4,2 km/h (1 Bft) W-SW 248 ° 0 min 0,000 mm 0,0 UV-I 0 W/m² -1,8 °C 1,3 °C 6,4 km/h (2 Bft)
10.01.2018 00:37 1,3 °C 81 % 1014,1 hPa 0,0 mm 3,1 km/h (1 Bft) W-NW 290 ° 0 min 0,000 mm 0,0 UV-I 0 W/m² -1,6 °C 1,3 °C 4,8 km/h (1 Bft)
10.01.2018 00:38 1,3 °C 82 % 1014,2 hPa 0,0 mm 2,7 km/h (1 Bft) W-NW 290 ° 0 min 0,000 mm 0,0 UV-I 0 W/m² -1,4 °C 1,3 °C 3,2 km/h (1 Bft)
10.01.2018 00:39 1,3 °C 81 % 1014,1 hPa 0,0 mm 2,1 km/h (1 Bft) W 266 ° 0 min 0,000 mm 0,0 UV-I 0 W/m² -1,6 °C 1,3 °C 3,2 km/h (1 Bft)
10.01.2018 00:40 1,3 °C 82 % 1014,1 hPa 0,0 mm 4,4 km/h (1 Bft) W-SW 250 ° 0 min 0,000 mm 0,0 UV-I 0 W/m² -1,4 °C 1,3 °C 8,0 km/h (2 Bft)
10.01.2018 00:41 1,4 °C 82 % 1014,1 hPa 0,0 mm 4,2 km/h (1 Bft) W-SW 240 ° 0 min 0,000 mm 0,0 UV-I 0 W/m² -1,3 °C 1,4 °C 6,4 km/h (2 Bft)
10.01.2018 00:42 1,4 °C 83 % 1014,1 hPa 0,0 mm 4,0 km/h (1 Bft) SW 225 ° 0 min 0,000 mm 0,0 UV-I 0 W/m² -1,2 °C 1,4 °C 4,8 km/h (1 Bft)
10.01.2018 00:43 1,6 °C 84 % 1014,1 hPa 0,0 mm 3,4 km/h (1 Bft) W-NW 297 ° 0 min 0,000 mm 0,0 UV-I 0 W/m² -0,8 °C 1,6 °C 6,4 km/h (2 Bft)
10.01.2018 00:44 1,7 °C 84 % 1014,1 hPa 0,0 mm 1,0 km/h (0 Bft) W-NW 297 ° 0 min 0,000 mm 0,0 UV-I 0 W/m² -0,7 °C 1,7 °C 3,2 km/h (1 Bft)
10.01.2018 00:45 1,7 °C 84 % 1014,1 hPa 0,0 mm 0,4 km/h (0 Bft) W-SW 238 ° 0 min 0,000 mm 0,0 UV-I 0 W/m² -0,7 °C 1,7 °C 3,2 km/h (1 Bft)
10.01.2018 00:46 1,7 °C 84 % 1014,1 hPa 0,0 mm 3,4 km/h (1 Bft) SW 227 ° 0 min 0,000 mm 0,0 UV-I 0 W/m² -0,7 °C 1,7 °C 4,8 km/h (1 Bft)
10.01.2018 00:47 1,8 °C 84 % 1014,1 hPa 0,0 mm 1,3 km/h (1 Bft) W-NW 298 ° 0 min 0,000 mm 0,0 UV-I 0 W/m² -0,6 °C 1,8 °C 3,2 km/h (1 Bft)
10.01.2018 00:48 1,8 °C 83 % 1014,1 hPa 0,0 mm 3,8 km/h (1 Bft) W-NW 302 ° 0 min 0,000 mm 0,0 UV-I 0 W/m² -0,8 °C 1,8 °C 6,4 km/h (2 Bft)
10.01.2018 00:49 1,8 °C 82 % 1014,1 hPa 0,0 mm 2,1 km/h (1 Bft) W-NW 302 ° 0 min 0,000 mm 0,0 UV-I 0 W/m² -0,9 °C 1,8 °C 3,2 km/h (1 Bft)
10.01.2018 00:50 1,8 °C 81 % 1014,2 hPa 0,0 mm 2,1 km/h (1 Bft) SW 228 ° 0 min 0,000 mm 0,0 UV-I 0 W/m² -1,1 °C 1,8 °C 3,2 km/h (1 Bft)
10.01.2018 00:51 1,8 °C 82 % 1014,1 hPa 0,0 mm 3,4 km/h (1 Bft) S 190 ° 0 min 0,000 mm 0,0 UV-I 0 W/m² -0,9 °C 1,8 °C 4,8 km/h (1 Bft)
10.01.2018 00:52 1,8 °C 82 % 1014,1 hPa 0,0 mm 1,6 km/h (1 Bft) S 190 ° 0 min 0,000 mm 0,0 UV-I 0 W/m² -0,9 °C 1,8 °C 1,6 km/h (1 Bft)
10.01.2018 00:53 1,9 °C 83 % 1014,1 hPa 0,0 mm 4,8 km/h (1 Bft) SW 225 ° 0 min 0,000 mm 0,0 UV-I 0 W/m² -0,7 °C 0,7 °C 6,4 km/h (2 Bft)
10.01.2018 00:54 1,9 °C 84 % 1014,1 hPa 0,0 mm 4,8 km/h (1 Bft) S 180 ° 0 min 0,000 mm 0,0 UV-I 0 W/m² -0,5 °C 0,7 °C 9,7 km/h (2 Bft)
10.01.2018 00:55 2,1 °C 84 % 1014,1 hPa 0,0 mm 0,0 km/h (0 Bft) W 270 ° 0 min 0,000 mm 0,0 UV-I 0 W/m² -0,3 °C 2,1 °C 9,7 km/h (2 Bft)
10.01.2018 00:56 2,1 °C 84 % 1014,1 hPa 0,0 mm 0,0 km/h (0 Bft) N 0 ° 0 min 0,000 mm 0,0 UV-I 0 W/m² -0,3 °C 2,1 °C 0,0 km/h (0 Bft)
10.01.2018 00:57 2,1 °C 83 % 1014,1 hPa 0,0 mm 0,0 km/h (0 Bft) N 0 ° 0 min 0,000 mm 0,0 UV-I 0 W/m² -0,5 °C 2,1 °C 0,0 km/h (0 Bft)
10.01.2018 00:58 2,2 °C 83 % 1014,1 hPa 0,0 mm 0,0 km/h (0 Bft) SW 225 ° 0 min 0,000 mm 0,0 UV-I 0 W/m² -0,4 °C 2,2 °C 1,6 km/h (1 Bft)
10.01.2018 00:59 2,2 °C 82 % 1014,1 hPa 0,0 mm 1,6 km/h (1 Bft) SW 225 ° 0 min 0,000 mm 0,0 UV-I 0 W/m² -0,5 °C 2,2 °C 4,8 km/h (1 Bft)
10.01.2018 01:02 2,2 °C 82 % 1014,1 hPa 0,0 mm 0,0 km/h (0 Bft) SW 221 ° 0 min 0,000 mm 0,0 UV-I 0 W/m² -0,5 °C 2,2 °C 0,0 km/h (0 Bft)
10.01.2018 01:03 2,2 °C 82 % 1014,1 hPa 0,0 mm 0,0 km/h (0 Bft) SW 221 ° 0 min 0,000 mm 0,0 UV-I 0 W/m² -0,5 °C 2,2 °C 0,0 km/h (0 Bft)
10.01.2018 01:04 2,2 °C 81 % 1014,1 hPa 0,0 mm 0,0 km/h (0 Bft) SW 221 ° 0 min 0,000 mm 0,0 UV-I 0 W/m² -0,7 °C 2,2 °C 0,0 km/h (0 Bft)
10.01.2018 01:05 2,2 °C 81 % 1014,0 hPa 0,0 mm 0,6 km/h (0 Bft) SW 221 ° 0 min 0,000 mm 0,0 UV-I 0 W/m² -0,7 °C 2,2 °C 1,6 km/h (1 Bft)
10.01.2018 01:06 2,2 °C 81 % 1014,0 hPa 0,0 mm 0,0 km/h (0 Bft) SW 221 ° 0 min 0,000 mm 0,0 UV-I 0 W/m² -0,7 °C 2,2 °C 0,0 km/h (0 Bft)
10.01.2018 01:07 2,2 °C 82 % 1014,0 hPa 0,0 mm 0,6 km/h (0 Bft) W 277 ° 0 min 0,000 mm 0,0 UV-I 0 W/m² -0,5 °C 2,2 °C 1,6 km/h (1 Bft)
10.01.2018 01:08 2,2 °C 82 % 1014,0 hPa 0,0 mm 2,5 km/h (1 Bft) S-SW 211 ° 0 min 0,000 mm 0,0 UV-I 0 W/m² -0,5 °C 2,2 °C 4,8 km/h (1 Bft)
10.01.2018 01:09 2,3 °C 83 % 1014,0 hPa 0,0 mm 1,5 km/h (1 Bft) S-SW 211 ° 0 min 0,000 mm 0,0 UV-I 0 W/m² -0,3 °C 2,3 °C 3,2 km/h (1 Bft)
10.01.2018 01:10 2,3 °C 83 % 1014,0 hPa 0,0 mm 0,0 km/h (0 Bft) S-SW 211 ° 0 min 0,000 mm 0,0 UV-I 0 W/m² -0,3 °C 2,3 °C 0,0 km/h (0 Bft)
10.01.2018 01:11 2,3 °C 83 % 1014,0 hPa 0,0 mm 0,0 km/h (0 Bft) S-SW 211 ° 0 min 0,000 mm 0,0 UV-I 0 W/m² -0,3 °C 2,3 °C 0,0 km/h (0 Bft)
10.01.2018 01:12 2,3 °C 83 % 1014,0 hPa 0,0 mm 0,0 km/h (0 Bft) S-SW 211 ° 0 min 0,000 mm 0,0 UV-I 0 W/m² -0,3 °C 2,3 °C 0,0 km/h (0 Bft)
10.01.2018 01:13 2,3 °C 83 % 1013,9 hPa 0,0 mm 0,0 km/h (0 Bft) S-SW 211 ° 0 min 0,000 mm 0,0 UV-I 0 W/m² -0,3 °C 2,3 °C 0,0 km/h (0 Bft)
10.01.2018 01:14 2,3 °C 83 % 1014,0 hPa 0,0 mm 0,0 km/h (0 Bft) S-SW 211 ° 0 min 0,000 mm 0,0 UV-I 0 W/m² -0,3 °C 2,3 °C 0,0 km/h (0 Bft)
10.01.2018 01:15 2,4 °C 83 % 1014,0 hPa 0,0 mm 0,5 km/h (0 Bft) S-SW 211 ° 0 min 0,000 mm 0,0 UV-I 0 W/m² -0,2 °C 2,4 °C 3,2 km/h (1 Bft)
10.01.2018 01:16 2,4 °C 83 % 1013,9 hPa 0,0 mm 2,1 km/h (1 Bft) S-SW 209 ° 0 min 0,000 mm 0,0 UV-I 0 W/m² -0,2 °C 2,4 °C 4,8 km/h (1 Bft)
10.01.2018 01:17 2,4 °C 83 % 1013,9 hPa 0,0 mm 4,3 km/h (1 Bft) S 191 ° 0 min 0,000 mm 0,0 UV-I 0 W/m² -0,2 °C 2,4 °C 6,4 km/h (2 Bft)
10.01.2018 01:18 2,5 °C 83 % 1013,9 hPa 0,0 mm 5,6 km/h (1 Bft) S-SW 200 ° 0 min 0,000 mm 0,0 UV-I 0 W/m² -0,1 °C 1,0 °C 9,7 km/h (2 Bft)
10.01.2018 01:19 2,6 °C 84 % 1013,9 hPa 0,0 mm 4,7 km/h (1 Bft) SW 229 ° 0 min 0,000 mm 0,0 UV-I 0 W/m² 0,2 °C 1,5 °C 6,4 km/h (2 Bft)
10.01.2018 01:20 2,7 °C 84 % 1013,9 hPa 0,0 mm 3,6 km/h (1 Bft) W-NW 284 ° 0 min 0,000 mm 0,0 UV-I 0 W/m² 0,3 °C 2,7 °C 6,4 km/h (2 Bft)
10.01.2018 01:21 2,7 °C 83 % 1014,0 hPa 0,0 mm 3,8 km/h (1 Bft) W-NW 284 ° 0 min 0,000 mm 0,0 UV-I 0 W/m² 0,1 °C 2,7 °C 4,8 km/h (1 Bft)
10.01.2018 01:22 2,8 °C 83 % 1013,9 hPa 0,0 mm 0,8 km/h (0 Bft) W-NW 284 ° 0 min 0,000 mm 0,0 UV-I 0 W/m² 0,2 °C 2,8 °C 3,2 km/h (1 Bft)
10.01.2018 01:23 2,8 °C 82 % 1013,9 hPa 0,0 mm 0,5 km/h (0 Bft) W-NW 284 ° 0 min 0,000 mm 0,0 UV-I 0 W/m² 0,0 °C 2,8 °C 1,6 km/h (1 Bft)
10.01.2018 01:24 2,8 °C 82 % 1013,9 hPa 0,0 mm 0,6 km/h (0 Bft) W 277 ° 0 min 0,000 mm 0,0 UV-I 0 W/m² 0,0 °C 2,8 °C 3,2 km/h (1 Bft)
10.01.2018 01:25 2,8 °C 82 % 1013,9 hPa 0,0 mm 2,4 km/h (1 Bft) W-SW 258 ° 0 min 0,000 mm 0,0 UV-I 0 W/m² 0,0 °C 2,8 °C 6,4 km/h (2 Bft)
10.01.2018 01:26 2,9 °C 82 % 1013,9 hPa 0,0 mm 1,3 km/h (1 Bft) W-SW 258 ° 0 min 0,000 mm 0,0 UV-I 0 W/m² 0,1 °C 2,9 °C 3,2 km/h (1 Bft)
10.01.2018 01:27 2,9 °C 82 % 1013,9 hPa 0,0 mm 1,5 km/h (1 Bft) W 280 ° 0 min 0,000 mm 0,0 UV-I 0 W/m² 0,1 °C 2,9 °C 3,2 km/h (1 Bft)
10.01.2018 01:28 2,9 °C 82 % 1013,9 hPa 0,0 mm 0,5 km/h (0 Bft) W 280 ° 0 min 0,000 mm 0,0 UV-I 0 W/m² 0,1 °C 2,9 °C 1,6 km/h (1 Bft)
10.01.2018 01:29 3,0 °C 82 % 1013,9 hPa 0,0 mm 2,5 km/h (1 Bft) W-SW 238 ° 0 min 0,000 mm 0,0 UV-I 0 W/m² 0,2 °C 3,0 °C 4,8 km/h (1 Bft)
10.01.2018 01:30 3,0 °C 82 % 1013,9 hPa 0,0 mm 1,7 km/h (1 Bft) W 259 ° 0 min 0,000 mm 0,0 UV-I 0 W/m² 0,2 °C 3,0 °C 6,4 km/h (2 Bft)
10.01.2018 01:31 3,0 °C 82 % 1013,9 hPa 0,0 mm 4,2 km/h (1 Bft) W-SW 247 ° 0 min 0,000 mm 0,0 UV-I 0 W/m² 0,2 °C 3,0 °C 6,4 km/h (2 Bft)
10.01.2018 01:32 3,1 °C 82 % 1013,9 hPa 0,0 mm 3,4 km/h (1 Bft) W-SW 247 ° 0 min 0,000 mm 0,0 UV-I 0 W/m² 0,3 °C 3,1 °C 4,8 km/h (1 Bft)
10.01.2018 01:33 3,1 °C 82 % 1013,9 hPa 0,0 mm 1,5 km/h (1 Bft) W-SW 247 ° 0 min 0,000 mm 0,0 UV-I 0 W/m² 0,3 °C 3,1 °C 3,2 km/h (1 Bft)
10.01.2018 01:34 3,1 °C 82 % 1013,9 hPa 0,0 mm 0,0 km/h (0 Bft) W-SW 247 ° 0 min 0,000 mm 0,0 UV-I 0 W/m² 0,3 °C 3,1 °C 0,0 km/h (0 Bft)
10.01.2018 01:35 3,2 °C 82 % 1013,9 hPa 0,0 mm 0,0 km/h (0 Bft) W-SW 247 ° 0 min 0,000 mm 0,0 UV-I 0 W/m² 0,4 °C 3,2 °C 0,0 km/h (0 Bft)
10.01.2018 01:36 3,2 °C 81 % 1013,9 hPa 0,0 mm 0,0 km/h (0 Bft) W-SW 247 ° 0 min 0,000 mm 0,0 UV-I 0 W/m² 0,3 °C 3,2 °C 0,0 km/h (0 Bft)
10.01.2018 01:37 3,2 °C 81 % 1013,9 hPa 0,0 mm 0,0 km/h (0 Bft) W-SW 247 ° 0 min 0,000 mm 0,0 UV-I 0 W/m² 0,3 °C 3,2 °C 0,0 km/h (0 Bft)
10.01.2018 01:38 3,2 °C 81 % 1013,9 hPa 0,0 mm 0,1 km/h (0 Bft) W-SW 247 ° 0 min 0,000 mm 0,0 UV-I 0 W/m² 0,3 °C 3,2 °C 1,6 km/h (1 Bft)
10.01.2018 01:39 3,2 °C 81 % 1013,8 hPa 0,0 mm 0,0 km/h (0 Bft) W-SW 247 ° 0 min 0,000 mm 0,0 UV-I 0 W/m² 0,3 °C 3,2 °C 0,0 km/h (0 Bft)
10.01.2018 01:40 3,2 °C 81 % 1013,9 hPa 0,0 mm 0,0 km/h (0 Bft) W-SW 247 ° 0 min 0,000 mm 0,0 UV-I 0 W/m² 0,3 °C 3,2 °C 0,0 km/h (0 Bft)
10.01.2018 01:41 3,2 °C 81 % 1013,9 hPa 0,0 mm 0,2 km/h (0 Bft) W-SW 247 ° 0 min 0,000 mm 0,0 UV-I 0 W/m² 0,3 °C 3,2 °C 1,6 km/h (1 Bft)
10.01.2018 01:42 3,2 °C 81 % 1013,9 hPa 0,0 mm 1,6 km/h (1 Bft) W-SW 247 ° 0 min 0,000 mm 0,0 UV-I 0 W/m² 0,3 °C 3,2 °C 1,6 km/h (1 Bft)
10.01.2018 01:43 3,2 °C 81 % 1013,9 hPa 0,0 mm 1,6 km/h (1 Bft) W-SW 247 ° 0 min 0,000 mm 0,0 UV-I 0 W/m² 0,3 °C 3,2 °C 3,2 km/h (1 Bft)
10.01.2018 01:44 3,2 °C 81 % 1013,9 hPa 0,0 mm 1,6 km/h (1 Bft) W-SW 247 ° 0 min 0,000 mm 0,0 UV-I 0 W/m² 0,3 °C 3,2 °C 3,2 km/h (1 Bft)
10.01.2018 01:45 3,2 °C 81 % 1013,9 hPa 0,0 mm 1,6 km/h (1 Bft) W-SW 247 ° 0 min 0,000 mm 0,0 UV-I 0 W/m² 0,3 °C 3,2 °C 3,2 km/h (1 Bft)
10.01.2018 01:46 3,2 °C 82 % 1013,9 hPa 0,0 mm 3,2 km/h (1 Bft) W-SW 247 ° 0 min 0,000 mm 0,0 UV-I 0 W/m² 0,4 °C 3,2 °C 3,2 km/h (1 Bft)
10.01.2018 01:47 3,2 °C 82 % 1013,9 hPa 0,0 mm 1,6 km/h (1 Bft) W-SW 247 ° 0 min 0,000 mm 0,0 UV-I 0 W/m² 0,4 °C 3,2 °C 3,2 km/h (1 Bft)
10.01.2018 01:48 3,2 °C 82 % 1013,9 hPa 0,0 mm 1,6 km/h (1 Bft) W-SW 247 ° 0 min 0,000 mm 0,0 UV-I 0 W/m² 0,4 °C 3,2 °C 3,2 km/h (1 Bft)
10.01.2018 01:49 3,2 °C 82 % 1013,9 hPa 0,0 mm 0,0 km/h (0 Bft) W-SW 247 ° 0 min 0,000 mm 0,0 UV-I 0 W/m² 0,4 °C 3,2 °C 3,2 km/h (1 Bft)
10.01.2018 01:50 3,2 °C 82 % 1013,9 hPa 0,0 mm 0,0 km/h (0 Bft) N 0 ° 0 min 0,000 mm 0,0 UV-I 0 W/m² 0,4 °C 3,2 °C 0,0 km/h (0 Bft)
10.01.2018 01:51 3,2 °C 81 % 1014,0 hPa 0,0 mm 0,0 km/h (0 Bft) W-SW 244 ° 0 min 0,000 mm 0,0 UV-I 0 W/m² 0,3 °C 3,2 °C 0,0 km/h (0 Bft)
10.01.2018 01:52 3,2 °C 81 % 1013,9 hPa 0,0 mm 0,0 km/h (0 Bft) W-SW 244 ° 0 min 0,000 mm 0,0 UV-I 0 W/m² 0,3 °C 3,2 °C 0,0 km/h (0 Bft)
10.01.2018 01:53 3,2 °C 81 % 1013,9 hPa 0,0 mm 1,0 km/h (0 Bft) W-SW 239 ° 0 min 0,000 mm 0,0 UV-I 0 W/m² 0,3 °C 3,2 °C 1,6 km/h (1 Bft)
10.01.2018 01:54 3,2 °C 81 % 1013,9 hPa 0,0 mm 0,4 km/h (0 Bft) W-SW 239 ° 0 min 0,000 mm 0,0 UV-I 0 W/m² 0,3 °C 3,2 °C 1,6 km/h (1 Bft)
10.01.2018 01:55 3,2 °C 81 % 1013,9 hPa 0,0 mm 0,5 km/h (0 Bft) W-SW 239 ° 0 min 0,000 mm 0,0 UV-I 0 W/m² 0,3 °C 3,2 °C 1,6 km/h (1 Bft)
10.01.2018 01:56 3,2 °C 81 % 1013,9 hPa 0,0 mm 0,1 km/h (0 Bft) W-SW 239 ° 0 min 0,000 mm 0,0 UV-I 0 W/m² 0,3 °C 3,2 °C 1,6 km/h (1 Bft)
10.01.2018 01:57 3,2 °C 81 % 1013,9 hPa 0,0 mm 0,0 km/h (0 Bft) W-SW 239 ° 0 min 0,000 mm 0,0 UV-I 0 W/m² 0,3 °C 3,2 °C 0,0 km/h (0 Bft)
10.01.2018 01:58 3,2 °C 81 % 1013,7 hPa 0,0 mm 0,0 km/h (0 Bft) W-SW 239 ° 0 min 0,000 mm 0,0 UV-I 0 W/m² 0,3 °C 3,2 °C 0,0 km/h (0 Bft)
10.01.2018 01:59 3,2 °C 82 % 1013,7 hPa 0,0 mm 1,3 km/h (1 Bft) W-SW 238 ° 0 min 0,000 mm 0,0 UV-I 0 W/m² 0,4 °C 3,2 °C 3,2 km/h (1 Bft)
10.01.2018 02:00 3,2 °C 82 % 1013,7 hPa 0,0 mm 0,6 km/h (0 Bft) W-SW 238 ° 0 min 0,000 mm 0,0 UV-I 0 W/m² 0,4 °C 3,2 °C 3,2 km/h (1 Bft)
10.01.2018 02:01 3,2 °C 82 % 1013,8 hPa 0,0 mm 1,3 km/h (1 Bft) W-SW 238 ° 0 min 0,000 mm 0,0 UV-I 0 W/m² 0,4 °C 3,2 °C 3,2 km/h (1 Bft)
10.01.2018 02:02 3,2 °C 81 % 1013,8 hPa 0,0 mm 1,9 km/h (1 Bft) W-SW 238 ° 0 min 0,000 mm 0,0 UV-I 0 W/m² 0,3 °C 3,2 °C 3,2 km/h (1 Bft)
10.01.2018 02:03 3,1 °C 81 % 1013,7 hPa 0,0 mm 2,7 km/h (1 Bft) SW 234 ° 0 min 0,000 mm 0,0 UV-I 0 W/m² 0,2 °C 3,1 °C 4,8 km/h (1 Bft)
10.01.2018 02:04 3,2 °C 81 % 1013,7 hPa 0,0 mm 1,9 km/h (1 Bft) SW 234 ° 0 min 0,000 mm 0,0 UV-I 0 W/m² 0,3 °C 3,2 °C 4,8 km/h (1 Bft)
10.01.2018 02:05 3,1 °C 81 % 1013,7 hPa 0,0 mm 0,3 km/h (0 Bft) SW 234 ° 0 min 0,000 mm 0,0 UV-I 0 W/m² 0,2 °C 3,1 °C 1,6 km/h (1 Bft)
10.01.2018 02:06 3,1 °C 81 % 1013,7 hPa 0,0 mm 2,3 km/h (1 Bft) W 275 ° 0 min 0,000 mm 0,0 UV-I 0 W/m² 0,2 °C 3,1 °C 3,2 km/h (1 Bft)
10.01.2018 02:07 3,1 °C 80 % 1013,7 hPa 0,0 mm 1,7 km/h (1 Bft) W 275 ° 0 min 0,000 mm 0,0 UV-I 0 W/m² -0,0 °C 3,1 °C 3,2 km/h (1 Bft)
10.01.2018 02:08 3,0 °C 79 % 1013,7 hPa 0,0 mm 0,0 km/h (0 Bft) W 275 ° 0 min 0,000 mm 0,0 UV-I 0 W/m² -0,3 °C 3,0 °C 0,0 km/h (0 Bft)
10.01.2018 02:09 3,0 °C 79 % 1013,7 hPa 0,0 mm 0,0 km/h (0 Bft) W 275 ° 0 min 0,000 mm 0,0 UV-I 0 W/m² -0,3 °C 3,0 °C 0,0 km/h (0 Bft)
10.01.2018 02:10 2,9 °C 79 % 1013,7 hPa 0,0 mm 0,0 km/h (0 Bft) W 275 ° 0 min 0,000 mm 0,0 UV-I 0 W/m² -0,4 °C 2,9 °C 0,0 km/h (0 Bft)
10.01.2018 02:11 2,9 °C 79 % 1013,7 hPa 0,0 mm 0,0 km/h (0 Bft) W 275 ° 0 min 0,000 mm 0,0 UV-I 0 W/m² -0,4 °C 2,9 °C 0,0 km/h (0 Bft)
10.01.2018 02:12 2,9 °C 79 % 1013,7 hPa 0,0 mm 0,0 km/h (0 Bft) W 275 ° 0 min 0,000 mm 0,0 UV-I 0 W/m² -0,4 °C 2,9 °C 0,0 km/h (0 Bft)
10.01.2018 02:13 2,9 °C 79 % 1013,7 hPa 0,0 mm 0,0 km/h (0 Bft) W 275 ° 0 min 0,000 mm 0,0 UV-I 0 W/m² -0,4 °C 2,9 °C 0,0 km/h (0 Bft)
10.01.2018 02:14 2,9 °C 79 % 1013,6 hPa 0,0 mm 0,0 km/h (0 Bft) W 275 ° 0 min 0,000 mm 0,0 UV-I 0 W/m² -0,4 °C 2,9 °C 0,0 km/h (0 Bft)
10.01.2018 02:15 2,8 °C 79 % 1013,7 hPa 0,0 mm 0,0 km/h (0 Bft) W 275 ° 0 min 0,000 mm 0,0 UV-I 0 W/m² -0,5 °C 2,8 °C 0,0 km/h (0 Bft)
10.01.2018 02:16 2,8 °C 78 % 1013,7 hPa 0,0 mm 0,0 km/h (0 Bft) W 275 ° 0 min 0,000 mm 0,0 UV-I 0 W/m² -0,6 °C 2,8 °C 0,0 km/h (0 Bft)
10.01.2018 02:17 2,7 °C 78 % 1013,7 hPa 0,0 mm 0,0 km/h (0 Bft) W 275 ° 0 min 0,000 mm 0,0 UV-I 0 W/m² -0,7 °C 2,7 °C 0,0 km/h (0 Bft)
10.01.2018 02:18 2,7 °C 78 % 1013,8 hPa 0,0 mm 0,0 km/h (0 Bft) W 275 ° 0 min 0,000 mm 0,0 UV-I 0 W/m² -0,7 °C 2,7 °C 0,0 km/h (0 Bft)
10.01.2018 02:19 2,7 °C 78 % 1013,7 hPa 0,0 mm 0,0 km/h (0 Bft) W 275 ° 0 min 0,000 mm 0,0 UV-I 0 W/m² -0,7 °C 2,7 °C 0,0 km/h (0 Bft)
10.01.2018 02:20 2,6 °C 78 % 1013,8 hPa 0,0 mm 0,0 km/h (0 Bft) W 275 ° 0 min 0,000 mm 0,0 UV-I 0 W/m² -0,8 °C 2,6 °C 0,0 km/h (0 Bft)
10.01.2018 02:21 2,6 °C 79 % 1013,8 hPa 0,0 mm 0,0 km/h (0 Bft) W 275 ° 0 min 0,000 mm 0,0 UV-I 0 W/m² -0,7 °C 2,6 °C 0,0 km/h (0 Bft)
10.01.2018 02:22 2,6 °C 79 % 1013,8 hPa 0,0 mm 0,0 km/h (0 Bft) W 275 ° 0 min 0,000 mm 0,0 UV-I 0 W/m² -0,7 °C 2,6 °C 0,0 km/h (0 Bft)
10.01.2018 02:23 2,4 °C 79 % 1013,7 hPa 0,0 mm 0,0 km/h (0 Bft) W 275 ° 0 min 0,000 mm 0,0 UV-I 0 W/m² -0,9 °C 2,4 °C 0,0 km/h (0 Bft)
10.01.2018 02:24 2,4 °C 79 % 1013,7 hPa 0,0 mm 0,0 km/h (0 Bft) W 275 ° 0 min 0,000 mm 0,0 UV-I 0 W/m² -0,9 °C 2,4 °C 0,0 km/h (0 Bft)
10.01.2018 02:25 2,3 °C 78 % 1013,7 hPa 0,0 mm 0,0 km/h (0 Bft) W 275 ° 0 min 0,000 mm 0,0 UV-I 0 W/m² -1,1 °C 2,3 °C 0,0 km/h (0 Bft)
10.01.2018 02:26 2,2 °C 78 % 1013,7 hPa 0,0 mm 0,0 km/h (0 Bft) W 275 ° 0 min 0,000 mm 0,0 UV-I 0 W/m² -1,2 °C 2,2 °C 0,0 km/h (0 Bft)
10.01.2018 02:27 2,2 °C 78 % 1013,7 hPa 0,0 mm 0,0 km/h (0 Bft) W 275 ° 0 min 0,000 mm 0,0 UV-I 0 W/m² -1,2 °C 2,2 °C 0,0 km/h (0 Bft)
10.01.2018 02:28 2,1 °C 79 % 1013,7 hPa 0,0 mm 0,0 km/h (0 Bft) W 275 ° 0 min 0,000 mm 0,0 UV-I 0 W/m² -1,2 °C 2,1 °C 0,0 km/h (0 Bft)
10.01.2018 02:29 2,1 °C 79 % 1013,8 hPa 0,0 mm 0,2 km/h (0 Bft) W 275 ° 0 min 0,000 mm 0,0 UV-I 0 W/m² -1,2 °C 2,1 °C 1,6 km/h (1 Bft)
10.01.2018 02:30 2,0 °C 79 % 1013,8 hPa 0,0 mm 0,0 km/h (0 Bft) W 275 ° 0 min 0,000 mm 0,0 UV-I 0 W/m² -1,2 °C 2,0 °C 0,0 km/h (0 Bft)
10.01.2018 02:31 1,9 °C 80 % 1013,7 hPa 0,0 mm 2,1 km/h (1 Bft) W-SW 242 ° 0 min 0,000 mm 0,0 UV-I 0 W/m² -1,2 °C 1,9 °C 4,8 km/h (1 Bft)
10.01.2018 02:32 1,9 °C 80 % 1013,7 hPa 0,0 mm 4,8 km/h (1 Bft) W-SW 242 ° 0 min 0,000 mm 0,0 UV-I 0 W/m² -1,2 °C 0,7 °C 4,8 km/h (1 Bft)
10.01.2018 02:33 1,9 °C 79 % 1013,7 hPa 0,0 mm 1,6 km/h (1 Bft) W-SW 247 ° 0 min 0,000 mm 0,0 UV-I 0 W/m² -1,3 °C 1,9 °C 3,2 km/h (1 Bft)
10.01.2018 02:34 1,8 °C 79 % 1013,7 hPa 0,0 mm 1,6 km/h (1 Bft) W-SW 247 ° 0 min 0,000 mm 0,0 UV-I 0 W/m² -1,4 °C 1,8 °C 3,2 km/h (1 Bft)
10.01.2018 02:35 1,8 °C 80 % 1013,7 hPa 0,0 mm 0,0 km/h (0 Bft) N 0 ° 0 min 0,000 mm 0,0 UV-I 0 W/m² -1,3 °C 1,8 °C 0,0 km/h (0 Bft)
10.01.2018 02:36 1,8 °C 80 % 1013,7 hPa 0,0 mm 0,0 km/h (0 Bft) N 0 ° 0 min 0,000 mm 0,0 UV-I 0 W/m² -1,3 °C 1,8 °C 0,0 km/h (0 Bft)
10.01.2018 02:37 1,7 °C 80 % 1013,7 hPa 0,0 mm 0,0 km/h (0 Bft) N 0 ° 0 min 0,000 mm 0,0 UV-I 0 W/m² -1,4 °C 1,7 °C 0,0 km/h (0 Bft)
10.01.2018 02:38 1,7 °C 80 % 1013,7 hPa 0,0 mm 0,0 km/h (0 Bft) N 0 ° 0 min 0,000 mm 0,0 UV-I 0 W/m² -1,4 °C 1,7 °C 0,0 km/h (0 Bft)
10.01.2018 02:39 1,7 °C 80 % 1013,7 hPa 0,0 mm 0,0 km/h (0 Bft) N 0 ° 0 min 0,000 mm 0,0 UV-I 0 W/m² -1,4 °C 1,7 °C 0,0 km/h (0 Bft)
10.01.2018 02:41 1,6 °C 80 % 1013,6 hPa 0,0 mm 0,0 km/h (0 Bft) W-SW 242 ° 0 min 0,000 mm 0,0 UV-I 0 W/m² -1,5 °C 1,6 °C 0,0 km/h (0 Bft)
10.01.2018 02:42 1,5 °C 80 % 1013,6 hPa 0,0 mm 0,0 km/h (0 Bft) W-SW 242 ° 0 min 0,000 mm 0,0 UV-I 0 W/m² -1,6 °C 1,5 °C 0,0 km/h (0 Bft)
10.01.2018 02:43 1,4 °C 80 % 1013,6 hPa 0,0 mm 0,0 km/h (0 Bft) W-SW 242 ° 0 min 0,000 mm 0,0 UV-I 0 W/m² -1,7 °C 1,4 °C 0,0 km/h (0 Bft)
10.01.2018 02:44 1,4 °C 81 % 1013,6 hPa 0,0 mm 0,0 km/h (0 Bft) W-SW 242 ° 0 min 0,000 mm 0,0 UV-I 0 W/m² -1,5 °C 1,4 °C 0,0 km/h (0 Bft)
10.01.2018 02:45 1,3 °C 81 % 1013,6 hPa 0,0 mm 0,0 km/h (0 Bft) W-SW 242 ° 0 min 0,000 mm 0,0 UV-I 0 W/m² -1,6 °C 1,3 °C 0,0 km/h (0 Bft)
10.01.2018 02:46 1,3 °C 81 % 1013,6 hPa 0,0 mm 0,0 km/h (0 Bft) W-SW 242 ° 0 min 0,000 mm 0,0 UV-I 0 W/m² -1,6 °C 1,3 °C 0,0 km/h (0 Bft)
10.01.2018 02:47 1,3 °C 81 % 1013,6 hPa 0,0 mm 0,0 km/h (0 Bft) W-SW 242 ° 0 min 0,000 mm 0,0 UV-I 0 W/m² -1,6 °C 1,3 °C 0,0 km/h (0 Bft)
10.01.2018 02:48 1,3 °C 81 % 1013,6 hPa 0,0 mm 0,0 km/h (0 Bft) W-SW 242 ° 0 min 0,000 mm 0,0 UV-I 0 W/m² -1,6 °C 1,3 °C 0,0 km/h (0 Bft)
10.01.2018 02:49 1,3 °C 81 % 1013,6 hPa 0,0 mm 0,0 km/h (0 Bft) W-SW 242 ° 0 min 0,000 mm 0,0 UV-I 0 W/m² -1,6 °C 1,3 °C 0,0 km/h (0 Bft)
10.01.2018 02:50 1,3 °C 81 % 1013,6 hPa 0,0 mm 0,0 km/h (0 Bft) W-SW 242 ° 0 min 0,000 mm 0,0 UV-I 0 W/m² -1,6 °C 1,3 °C 0,0 km/h (0 Bft)
10.01.2018 02:51 1,2 °C 81 % 1013,6 hPa 0,0 mm 0,0 km/h (0 Bft) W-SW 242 ° 0 min 0,000 mm 0,0 UV-I 0 W/m² -1,7 °C 1,2 °C 0,0 km/h (0 Bft)
10.01.2018 02:52 1,2 °C 81 % 1013,5 hPa 0,0 mm 0,0 km/h (0 Bft) W-SW 242 ° 0 min 0,000 mm 0,0 UV-I 0 W/m² -1,7 °C 1,2 °C 0,0 km/h (0 Bft)
10.01.2018 02:53 1,2 °C 81 % 1013,5 hPa 0,0 mm 0,0 km/h (0 Bft) W-SW 242 ° 0 min 0,000 mm 0,0 UV-I 0 W/m² -1,7 °C 1,2 °C 0,0 km/h (0 Bft)
10.01.2018 02:54 1,2 °C 81 % 1013,5 hPa 0,0 mm 0,0 km/h (0 Bft) W-SW 242 ° 0 min 0,000 mm 0,0 UV-I 0 W/m² -1,7 °C 1,2 °C 0,0 km/h (0 Bft)
10.01.2018 02:55 1,2 °C 82 % 1013,5 hPa 0,0 mm 0,0 km/h (0 Bft) W-SW 242 ° 0 min 0,000 mm 0,0 UV-I 0 W/m² -1,5 °C 1,2 °C 0,0 km/h (0 Bft)
10.01.2018 02:56 1,1 °C 82 % 1013,5 hPa 0,0 mm 0,0 km/h (0 Bft) W-SW 242 ° 0 min 0,000 mm 0,0 UV-I 0 W/m² -1,6 °C 1,1 °C 0,0 km/h (0 Bft)
10.01.2018 02:57 1,1 °C 82 % 1013,4 hPa 0,0 mm 0,0 km/h (0 Bft) W-SW 242 ° 0 min 0,000 mm 0,0 UV-I 0 W/m² -1,6 °C 1,1 °C 0,0 km/h (0 Bft)
10.01.2018 02:58 1,1 °C 82 % 1013,4 hPa 0,0 mm 0,0 km/h (0 Bft) W-SW 242 ° 0 min 0,000 mm 0,0 UV-I 0 W/m² -1,6 °C 1,1 °C 0,0 km/h (0 Bft)
10.01.2018 02:59 1,1 °C 82 % 1013,5 hPa 0,0 mm 0,0 km/h (0 Bft) W-SW 242 ° 0 min 0,000 mm 0,0 UV-I 0 W/m² -1,6 °C 1,1 °C 0,0 km/h (0 Bft)
10.01.2018 03:00 1,1 °C 82 % 1013,4 hPa 0,0 mm 0,0 km/h (0 Bft) W-SW 242 ° 0 min 0,000 mm 0,0 UV-I 0 W/m² -1,6 °C 1,1 °C 0,0 km/h (0 Bft)
10.01.2018 03:01 1,1 °C 82 % 1013,4 hPa 0,0 mm 0,0 km/h (0 Bft) W-SW 242 ° 0 min 0,000 mm 0,0 UV-I 0 W/m² -1,6 °C 1,1 °C 0,0 km/h (0 Bft)
10.01.2018 03:02 1,0 °C 82 % 1013,4 hPa 0,0 mm 0,0 km/h (0 Bft) W-SW 242 ° 0 min 0,000 mm 0,0 UV-I 0 W/m² -1,7 °C 1,0 °C 0,0 km/h (0 Bft)
10.01.2018 03:03 1,1 °C 82 % 1013,5 hPa 0,0 mm 0,0 km/h (0 Bft) W-SW 242 ° 0 min 0,000 mm 0,0 UV-I 0 W/m² -1,6 °C 1,1 °C 0,0 km/h (0 Bft)
10.01.2018 03:04 1,0 °C 82 % 1013,5 hPa 0,0 mm 0,0 km/h (0 Bft) W-SW 242 ° 0 min 0,000 mm 0,0 UV-I 0 W/m² -1,7 °C 1,0 °C 0,0 km/h (0 Bft)
10.01.2018 03:05 0,9 °C 82 % 1013,5 hPa 0,0 mm 0,0 km/h (0 Bft) W-SW 242 ° 0 min 0,000 mm 0,0 UV-I 0 W/m² -1,8 °C 0,9 °C 0,0 km/h (0 Bft)
10.01.2018 03:06 0,9 °C 82 % 1013,4 hPa 0,0 mm 0,0 km/h (0 Bft) W-SW 242 ° 0 min 0,000 mm 0,0 UV-I 0 W/m² -1,8 °C 0,9 °C 0,0 km/h (0 Bft)
10.01.2018 03:07 0,9 °C 81 % 1013,5 hPa 0,0 mm 0,0 km/h (0 Bft) W-SW 242 ° 0 min 0,000 mm 0,0 UV-I 0 W/m² -2,0 °C 0,9 °C 0,0 km/h (0 Bft)
10.01.2018 03:08 0,8 °C 81 % 1013,5 hPa 0,0 mm 0,0 km/h (0 Bft) W-SW 242 ° 0 min 0,000 mm 0,0 UV-I 0 W/m² -2,1 °C 0,8 °C 0,0 km/h (0 Bft)
10.01.2018 03:09 0,8 °C 82 % 1013,5 hPa 0,0 mm 0,0 km/h (0 Bft) W-SW 242 ° 0 min 0,000 mm 0,0 UV-I 0 W/m² -1,9 °C 0,8 °C 0,0 km/h (0 Bft)
10.01.2018 03:10 0,8 °C 82 % 1013,4 hPa 0,0 mm 0,0 km/h (0 Bft) W-SW 242 ° 0 min 0,000 mm 0,0 UV-I 0 W/m² -1,9 °C 0,8 °C 0,0 km/h (0 Bft)
10.01.2018 03:11 0,8 °C 82 % 1013,4 hPa 0,0 mm 0,0 km/h (0 Bft) W-SW 242 ° 0 min 0,000 mm 0,0 UV-I 0 W/m² -1,9 °C 0,8 °C 0,0 km/h (0 Bft)
10.01.2018 03:12 0,8 °C 82 % 1013,4 hPa 0,0 mm 0,0 km/h (0 Bft) W-SW 242 ° 0 min 0,000 mm 0,0 UV-I 0 W/m² -1,9 °C 0,8 °C 0,0 km/h (0 Bft)
10.01.2018 03:13 0,8 °C 82 % 1013,4 hPa 0,0 mm 0,0 km/h (0 Bft) W-SW 242 ° 0 min 0,000 mm 0,0 UV-I 0 W/m² -1,9 °C 0,8 °C 0,0 km/h (0 Bft)
10.01.2018 03:14 0,7 °C 82 % 1013,4 hPa 0,0 mm 0,0 km/h (0 Bft) W-SW 242 ° 0 min 0,000 mm 0,0 UV-I 0 W/m² -2,0 °C 0,7 °C 0,0 km/h (0 Bft)
10.01.2018 03:15 0,7 °C 82 % 1013,4 hPa 0,0 mm 0,0 km/h (0 Bft) W-SW 242 ° 0 min 0,000 mm 0,0 UV-I 0 W/m² -2,0 °C 0,7 °C 0,0 km/h (0 Bft)
10.01.2018 03:16 0,7 °C 81 % 1013,4 hPa 0,0 mm 0,0 km/h (0 Bft) W-SW 242 ° 0 min 0,000 mm 0,0 UV-I 0 W/m² -2,2 °C 0,7 °C 0,0 km/h (0 Bft)
10.01.2018 03:17 0,7 °C 81 % 1013,4 hPa 0,0 mm 0,0 km/h (0 Bft) W-SW 242 ° 0 min 0,000 mm 0,0 UV-I 0 W/m² -2,2 °C 0,7 °C 0,0 km/h (0 Bft)
10.01.2018 03:18 0,6 °C 81 % 1013,4 hPa 0,0 mm 0,0 km/h (0 Bft) N 0 ° 0 min 0,000 mm 0,0 UV-I 0 W/m² -2,3 °C 0,6 °C 0,0 km/h (0 Bft)
10.01.2018 03:19 0,5 °C 81 % 1013,4 hPa 0,0 mm 0,0 km/h (0 Bft) N 0 ° 0 min 0,000 mm 0,0 UV-I 0 W/m² -2,4 °C 0,5 °C 0,0 km/h (0 Bft)
10.01.2018 03:20 0,5 °C 81 % 1013,4 hPa 0,0 mm 0,0 km/h (0 Bft) N 0 ° 0 min 0,000 mm 0,0 UV-I 0 W/m² -2,4 °C 0,5 °C 0,0 km/h (0 Bft)
10.01.2018 03:21 0,4 °C 81 % 1013,3 hPa 0,0 mm 0,0 km/h (0 Bft) N 0 ° 0 min 0,000 mm 0,0 UV-I 0 W/m² -2,5 °C 0,4 °C 0,0 km/h (0 Bft)
10.01.2018 03:22 0,4 °C 81 % 1013,3 hPa 0,0 mm 0,0 km/h (0 Bft) N 0 ° 0 min 0,000 mm 0,0 UV-I 0 W/m² -2,5 °C 0,4 °C 0,0 km/h (0 Bft)
10.01.2018 03:23 0,4 °C 81 % 1013,2 hPa 0,0 mm 0,0 km/h (0 Bft) N 0 ° 0 min 0,000 mm 0,0 UV-I 0 W/m² -2,5 °C 0,4 °C 0,0 km/h (0 Bft)
10.01.2018 03:24 0,4 °C 81 % 1013,2 hPa 0,0 mm 0,0 km/h (0 Bft) N 0 ° 0 min 0,000 mm 0,0 UV-I 0 W/m² -2,5 °C 0,4 °C 0,0 km/h (0 Bft)
10.01.2018 03:25 0,4 °C 81 % 1013,3 hPa 0,0 mm 0,0 km/h (0 Bft) N 0 ° 0 min 0,000 mm 0,0 UV-I 0 W/m² -2,5 °C 0,4 °C 0,0 km/h (0 Bft)
10.01.2018 03:27 0,3 °C 81 % 1013,2 hPa 0,0 mm 0,0 km/h (0 Bft) W-SW 242 ° 0 min 0,000 mm 0,0 UV-I 0 W/m² -2,6 °C 0,3 °C 0,0 km/h (0 Bft)
10.01.2018 03:28 0,3 °C 81 % 1013,2 hPa 0,0 mm 0,0 km/h (0 Bft) W-SW 242 ° 0 min 0,000 mm 0,0 UV-I 0 W/m² -2,6 °C 0,3 °C 0,0 km/h (0 Bft)
10.01.2018 03:29 0,3 °C 81 % 1013,1 hPa 0,0 mm 0,0 km/h (0 Bft) W-SW 242 ° 0 min 0,000 mm 0,0 UV-I 0 W/m² -2,6 °C 0,3 °C 0,0 km/h (0 Bft)
10.01.2018 03:30 0,2 °C 82 % 1013,2 hPa 0,0 mm 0,0 km/h (0 Bft) W-SW 242 ° 0 min 0,000 mm 0,0 UV-I 0 W/m² -2,5 °C 0,2 °C 0,0 km/h (0 Bft)
10.01.2018 03:31 0,2 °C 82 % 1013,1 hPa 0,0 mm 0,0 km/h (0 Bft) W-SW 242 ° 0 min 0,000 mm 0,0 UV-I 0 W/m² -2,5 °C 0,2 °C 0,0 km/h (0 Bft)
10.01.2018 03:32 0,2 °C 82 % 1013,1 hPa 0,0 mm 0,0 km/h (0 Bft) W-SW 242 ° 0 min 0,000 mm 0,0 UV-I 0 W/m² -2,5 °C 0,2 °C 0,0 km/h (0 Bft)
10.01.2018 03:33 0,1 °C 82 % 1013,1 hPa 0,0 mm 0,0 km/h (0 Bft) W-SW 242 ° 0 min 0,000 mm 0,0 UV-I 0 W/m² -2,6 °C 0,1 °C 0,0 km/h (0 Bft)
10.01.2018 03:34 0,1 °C 82 % 1013,1 hPa 0,0 mm 0,0 km/h (0 Bft) W-SW 242 ° 0 min 0,000 mm 0,0 UV-I 0 W/m² -2,6 °C 0,1 °C 0,0 km/h (0 Bft)
10.01.2018 03:35 0,1 °C 82 % 1013,1 hPa 0,0 mm 0,0 km/h (0 Bft) W-SW 242 ° 0 min 0,000 mm 0,0 UV-I 0 W/m² -2,6 °C 0,1 °C 0,0 km/h (0 Bft)
10.01.2018 03:36 0,1 °C 81 % 1013,1 hPa 0,0 mm 0,0 km/h (0 Bft) W-SW 242 ° 0 min 0,000 mm 0,0 UV-I 0 W/m² -2,8 °C 0,1 °C 0,0 km/h (0 Bft)
10.01.2018 03:37 0,0 °C 81 % 1013,1 hPa 0,0 mm 0,0 km/h (0 Bft) W-SW 242 ° 0 min 0,000 mm 0,0 UV-I 0 W/m² -2,9 °C 0,0 °C 0,0 km/h (0 Bft)
10.01.2018 03:38 0,0 °C 82 % 1013,1 hPa 0,0 mm 0,0 km/h (0 Bft) W-SW 242 ° 0 min 0,000 mm 0,0 UV-I 0 W/m² -2,7 °C 0,0 °C 0,0 km/h (0 Bft)
10.01.2018 03:39 -0,1 °C 82 % 1013,1 hPa 0,0 mm 0,0 km/h (0 Bft) W-SW 242 ° 0 min 0,000 mm 0,0 UV-I 0 W/m² -2,8 °C -0,1 °C 0,0 km/h (0 Bft)
10.01.2018 03:40 -0,1 °C 82 % 1013,1 hPa 0,0 mm 0,0 km/h (0 Bft) W-SW 242 ° 0 min 0,000 mm 0,0 UV-I 0 W/m² -2,8 °C -0,1 °C 0,0 km/h (0 Bft)
10.01.2018 03:41 -0,1 °C 82 % 1013,1 hPa 0,0 mm 0,0 km/h (0 Bft) W-SW 242 ° 0 min 0,000 mm 0,0 UV-I 0 W/m² -2,8 °C -0,1 °C 0,0 km/h (0 Bft)
10.01.2018 03:42 -0,2 °C 82 % 1013,1 hPa 0,0 mm 0,0 km/h (0 Bft) W-SW 242 ° 0 min 0,000 mm 0,0 UV-I 0 W/m² -2,9 °C -0,2 °C 0,0 km/h (0 Bft)
10.01.2018 03:43 -0,2 °C 82 % 1013,1 hPa 0,0 mm 0,0 km/h (0 Bft) W-SW 242 ° 0 min 0,000 mm 0,0 UV-I 0 W/m² -2,9 °C -0,2 °C 0,0 km/h (0 Bft)
10.01.2018 03:44 -0,2 °C 83 % 1013,1 hPa 0,0 mm 0,0 km/h (0 Bft) W-SW 242 ° 0 min 0,000 mm 0,0 UV-I 0 W/m² -2,7 °C -0,2 °C 0,0 km/h (0 Bft)
10.01.2018 03:45 -0,3 °C 83 % 1013,1 hPa 0,0 mm 0,0 km/h (0 Bft) W-SW 242 ° 0 min 0,000 mm 0,0 UV-I 0 W/m² -2,8 °C -0,3 °C 0,0 km/h (0 Bft)
10.01.2018 03:46 -0,3 °C 83 % 1013,1 hPa 0,0 mm 0,0 km/h (0 Bft) W-SW 242 ° 0 min 0,000 mm 0,0 UV-I 0 W/m² -2,8 °C -0,3 °C 0,0 km/h (0 Bft)
10.01.2018 03:47 -0,3 °C 83 % 1013,1 hPa 0,0 mm 0,0 km/h (0 Bft) W-SW 242 ° 0 min 0,000 mm 0,0 UV-I 0 W/m² -2,8 °C -0,3 °C 0,0 km/h (0 Bft)
10.01.2018 03:48 -0,3 °C 83 % 1013,1 hPa 0,0 mm 0,0 km/h (0 Bft) W-SW 242 ° 0 min 0,000 mm 0,0 UV-I 0 W/m² -2,8 °C -0,3 °C 0,0 km/h (0 Bft)
10.01.2018 03:49 -0,3 °C 83 % 1013,1 hPa 0,0 mm 0,0 km/h (0 Bft) W-SW 242 ° 0 min 0,000 mm 0,0 UV-I 0 W/m² -2,8 °C -0,3 °C 0,0 km/h (0 Bft)
10.01.2018 03:50 -0,4 °C 83 % 1013,2 hPa 0,0 mm 0,0 km/h (0 Bft) W-SW 242 ° 0 min 0,000 mm 0,0 UV-I 0 W/m² -2,9 °C -0,4 °C 0,0 km/h (0 Bft)
10.01.2018 03:51 -0,4 °C 83 % 1013,1 hPa 0,0 mm 0,0 km/h (0 Bft) W-SW 242 ° 0 min 0,000 mm 0,0 UV-I 0 W/m² -2,9 °C -0,4 °C 0,0 km/h (0 Bft)
10.01.2018 03:52 -0,4 °C 83 % 1013,1 hPa 0,0 mm 0,0 km/h (0 Bft) W-SW 242 ° 0 min 0,000 mm 0,0 UV-I 0 W/m² -2,9 °C -0,4 °C 0,0 km/h (0 Bft)
10.01.2018 03:53 -0,4 °C 84 % 1013,1 hPa 0,0 mm 0,0 km/h (0 Bft) W-SW 242 ° 0 min 0,000 mm 0,0 UV-I 0 W/m² -2,8 °C -0,4 °C 0,0 km/h (0 Bft)
10.01.2018 03:54 -0,4 °C 84 % 1013,1 hPa 0,0 mm 0,0 km/h (0 Bft) W-SW 242 ° 0 min 0,000 mm 0,0 UV-I 0 W/m² -2,8 °C -0,4 °C 0,0 km/h (0 Bft)
10.01.2018 03:55 -0,5 °C 84 % 1013,1 hPa 0,0 mm 0,0 km/h (0 Bft) W-SW 242 ° 0 min 0,000 mm 0,0 UV-I 0 W/m² -2,9 °C -0,5 °C 0,0 km/h (0 Bft)
10.01.2018 03:56 -0,5 °C 84 % 1013,1 hPa 0,0 mm 0,0 km/h (0 Bft) W-SW 242 ° 0 min 0,000 mm 0,0 UV-I 0 W/m² -2,9 °C -0,5 °C 0,0 km/h (0 Bft)
10.01.2018 03:57 -0,6 °C 84 % 1013,1 hPa 0,0 mm 0,0 km/h (0 Bft) W-SW 242 ° 0 min 0,000 mm 0,0 UV-I 0 W/m² -3,0 °C -0,6 °C 0,0 km/h (0 Bft)
10.01.2018 03:58 -0,6 °C 84 % 1013,1 hPa 0,0 mm 0,0 km/h (0 Bft) W-SW 242 ° 0 min 0,000 mm 0,0 UV-I 0 W/m² -3,0 °C -0,6 °C 0,0 km/h (0 Bft)
10.01.2018 03:59 -0,6 °C 84 % 1013,0 hPa 0,0 mm 0,0 km/h (0 Bft) W-SW 242 ° 0 min 0,000 mm 0,0 UV-I 0 W/m² -3,0 °C -0,6 °C 0,0 km/h (0 Bft)
10.01.2018 04:00 -0,6 °C 85 % 1013,0 hPa 0,0 mm 0,0 km/h (0 Bft) W-SW 242 ° 0 min 0,000 mm 0,0 UV-I 0 W/m² -2,8 °C -0,6 °C 0,0 km/h (0 Bft)
10.01.2018 04:01 -0,6 °C 85 % 1013,0 hPa 0,0 mm 0,0 km/h (0 Bft) W-SW 242 ° 0 min 0,000 mm 0,0 UV-I 0 W/m² -2,8 °C -0,6 °C 0,0 km/h (0 Bft)
10.01.2018 04:02 -0,7 °C 85 % 1013,0 hPa 0,0 mm 0,0 km/h (0 Bft) W-SW 242 ° 0 min 0,000 mm 0,0 UV-I 0 W/m² -2,9 °C -0,7 °C 0,0 km/h (0 Bft)
10.01.2018 04:03 -0,7 °C 85 % 1012,9 hPa 0,0 mm 0,0 km/h (0 Bft) W-SW 242 ° 0 min 0,000 mm 0,0 UV-I 0 W/m² -2,9 °C -0,7 °C 0,0 km/h (0 Bft)
10.01.2018 04:04 -0,7 °C 85 % 1012,9 hPa 0,0 mm 0,0 km/h (0 Bft) W-SW 242 ° 0 min 0,000 mm 0,0 UV-I 0 W/m² -2,9 °C -0,7 °C 0,0 km/h (0 Bft)
10.01.2018 04:05 -0,7 °C 85 % 1013,0 hPa 0,0 mm 0,0 km/h (0 Bft) W-SW 242 ° 0 min 0,000 mm 0,0 UV-I 0 W/m² -2,9 °C -0,7 °C 0,0 km/h (0 Bft)
10.01.2018 04:06 -0,7 °C 85 % 1013,0 hPa 0,0 mm 0,0 km/h (0 Bft) W-SW 242 ° 0 min 0,000 mm 0,0 UV-I 0 W/m² -2,9 °C -0,7 °C 0,0 km/h (0 Bft)
10.01.2018 04:07 -0,7 °C 85 % 1013,0 hPa 0,0 mm 0,0 km/h (0 Bft) W-SW 242 ° 0 min 0,000 mm 0,0 UV-I 0 W/m² -2,9 °C -0,7 °C 0,0 km/h (0 Bft)
10.01.2018 04:08 -0,8 °C 85 % 1013,0 hPa 0,0 mm 0,0 km/h (0 Bft) W-SW 242 ° 0 min 0,000 mm 0,0 UV-I 0 W/m² -3,0 °C -0,8 °C 0,0 km/h (0 Bft)
10.01.2018 04:09 -0,8 °C 85 % 1013,0 hPa 0,0 mm 0,0 km/h (0 Bft) W-SW 242 ° 0 min 0,000 mm 0,0 UV-I 0 W/m² -3,0 °C -0,8 °C 0,0 km/h (0 Bft)
10.01.2018 04:10 -0,8 °C 85 % 1013,0 hPa 0,0 mm 0,0 km/h (0 Bft) W-SW 242 ° 0 min 0,000 mm 0,0 UV-I 0 W/m² -3,0 °C -0,8 °C 0,0 km/h (0 Bft)
10.01.2018 04:11 -0,8 °C 85 % 1012,9 hPa 0,0 mm 0,0 km/h (0 Bft) W-SW 242 ° 0 min 0,000 mm 0,0 UV-I 0 W/m² -3,0 °C -0,8 °C 0,0 km/h (0 Bft)
10.01.2018 04:12 -0,8 °C 85 % 1012,9 hPa 0,0 mm 0,0 km/h (0 Bft) W-SW 242 ° 0 min 0,000 mm 0,0 UV-I 0 W/m² -3,0 °C -0,8 °C 0,0 km/h (0 Bft)
10.01.2018 04:13 -0,8 °C 85 % 1012,9 hPa 0,0 mm 0,0 km/h (0 Bft) W-SW 242 ° 0 min 0,000 mm 0,0 UV-I 0 W/m² -3,0 °C -0,8 °C 0,0 km/h (0 Bft)
10.01.2018 04:14 -0,8 °C 85 % 1012,9 hPa 0,0 mm 0,0 km/h (0 Bft) W-SW 242 ° 0 min 0,000 mm 0,0 UV-I 0 W/m² -3,0 °C -0,8 °C 0,0 km/h (0 Bft)
10.01.2018 04:15 -0,9 °C 85 % 1013,0 hPa 0,0 mm 0,0 km/h (0 Bft) W-SW 242 ° 0 min 0,000 mm 0,0 UV-I 0 W/m² -3,1 °C -0,9 °C 0,0 km/h (0 Bft)
10.01.2018 04:16 -0,9 °C 85 % 1012,9 hPa 0,0 mm 0,0 km/h (0 Bft) W-SW 242 ° 0 min 0,000 mm 0,0 UV-I 0 W/m² -3,1 °C -0,9 °C 0,0 km/h (0 Bft)
10.01.2018 04:17 -0,9 °C 85 % 1012,9 hPa 0,0 mm 0,0 km/h (0 Bft) W-SW 242 ° 0 min 0,000 mm 0,0 UV-I 0 W/m² -3,1 °C -0,9 °C 0,0 km/h (0 Bft)
10.01.2018 04:18 -0,9 °C 85 % 1012,9 hPa 0,0 mm 0,0 km/h (0 Bft) W-SW 242 ° 0 min 0,000 mm 0,0 UV-I 0 W/m² -3,1 °C -0,9 °C 0,0 km/h (0 Bft)
10.01.2018 04:19 -0,9 °C 85 % 1012,9 hPa 0,0 mm 0,0 km/h (0 Bft) W-SW 242 ° 0 min 0,000 mm 0,0 UV-I 0 W/m² -3,1 °C -0,9 °C 0,0 km/h (0 Bft)
10.01.2018 04:20 -0,9 °C 85 % 1012,9 hPa 0,0 mm 0,0 km/h (0 Bft) W-SW 242 ° 0 min 0,000 mm 0,0 UV-I 0 W/m² -3,1 °C -0,9 °C 0,0 km/h (0 Bft)
10.01.2018 04:21 -0,9 °C 85 % 1012,9 hPa 0,0 mm 0,0 km/h (0 Bft) W-SW 242 ° 0 min 0,000 mm 0,0 UV-I 0 W/m² -3,1 °C -0,9 °C 0,0 km/h (0 Bft)
10.01.2018 04:22 -0,9 °C 85 % 1012,9 hPa 0,0 mm 0,0 km/h (0 Bft) W-SW 242 ° 0 min 0,000 mm 0,0 UV-I 0 W/m² -3,1 °C -0,9 °C 0,0 km/h (0 Bft)
10.01.2018 04:23 -0,9 °C 85 % 1012,9 hPa 0,0 mm 0,0 km/h (0 Bft) W-SW 242 ° 0 min 0,000 mm 0,0 UV-I 0 W/m² -3,1 °C -0,9 °C 0,0 km/h (0 Bft)
10.01.2018 04:24 -1,1 °C 85 % 1012,9 hPa 0,0 mm 0,0 km/h (0 Bft) W-SW 242 ° 0 min 0,000 mm 0,0 UV-I 0 W/m² -3,3 °C -1,1 °C 0,0 km/h (0 Bft)
10.01.2018 04:25 -1,1 °C 85 % 1012,9 hPa 0,0 mm 0,0 km/h (0 Bft) W-SW 242 ° 0 min 0,000 mm 0,0 UV-I 0 W/m² -3,3 °C -1,1 °C 0,0 km/h (0 Bft)
10.01.2018 04:26 -1,1 °C 86 % 1012,9 hPa 0,0 mm 0,0 km/h (0 Bft) W-SW 242 ° 0 min 0,000 mm 0,0 UV-I 0 W/m² -3,1 °C -1,1 °C 0,0 km/h (0 Bft)
10.01.2018 04:27 -1,1 °C 86 % 1012,9 hPa 0,0 mm 0,0 km/h (0 Bft) W-SW 242 ° 0 min 0,000 mm 0,0 UV-I 0 W/m² -3,1 °C -1,1 °C 0,0 km/h (0 Bft)
10.01.2018 04:28 -1,1 °C 86 % 1012,9 hPa 0,0 mm 0,0 km/h (0 Bft) W-SW 242 ° 0 min 0,000 mm 0,0 UV-I 0 W/m² -3,1 °C -1,1 °C 0,0 km/h (0 Bft)
10.01.2018 04:29 -1,1 °C 86 % 1012,9 hPa 0,0 mm 0,0 km/h (0 Bft) W-SW 242 ° 0 min 0,000 mm 0,0 UV-I 0 W/m² -3,1 °C -1,1 °C 0,0 km/h (0 Bft)
10.01.2018 04:30 -1,1 °C 86 % 1012,9 hPa 0,0 mm 0,0 km/h (0 Bft) W-SW 242 ° 0 min 0,000 mm 0,0 UV-I 0 W/m² -3,1 °C -1,1 °C 0,0 km/h (0 Bft)
10.01.2018 04:31 -1,1 °C 86 % 1012,9 hPa 0,0 mm 0,0 km/h (0 Bft) W-SW 242 ° 0 min 0,000 mm 0,0 UV-I 0 W/m² -3,1 °C -1,1 °C 0,0 km/h (0 Bft)
10.01.2018 04:32 -1,1 °C 86 % 1012,9 hPa 0,0 mm 0,0 km/h (0 Bft) W-SW 242 ° 0 min 0,000 mm 0,0 UV-I 0 W/m² -3,1 °C -1,1 °C 0,0 km/h (0 Bft)
10.01.2018 04:33 -1,1 °C 86 % 1012,9 hPa 0,0 mm 0,0 km/h (0 Bft) W-SW 242 ° 0 min 0,000 mm 0,0 UV-I 0 W/m² -3,1 °C -1,1 °C 0,0 km/h (0 Bft)
10.01.2018 04:34 -1,2 °C 86 % 1012,9 hPa 0,0 mm 0,0 km/h (0 Bft) W-SW 242 ° 0 min 0,000 mm 0,0 UV-I 0 W/m² -3,2 °C -1,2 °C 0,0 km/h (0 Bft)
10.01.2018 04:35 -1,2 °C 86 % 1012,9 hPa 0,0 mm 0,0 km/h (0 Bft) W-SW 242 ° 0 min 0,000 mm 0,0 UV-I 0 W/m² -3,2 °C -1,2 °C 0,0 km/h (0 Bft)
10.01.2018 04:36 -1,2 °C 86 % 1012,9 hPa 0,0 mm 0,0 km/h (0 Bft) W-SW 242 ° 0 min 0,000 mm 0,0 UV-I 0 W/m² -3,2 °C -1,2 °C 0,0 km/h (0 Bft)
10.01.2018 04:37 -1,2 °C 86 % 1012,9 hPa 0,0 mm 0,0 km/h (0 Bft) W-SW 242 ° 0 min 0,000 mm 0,0 UV-I 0 W/m² -3,2 °C -1,2 °C 0,0 km/h (0 Bft)
10.01.2018 04:38 -1,2 °C 86 % 1013,0 hPa 0,0 mm 0,0 km/h (0 Bft) W-SW 242 ° 0 min 0,000 mm 0,0 UV-I 0 W/m² -3,2 °C -1,2 °C 0,0 km/h (0 Bft)
10.01.2018 04:39 -1,2 °C 86 % 1013,0 hPa 0,0 mm 0,0 km/h (0 Bft) W-SW 242 ° 0 min 0,000 mm 0,0 UV-I 0 W/m² -3,2 °C -1,2 °C 0,0 km/h (0 Bft)
10.01.2018 04:40 -1,2 °C 86 % 1012,9 hPa 0,0 mm 0,0 km/h (0 Bft) W-SW 242 ° 0 min 0,000 mm 0,0 UV-I 0 W/m² -3,2 °C -1,2 °C 0,0 km/h (0 Bft)
10.01.2018 04:41 -1,2 °C 86 % 1012,9 hPa 0,0 mm 0,0 km/h (0 Bft) W-SW 242 ° 0 min 0,000 mm 0,0 UV-I 0 W/m² -3,2 °C -1,2 °C 0,0 km/h (0 Bft)
10.01.2018 04:42 -1,2 °C 86 % 1012,9 hPa 0,0 mm 0,0 km/h (0 Bft) W-SW 242 ° 0 min 0,000 mm 0,0 UV-I 0 W/m² -3,2 °C -1,2 °C 0,0 km/h (0 Bft)
10.01.2018 04:43 -1,2 °C 86 % 1012,9 hPa 0,0 mm 0,0 km/h (0 Bft) W-SW 242 ° 0 min 0,000 mm 0,0 UV-I 0 W/m² -3,2 °C -1,2 °C 0,0 km/h (0 Bft)
10.01.2018 04:44 -1,2 °C 86 % 1012,9 hPa 0,0 mm 0,0 km/h (0 Bft) W-SW 242 ° 0 min 0,000 mm 0,0 UV-I 0 W/m² -3,2 °C -1,2 °C 0,0 km/h (0 Bft)
10.01.2018 04:45 -1,3 °C 86 % 1012,9 hPa 0,0 mm 0,0 km/h (0 Bft) W-SW 242 ° 0 min 0,000 mm 0,0 UV-I 0 W/m² -3,3 °C -1,3 °C 0,0 km/h (0 Bft)
10.01.2018 04:46 -1,3 °C 86 % 1012,9 hPa 0,0 mm 2,1 km/h (1 Bft) W-SW 242 ° 0 min 0,000 mm 0,0 UV-I 0 W/m² -3,3 °C -1,3 °C 3,2 km/h (1 Bft)
10.01.2018 04:47 -1,3 °C 86 % 1012,9 hPa 0,0 mm 2,9 km/h (1 Bft) W-SW 242 ° 0 min 0,000 mm 0,0 UV-I 0 W/m² -3,3 °C -1,3 °C 3,2 km/h (1 Bft)
10.01.2018 04:48 -1,3 °C 86 % 1012,9 hPa 0,0 mm 0,5 km/h (0 Bft) W-SW 242 ° 0 min 0,000 mm 0,0 UV-I 0 W/m² -3,3 °C -1,3 °C 1,6 km/h (1 Bft)
10.01.2018 04:49 -1,3 °C 86 % 1012,9 hPa 0,0 mm 0,0 km/h (0 Bft) W-SW 242 ° 0 min 0,000 mm 0,0 UV-I 0 W/m² -3,3 °C -1,3 °C 0,0 km/h (0 Bft)
10.01.2018 04:50 -1,3 °C 86 % 1012,9 hPa 0,0 mm 0,0 km/h (0 Bft) W-SW 242 ° 0 min 0,000 mm 0,0 UV-I 0 W/m² -3,3 °C -1,3 °C 0,0 km/h (0 Bft)
10.01.2018 04:51 -1,3 °C 87 % 1012,9 hPa 0,0 mm 0,0 km/h (0 Bft) W-SW 242 ° 0 min 0,000 mm 0,0 UV-I 0 W/m² -3,2 °C -1,3 °C 0,0 km/h (0 Bft)
10.01.2018 04:52 -1,3 °C 87 % 1012,8 hPa 0,0 mm 0,0 km/h (0 Bft) W-SW 242 ° 0 min 0,000 mm 0,0 UV-I 0 W/m² -3,2 °C -1,3 °C 0,0 km/h (0 Bft)
10.01.2018 04:53 -1,4 °C 87 % 1012,8 hPa 0,0 mm 0,0 km/h (0 Bft) W-SW 242 ° 0 min 0,000 mm 0,0 UV-I 0 W/m² -3,3 °C -1,4 °C 0,0 km/h (0 Bft)
10.01.2018 04:54 -1,3 °C 87 % 1012,8 hPa 0,0 mm 0,0 km/h (0 Bft) W-SW 242 ° 0 min 0,000 mm 0,0 UV-I 0 W/m² -3,2 °C -1,3 °C 0,0 km/h (0 Bft)
10.01.2018 04:55 -1,3 °C 87 % 1012,8 hPa 0,0 mm 0,0 km/h (0 Bft) W-SW 242 ° 0 min 0,000 mm 0,0 UV-I 0 W/m² -3,2 °C -1,3 °C 0,0 km/h (0 Bft)
10.01.2018 04:56 -1,3 °C 87 % 1012,8 hPa 0,0 mm 0,0 km/h (0 Bft) W-SW 242 ° 0 min 0,000 mm 0,0 UV-I 0 W/m² -3,2 °C -1,3 °C 0,0 km/h (0 Bft)
10.01.2018 04:57 -1,3 °C 87 % 1012,8 hPa 0,0 mm 0,0 km/h (0 Bft) W-SW 242 ° 0 min 0,000 mm 0,0 UV-I 0 W/m² -3,2 °C -1,3 °C 0,0 km/h (0 Bft)
10.01.2018 04:58 -1,3 °C 87 % 1012,8 hPa 0,0 mm 0,0 km/h (0 Bft) W-SW 242 ° 0 min 0,000 mm 0,0 UV-I 0 W/m² -3,2 °C -1,3 °C 0,0 km/h (0 Bft)
10.01.2018 04:59 -1,3 °C 87 % 1012,8 hPa 0,0 mm 0,0 km/h (0 Bft) W-SW 242 ° 0 min 0,000 mm 0,0 UV-I 0 W/m² -3,2 °C -1,3 °C 0,0 km/h (0 Bft)
10.01.2018 05:00 -1,3 °C 87 % 1012,9 hPa 0,0 mm 0,0 km/h (0 Bft) W-SW 242 ° 0 min 0,000 mm 0,0 UV-I 0 W/m² -3,2 °C -1,3 °C 0,0 km/h (0 Bft)
10.01.2018 05:01 -1,3 °C 87 % 1012,8 hPa 0,0 mm 0,0 km/h (0 Bft) W-SW 242 ° 0 min 0,000 mm 0,0 UV-I 0 W/m² -3,2 °C -1,3 °C 0,0 km/h (0 Bft)
10.01.2018 05:02 -1,3 °C 87 % 1012,8 hPa 0,0 mm 0,0 km/h (0 Bft) W-SW 242 ° 0 min 0,000 mm 0,0 UV-I 0 W/m² -3,2 °C -1,3 °C 0,0 km/h (0 Bft)
10.01.2018 05:03 -1,3 °C 87 % 1012,8 hPa 0,0 mm 0,0 km/h (0 Bft) W-SW 242 ° 0 min 0,000 mm 0,0 UV-I 0 W/m² -3,2 °C -1,3 °C 0,0 km/h (0 Bft)
10.01.2018 05:04 -1,3 °C 87 % 1012,9 hPa 0,0 mm 0,0 km/h (0 Bft) W-SW 242 ° 0 min 0,000 mm 0,0 UV-I 0 W/m² -3,2 °C -1,3 °C 0,0 km/h (0 Bft)
10.01.2018 05:05 -1,3 °C 87 % 1012,9 hPa 0,0 mm 0,0 km/h (0 Bft) W-SW 242 ° 0 min 0,000 mm 0,0 UV-I 0 W/m² -3,2 °C -1,3 °C 0,0 km/h (0 Bft)
10.01.2018 05:06 -1,3 °C 87 % 1012,9 hPa 0,0 mm 0,0 km/h (0 Bft) W-SW 242 ° 0 min 0,000 mm 0,0 UV-I 0 W/m² -3,2 °C -1,3 °C 0,0 km/h (0 Bft)
10.01.2018 05:07 -1,3 °C 87 % 1012,9 hPa 0,0 mm 0,0 km/h (0 Bft) W-SW 242 ° 0 min 0,000 mm 0,0 UV-I 0 W/m² -3,2 °C -1,3 °C 0,0 km/h (0 Bft)
10.01.2018 05:08 -1,3 °C 87 % 1012,9 hPa 0,0 mm 0,0 km/h (0 Bft) W-SW 242 ° 0 min 0,000 mm 0,0 UV-I 0 W/m² -3,2 °C -1,3 °C 0,0 km/h (0 Bft)
10.01.2018 05:09 -1,3 °C 87 % 1012,9 hPa 0,0 mm 0,0 km/h (0 Bft) W-SW 242 ° 0 min 0,000 mm 0,0 UV-I 0 W/m² -3,2 °C -1,3 °C 0,0 km/h (0 Bft)
10.01.2018 05:10 -1,4 °C 87 % 1013,0 hPa 0,0 mm 0,0 km/h (0 Bft) W-SW 242 ° 0 min 0,000 mm 0,0 UV-I 0 W/m² -3,3 °C -1,4 °C 0,0 km/h (0 Bft)
10.01.2018 05:11 -1,3 °C 87 % 1012,9 hPa 0,0 mm 0,0 km/h (0 Bft) W-SW 242 ° 0 min 0,000 mm 0,0 UV-I 0 W/m² -3,2 °C -1,3 °C 0,0 km/h (0 Bft)
10.01.2018 05:12 -1,3 °C 87 % 1012,9 hPa 0,0 mm 0,0 km/h (0 Bft) W-SW 242 ° 0 min 0,000 mm 0,0 UV-I 0 W/m² -3,2 °C -1,3 °C 0,0 km/h (0 Bft)
10.01.2018 05:13 -1,3 °C 87 % 1012,9 hPa 0,0 mm 0,0 km/h (0 Bft) W-SW 242 ° 0 min 0,000 mm 0,0 UV-I 0 W/m² -3,2 °C -1,3 °C 0,0 km/h (0 Bft)
10.01.2018 05:14 -1,4 °C 87 % 1012,8 hPa 0,0 mm 0,0 km/h (0 Bft) W-SW 242 ° 0 min 0,000 mm 0,0 UV-I 0 W/m² -3,3 °C -1,4 °C 0,0 km/h (0 Bft)
10.01.2018 05:15 -1,4 °C 87 % 1012,8 hPa 0,0 mm 1,1 km/h (1 Bft) W-SW 242 ° 0 min 0,000 mm 0,0 UV-I 0 W/m² -3,3 °C -1,4 °C 3,2 km/h (1 Bft)
10.01.2018 05:16 -1,4 °C 87 % 1012,8 hPa 0,0 mm 3,9 km/h (1 Bft) W-SW 242 ° 0 min 0,000 mm 0,0 UV-I 0 W/m² -3,3 °C -1,4 °C 4,8 km/h (1 Bft)
10.01.2018 05:17 -1,4 °C 87 % 1012,8 hPa 0,0 mm 3,2 km/h (1 Bft) W-SW 242 ° 0 min 0,000 mm 0,0 UV-I 0 W/m² -3,3 °C -1,4 °C 4,8 km/h (1 Bft)
10.01.2018 05:18 -1,4 °C 87 % 1012,8 hPa 0,0 mm 1,1 km/h (1 Bft) W-SW 242 ° 0 min 0,000 mm 0,0 UV-I 0 W/m² -3,3 °C -1,4 °C 3,2 km/h (1 Bft)
10.01.2018 05:19 -1,4 °C 87 % 1012,8 hPa 0,0 mm 0,0 km/h (0 Bft) W-SW 242 ° 0 min 0,000 mm 0,0 UV-I 0 W/m² -3,3 °C -1,4 °C 0,0 km/h (0 Bft)
10.01.2018 05:20 -1,3 °C 87 % 1012,8 hPa 0,0 mm 0,0 km/h (0 Bft) W-SW 242 ° 0 min 0,000 mm 0,0 UV-I 0 W/m² -3,2 °C -1,3 °C 0,0 km/h (0 Bft)
10.01.2018 05:21 -1,3 °C 87 % 1012,8 hPa 0,0 mm 0,0 km/h (0 Bft) W-SW 242 ° 0 min 0,000 mm 0,0 UV-I 0 W/m² -3,2 °C -1,3 °C 0,0 km/h (0 Bft)
10.01.2018 05:22 -1,3 °C 87 % 1012,8 hPa 0,0 mm 0,0 km/h (0 Bft) W-SW 242 ° 0 min 0,000 mm 0,0 UV-I 0 W/m² -3,2 °C -1,3 °C 0,0 km/h (0 Bft)
10.01.2018 05:23 -1,4 °C 87 % 1012,8 hPa 0,0 mm 0,0 km/h (0 Bft) W-SW 242 ° 0 min 0,000 mm 0,0 UV-I 0 W/m² -3,3 °C -1,4 °C 0,0 km/h (0 Bft)
10.01.2018 05:24 -1,3 °C 87 % 1012,8 hPa 0,0 mm 0,0 km/h (0 Bft) W-SW 242 ° 0 min 0,000 mm 0,0 UV-I 0 W/m² -3,2 °C -1,3 °C 0,0 km/h (0 Bft)
10.01.2018 05:25 -1,4 °C 87 % 1012,8 hPa 0,0 mm 0,0 km/h (0 Bft) W-SW 242 ° 0 min 0,000 mm 0,0 UV-I 0 W/m² -3,3 °C -1,4 °C 0,0 km/h (0 Bft)
10.01.2018 05:26 -1,4 °C 87 % 1012,8 hPa 0,0 mm 0,1 km/h (0 Bft) W-SW 242 ° 0 min 0,000 mm 0,0 UV-I 0 W/m² -3,3 °C -1,4 °C 1,6 km/h (1 Bft)
10.01.2018 05:27 -1,4 °C 87 % 1012,8 hPa 0,0 mm 0,0 km/h (0 Bft) W-SW 242 ° 0 min 0,000 mm 0,0 UV-I 0 W/m² -3,3 °C -1,4 °C 0,0 km/h (0 Bft)
10.01.2018 05:28 -1,4 °C 87 % 1012,8 hPa 0,0 mm 0,0 km/h (0 Bft) W-SW 247 ° 0 min 0,000 mm 0,0 UV-I 0 W/m² -3,3 °C -1,4 °C 3,2 km/h (1 Bft)
10.01.2018 05:29 -1,4 °C 87 % 1012,7 hPa 0,0 mm 0,0 km/h (0 Bft) N 0 ° 0 min 0,000 mm 0,0 UV-I 0 W/m² -3,3 °C -1,4 °C 0,0 km/h (0 Bft)
10.01.2018 05:30 -1,4 °C 87 % 1012,7 hPa 0,0 mm 0,0 km/h (0 Bft) N 0 ° 0 min 0,000 mm 0,0 UV-I 0 W/m² -3,3 °C -1,4 °C 0,0 km/h (0 Bft)
10.01.2018 05:31 -1,4 °C 87 % 1012,7 hPa 0,0 mm 0,0 km/h (0 Bft) N 0 ° 0 min 0,000 mm 0,0 UV-I 0 W/m² -3,3 °C -1,4 °C 0,0 km/h (0 Bft)
10.01.2018 05:32 -1,4 °C 87 % 1012,7 hPa 0,0 mm 0,0 km/h (0 Bft) N 0 ° 0 min 0,000 mm 0,0 UV-I 0 W/m² -3,3 °C -1,4 °C 0,0 km/h (0 Bft)
10.01.2018 05:33 -1,4 °C 87 % 1012,7 hPa 0,0 mm 0,0 km/h (0 Bft) N 0 ° 0 min 0,000 mm 0,0 UV-I 0 W/m² -3,3 °C -1,4 °C 0,0 km/h (0 Bft)
10.01.2018 05:34 -1,4 °C 87 % 1012,7 hPa 0,0 mm 0,0 km/h (0 Bft) N 0 ° 0 min 0,000 mm 0,0 UV-I 0 W/m² -3,3 °C -1,4 °C 0,0 km/h (0 Bft)
10.01.2018 05:35 -1,4 °C 87 % 1012,7 hPa 0,0 mm 0,0 km/h (0 Bft) N 0 ° 0 min 0,000 mm 0,0 UV-I 0 W/m² -3,3 °C -1,4 °C 0,0 km/h (0 Bft)
10.01.2018 05:37 -1,4 °C 87 % 1012,7 hPa 0,0 mm 0,0 km/h (0 Bft) W-SW 242 ° 0 min 0,000 mm 0,0 UV-I 0 W/m² -3,3 °C -1,4 °C 0,0 km/h (0 Bft)
10.01.2018 05:38 -1,4 °C 87 % 1012,7 hPa 0,0 mm 0,0 km/h (0 Bft) W-SW 242 ° 0 min 0,000 mm 0,0 UV-I 0 W/m² -3,3 °C -1,4 °C 0,0 km/h (0 Bft)
10.01.2018 05:39 -1,4 °C 86 % 1012,7 hPa 0,0 mm 0,0 km/h (0 Bft) W-SW 242 ° 0 min 0,000 mm 0,0 UV-I 0 W/m² -3,4 °C -1,4 °C 0,0 km/h (0 Bft)
10.01.2018 05:40 -1,4 °C 87 % 1012,8 hPa 0,0 mm 0,0 km/h (0 Bft) W-SW 242 ° 0 min 0,000 mm 0,0 UV-I 0 W/m² -3,3 °C -1,4 °C 0,0 km/h (0 Bft)
10.01.2018 05:41 -1,5 °C 87 % 1012,8 hPa 0,0 mm 0,0 km/h (0 Bft) W-SW 242 ° 0 min 0,000 mm 0,0 UV-I 0 W/m² -3,4 °C -1,5 °C 0,0 km/h (0 Bft)
10.01.2018 05:42 -1,5 °C 87 % 1012,8 hPa 0,0 mm 0,0 km/h (0 Bft) W-SW 242 ° 0 min 0,000 mm 0,0 UV-I 0 W/m² -3,4 °C -1,5 °C 0,0 km/h (0 Bft)
10.01.2018 05:43 -1,5 °C 86 % 1012,8 hPa 0,0 mm 0,0 km/h (0 Bft) W-SW 242 ° 0 min 0,000 mm 0,0 UV-I 0 W/m² -3,5 °C -1,5 °C 0,0 km/h (0 Bft)
10.01.2018 05:44 -1,5 °C 86 % 1012,8 hPa 0,0 mm 0,0 km/h (0 Bft) W-SW 242 ° 0 min 0,000 mm 0,0 UV-I 0 W/m² -3,5 °C -1,5 °C 0,0 km/h (0 Bft)
10.01.2018 05:45 -1,6 °C 86 % 1012,7 hPa 0,0 mm 0,0 km/h (0 Bft) W-SW 242 ° 0 min 0,000 mm 0,0 UV-I 0 W/m² -3,6 °C -1,6 °C 0,0 km/h (0 Bft)
10.01.2018 05:46 -1,6 °C 86 % 1012,7 hPa 0,0 mm 0,0 km/h (0 Bft) W-SW 242 ° 0 min 0,000 mm 0,0 UV-I 0 W/m² -3,6 °C -1,6 °C 0,0 km/h (0 Bft)
10.01.2018 05:47 -1,6 °C 86 % 1012,8 hPa 0,0 mm 0,0 km/h (0 Bft) W-SW 242 ° 0 min 0,000 mm 0,0 UV-I 0 W/m² -3,6 °C -1,6 °C 0,0 km/h (0 Bft)
10.01.2018 05:48 -1,6 °C 86 % 1012,8 hPa 0,0 mm 0,0 km/h (0 Bft) W-SW 242 ° 0 min 0,000 mm 0,0 UV-I 0 W/m² -3,6 °C -1,6 °C 0,0 km/h (0 Bft)
10.01.2018 05:49 -1,6 °C 86 % 1012,8 hPa 0,0 mm 0,0 km/h (0 Bft) W-SW 242 ° 0 min 0,000 mm 0,0 UV-I 0 W/m² -3,6 °C -1,6 °C 0,0 km/h (0 Bft)
10.01.2018 05:50 -1,6 °C 87 % 1012,7 hPa 0,0 mm 0,0 km/h (0 Bft) W-SW 242 ° 0 min 0,000 mm 0,0 UV-I 0 W/m² -3,5 °C -1,6 °C 0,0 km/h (0 Bft)
10.01.2018 05:51 -1,7 °C 87 % 1012,8 hPa 0,0 mm 0,0 km/h (0 Bft) W-SW 242 ° 0 min 0,000 mm 0,0 UV-I 0 W/m² -3,6 °C -1,7 °C 0,0 km/h (0 Bft)
10.01.2018 05:52 -1,6 °C 87 % 1012,8 hPa 0,0 mm 0,0 km/h (0 Bft) W-SW 242 ° 0 min 0,000 mm 0,0 UV-I 0 W/m² -3,5 °C -1,6 °C 0,0 km/h (0 Bft)
10.01.2018 05:53 -1,7 °C 87 % 1012,8 hPa 0,0 mm 0,0 km/h (0 Bft) N 0 ° 0 min 0,000 mm 0,0 UV-I 0 W/m² -3,6 °C -1,7 °C 0,0 km/h (0 Bft)
10.01.2018 05:54 -1,7 °C 87 % 1012,8 hPa 0,0 mm 0,0 km/h (0 Bft) N 0 ° 0 min 0,000 mm 0,0 UV-I 0 W/m² -3,6 °C -1,7 °C 0,0 km/h (0 Bft)
10.01.2018 05:55 -1,7 °C 87 % 1012,7 hPa 0,0 mm 0,0 km/h (0 Bft) N 0 ° 0 min 0,000 mm 0,0 UV-I 0 W/m² -3,6 °C -1,7 °C 0,0 km/h (0 Bft)
10.01.2018 05:56 -1,7 °C 87 % 1012,8 hPa 0,0 mm 0,0 km/h (0 Bft) N 0 ° 0 min 0,000 mm 0,0 UV-I 0 W/m² -3,6 °C -1,7 °C 0,0 km/h (0 Bft)
10.01.2018 05:57 -1,7 °C 87 % 1012,8 hPa 0,0 mm 0,0 km/h (0 Bft) N 0 ° 0 min 0,000 mm 0,0 UV-I 0 W/m² -3,6 °C -1,7 °C 0,0 km/h (0 Bft)
10.01.2018 05:58 -1,7 °C 88 % 1012,8 hPa 0,0 mm 0,0 km/h (0 Bft) N 0 ° 0 min 0,000 mm 0,0 UV-I 0 W/m² -3,4 °C -1,7 °C 0,0 km/h (0 Bft)
10.01.2018 05:59 -1,7 °C 88 % 1012,8 hPa 0,0 mm 0,0 km/h (0 Bft) N 0 ° 0 min 0,000 mm 0,0 UV-I 0 W/m² -3,4 °C -1,7 °C 0,0 km/h (0 Bft)
10.01.2018 06:02 -1,7 °C 88 % 1012,8 hPa 0,0 mm 0,0 km/h (0 Bft) W-SW 242 ° 0 min 0,000 mm 0,0 UV-I 0 W/m² -3,4 °C -1,7 °C 0,0 km/h (0 Bft)
10.01.2018 06:03 -1,8 °C 88 % 1012,8 hPa 0,0 mm 0,0 km/h (0 Bft) W-SW 242 ° 0 min 0,000 mm 0,0 UV-I 0 W/m² -3,5 °C -1,8 °C 0,0 km/h (0 Bft)
10.01.2018 06:04 -1,7 °C 88 % 1012,8 hPa 0,0 mm 0,0 km/h (0 Bft) W-SW 242 ° 0 min 0,000 mm 0,0 UV-I 0 W/m² -3,4 °C -1,7 °C 0,0 km/h (0 Bft)
10.01.2018 06:05 -1,7 °C 88 % 1012,8 hPa 0,0 mm 0,0 km/h (0 Bft) W-SW 242 ° 0 min 0,000 mm 0,0 UV-I 0 W/m² -3,4 °C -1,7 °C 0,0 km/h (0 Bft)
10.01.2018 06:06 -1,7 °C 88 % 1012,8 hPa 0,0 mm 0,0 km/h (0 Bft) W-SW 242 ° 0 min 0,000 mm 0,0 UV-I 0 W/m² -3,4 °C -1,7 °C 0,0 km/h (0 Bft)
10.01.2018 06:07 -1,8 °C 88 % 1012,8 hPa 0,0 mm 0,0 km/h (0 Bft) W-SW 242 ° 0 min 0,000 mm 0,0 UV-I 0 W/m² -3,5 °C -1,8 °C 0,0 km/h (0 Bft)
10.01.2018 06:08 -1,8 °C 88 % 1012,8 hPa 0,0 mm 0,0 km/h (0 Bft) W-SW 242 ° 0 min 0,000 mm 0,0 UV-I 0 W/m² -3,5 °C -1,8 °C 0,0 km/h (0 Bft)
10.01.2018 06:09 -1,8 °C 88 % 1012,8 hPa 0,0 mm 0,0 km/h (0 Bft) W-SW 242 ° 0 min 0,000 mm 0,0 UV-I 0 W/m² -3,5 °C -1,8 °C 0,0 km/h (0 Bft)
10.01.2018 06:10 -1,8 °C 88 % 1012,8 hPa 0,0 mm 0,0 km/h (0 Bft) W-SW 242 ° 0 min 0,000 mm 0,0 UV-I 0 W/m² -3,5 °C -1,8 °C 0,0 km/h (0 Bft)
10.01.2018 06:11 -1,8 °C 88 % 1012,8 hPa 0,0 mm 0,0 km/h (0 Bft) W-SW 242 ° 0 min 0,000 mm 0,0 UV-I 0 W/m² -3,5 °C -1,8 °C 0,0 km/h (0 Bft)
10.01.2018 06:12 -1,8 °C 88 % 1012,8 hPa 0,0 mm 0,0 km/h (0 Bft) W-SW 242 ° 0 min 0,000 mm 0,0 UV-I 0 W/m² -3,5 °C -1,8 °C 0,0 km/h (0 Bft)
10.01.2018 06:13 -1,8 °C 88 % 1012,8 hPa 0,0 mm 0,0 km/h (0 Bft) W-SW 242 ° 0 min 0,000 mm 0,0 UV-I 0 W/m² -3,5 °C -1,8 °C 0,0 km/h (0 Bft)
10.01.2018 06:14 -1,8 °C 88 % 1012,8 hPa 0,0 mm 0,0 km/h (0 Bft) W-SW 242 ° 0 min 0,000 mm 0,0 UV-I 0 W/m² -3,5 °C -1,8 °C 0,0 km/h (0 Bft)
10.01.2018 06:15 -1,8 °C 88 % 1012,7 hPa 0,0 mm 0,0 km/h (0 Bft) W-SW 242 ° 0 min 0,000 mm 0,0 UV-I 0 W/m² -3,5 °C -1,8 °C 0,0 km/h (0 Bft)
10.01.2018 06:16 -1,8 °C 88 % 1012,7 hPa 0,0 mm 0,0 km/h (0 Bft) W-SW 242 ° 0 min 0,000 mm 0,0 UV-I 0 W/m² -3,5 °C -1,8 °C 0,0 km/h (0 Bft)
10.01.2018 06:17 -1,8 °C 88 % 1012,8 hPa 0,0 mm 0,0 km/h (0 Bft) W-SW 242 ° 0 min 0,000 mm 0,0 UV-I 0 W/m² -3,5 °C -1,8 °C 0,0 km/h (0 Bft)
10.01.2018 06:18 -1,8 °C 88 % 1012,8 hPa 0,0 mm 0,0 km/h (0 Bft) N 0 ° 0 min 0,000 mm 0,0 UV-I 0 W/m² -3,5 °C -1,8 °C 0,0 km/h (0 Bft)
10.01.2018 06:19 -1,8 °C 88 % 1012,8 hPa 0,0 mm 0,0 km/h (0 Bft) N 0 ° 0 min 0,000 mm 0,0 UV-I 0 W/m² -3,5 °C -1,8 °C 0,0 km/h (0 Bft)
10.01.2018 06:20 -1,8 °C 88 % 1012,7 hPa 0,0 mm 0,0 km/h (0 Bft) N 0 ° 0 min 0,000 mm 0,0 UV-I 0 W/m² -3,5 °C -1,8 °C 0,0 km/h (0 Bft)
10.01.2018 06:21 -1,8 °C 88 % 1012,8 hPa 0,0 mm 0,0 km/h (0 Bft) N 0 ° 0 min 0,000 mm 0,0 UV-I 0 W/m² -3,5 °C -1,8 °C 0,0 km/h (0 Bft)
10.01.2018 06:22 -1,8 °C 88 % 1012,8 hPa 0,0 mm 0,0 km/h (0 Bft) N 0 ° 0 min 0,000 mm 0,0 UV-I 0 W/m² -3,5 °C -1,8 °C 0,0 km/h (0 Bft)
10.01.2018 06:23 -1,8 °C 88 % 1012,7 hPa 0,0 mm 0,0 km/h (0 Bft) N 0 ° 0 min 0,000 mm 0,0 UV-I 0 W/m² -3,5 °C -1,8 °C 0,0 km/h (0 Bft)
10.01.2018 06:24 -1,8 °C 88 % 1012,7 hPa 0,0 mm 0,0 km/h (0 Bft) N 0 ° 0 min 0,000 mm 0,0 UV-I 0 W/m² -3,5 °C -1,8 °C 0,0 km/h (0 Bft)
10.01.2018 06:27 -1,8 °C 89 % 1012,8 hPa 0,0 mm 0,0 km/h (0 Bft) W-SW 242 ° 0 min 0,000 mm 0,0 UV-I 0 W/m² -3,4 °C -1,8 °C 0,0 km/h (0 Bft)
10.01.2018 06:28 -1,8 °C 89 % 1012,7 hPa 0,0 mm 0,0 km/h (0 Bft) W-SW 242 ° 0 min 0,000 mm 0,0 UV-I 0 W/m² -3,4 °C -1,8 °C 0,0 km/h (0 Bft)
10.01.2018 06:29 -1,8 °C 89 % 1012,7 hPa 0,0 mm 0,0 km/h (0 Bft) W-SW 242 ° 0 min 0,000 mm 0,0 UV-I 0 W/m² -3,4 °C -1,8 °C 0,0 km/h (0 Bft)
10.01.2018 06:30 -1,8 °C 89 % 1012,7 hPa 0,0 mm 0,0 km/h (0 Bft) W-SW 242 ° 0 min 0,000 mm 0,0 UV-I 0 W/m² -3,4 °C -1,8 °C 0,0 km/h (0 Bft)
10.01.2018 06:31 -1,8 °C 89 % 1012,7 hPa 0,0 mm 0,0 km/h (0 Bft) W-SW 242 ° 0 min 0,000 mm 0,0 UV-I 0 W/m² -3,4 °C -1,8 °C 0,0 km/h (0 Bft)
10.01.2018 06:32 -1,8 °C 89 % 1012,7 hPa 0,0 mm 0,0 km/h (0 Bft) W-SW 242 ° 0 min 0,000 mm 0,0 UV-I 0 W/m² -3,4 °C -1,8 °C 0,0 km/h (0 Bft)
10.01.2018 06:33 -1,8 °C 89 % 1012,7 hPa 0,0 mm 0,0 km/h (0 Bft) W-SW 242 ° 0 min 0,000 mm 0,0 UV-I 0 W/m² -3,4 °C -1,8 °C 0,0 km/h (0 Bft)
10.01.2018 06:34 -1,8 °C 89 % 1012,7 hPa 0,0 mm 0,0 km/h (0 Bft) W-SW 242 ° 0 min 0,000 mm 0,0 UV-I 0 W/m² -3,4 °C -1,8 °C 0,0 km/h (0 Bft)
10.01.2018 06:35 -1,7 °C 89 % 1012,7 hPa 0,0 mm 0,0 km/h (0 Bft) W-SW 242 ° 0 min 0,000 mm 0,0 UV-I 0 W/m² -3,3 °C -1,7 °C 0,0 km/h (0 Bft)
10.01.2018 06:36 -1,7 °C 89 % 1012,8 hPa 0,0 mm 0,0 km/h (0 Bft) W-SW 242 ° 0 min 0,000 mm 0,0 UV-I 0 W/m² -3,3 °C -1,7 °C 0,0 km/h (0 Bft)
10.01.2018 06:37 -1,7 °C 89 % 1012,8 hPa 0,0 mm 0,0 km/h (0 Bft) W-SW 242 ° 0 min 0,000 mm 0,0 UV-I 0 W/m² -3,3 °C -1,7 °C 0,0 km/h (0 Bft)
10.01.2018 06:38 -1,7 °C 89 % 1012,8 hPa 0,0 mm 0,3 km/h (0 Bft) W-SW 242 ° 0 min 0,000 mm 0,0 UV-I 0 W/m² -3,3 °C -1,7 °C 1,6 km/h (1 Bft)
10.01.2018 06:39 -1,7 °C 89 % 1012,7 hPa 0,0 mm 1,7 km/h (1 Bft) W-SW 242 ° 0 min 0,000 mm 0,0 UV-I 0 W/m² -3,3 °C -1,7 °C 3,2 km/h (1 Bft)
10.01.2018 06:40 -1,7 °C 89 % 1012,8 hPa 0,0 mm 0,7 km/h (0 Bft) W-SW 242 ° 0 min 0,000 mm 0,0 UV-I 0 W/m² -3,3 °C -1,7 °C 1,6 km/h (1 Bft)
10.01.2018 06:41 -1,7 °C 89 % 1012,8 hPa 0,0 mm 0,0 km/h (0 Bft) W-SW 242 ° 0 min 0,000 mm 0,0 UV-I 0 W/m² -3,3 °C -1,7 °C 0,0 km/h (0 Bft)
10.01.2018 06:42 -1,6 °C 89 % 1012,8 hPa 0,0 mm 0,0 km/h (0 Bft) W-SW 242 ° 0 min 0,000 mm 0,0 UV-I 0 W/m² -3,2 °C -1,6 °C 0,0 km/h (0 Bft)
10.01.2018 06:43 -1,6 °C 89 % 1012,8 hPa 0,0 mm 0,0 km/h (0 Bft) W-SW 242 ° 0 min 0,000 mm 0,0 UV-I 0 W/m² -3,2 °C -1,6 °C 0,0 km/h (0 Bft)
10.01.2018 06:44 -1,6 °C 89 % 1012,8 hPa 0,0 mm 0,0 km/h (0 Bft) W-SW 242 ° 0 min 0,000 mm 0,0 UV-I 0 W/m² -3,2 °C -1,6 °C 0,0 km/h (0 Bft)
10.01.2018 06:45 -1,6 °C 89 % 1012,8 hPa 0,0 mm 0,0 km/h (0 Bft) W-SW 242 ° 0 min 0,000 mm 0,0 UV-I 0 W/m² -3,2 °C -1,6 °C 0,0 km/h (0 Bft)
10.01.2018 06:46 -1,6 °C 89 % 1012,8 hPa 0,0 mm 0,0 km/h (0 Bft) W-SW 242 ° 0 min 0,000 mm 0,0 UV-I 0 W/m² -3,2 °C -1,6 °C 0,0 km/h (0 Bft)
10.01.2018 06:47 -1,6 °C 89 % 1012,8 hPa 0,0 mm 0,0 km/h (0 Bft) W-SW 242 ° 0 min 0,000 mm 0,0 UV-I 0 W/m² -3,2 °C -1,6 °C 0,0 km/h (0 Bft)
10.01.2018 06:48 -1,5 °C 89 % 1012,8 hPa 0,0 mm 0,0 km/h (0 Bft) W-SW 242 ° 0 min 0,000 mm 0,0 UV-I 0 W/m² -3,1 °C -1,5 °C 0,0 km/h (0 Bft)
10.01.2018 06:49 -1,5 °C 89 % 1012,8 hPa 0,0 mm 0,0 km/h (0 Bft) W-SW 242 ° 0 min 0,000 mm 0,0 UV-I 0 W/m² -3,1 °C -1,5 °C 0,0 km/h (0 Bft)
10.01.2018 06:50 -1,5 °C 89 % 1012,8 hPa 0,0 mm 0,0 km/h (0 Bft) W-SW 242 ° 0 min 0,000 mm 0,0 UV-I 0 W/m² -3,1 °C -1,5 °C 0,0 km/h (0 Bft)
10.01.2018 06:51 -1,5 °C 89 % 1012,8 hPa 0,0 mm 0,0 km/h (0 Bft) W-SW 242 ° 0 min 0,000 mm 0,0 UV-I 0 W/m² -3,1 °C -1,5 °C 0,0 km/h (0 Bft)
10.01.2018 06:52 -1,5 °C 89 % 1012,8 hPa 0,0 mm 0,0 km/h (0 Bft) W-SW 242 ° 0 min 0,000 mm 0,0 UV-I 0 W/m² -3,1 °C -1,5 °C 0,0 km/h (0 Bft)
10.01.2018 06:53 -1,4 °C 89 % 1012,8 hPa 0,0 mm 0,0 km/h (0 Bft) W-SW 242 ° 0 min 0,000 mm 0,0 UV-I 0 W/m² -3,0 °C -1,4 °C 0,0 km/h (0 Bft)
10.01.2018 06:54 -1,5 °C 89 % 1012,8 hPa 0,0 mm 0,0 km/h (0 Bft) W-SW 242 ° 0 min 0,000 mm 0,0 UV-I 0 W/m² -3,1 °C -1,5 °C 0,0 km/h (0 Bft)
10.01.2018 06:55 -1,5 °C 89 % 1012,8 hPa 0,0 mm 0,0 km/h (0 Bft) W-SW 242 ° 0 min 0,000 mm 0,0 UV-I 0 W/m² -3,1 °C -1,5 °C 0,0 km/h (0 Bft)
10.01.2018 06:56 -1,5 °C 89 % 1012,8 hPa 0,0 mm 0,0 km/h (0 Bft) W-SW 242 ° 0 min 0,000 mm 0,0 UV-I 0 W/m² -3,1 °C -1,5 °C 0,0 km/h (0 Bft)
10.01.2018 06:57 -1,5 °C 89 % 1012,8 hPa 0,0 mm 0,0 km/h (0 Bft) W-SW 242 ° 0 min 0,000 mm 0,0 UV-I 0 W/m² -3,1 °C -1,5 °C 0,0 km/h (0 Bft)
10.01.2018 06:58 -1,5 °C 89 % 1012,7 hPa 0,0 mm 0,0 km/h (0 Bft) W-SW 242 ° 0 min 0,000 mm 0,0 UV-I 0 W/m² -3,1 °C -1,5 °C 0,0 km/h (0 Bft)
10.01.2018 06:59 -1,5 °C 89 % 1012,8 hPa 0,0 mm 0,0 km/h (0 Bft) W-SW 242 ° 0 min 0,000 mm 0,0 UV-I 0 W/m² -3,1 °C -1,5 °C 0,0 km/h (0 Bft)
10.01.2018 07:00 -1,5 °C 89 % 1012,7 hPa 0,0 mm 0,0 km/h (0 Bft) W-SW 242 ° 0 min 0,000 mm 0,0 UV-I 0 W/m² -3,1 °C -1,5 °C 0,0 km/h (0 Bft)
10.01.2018 07:01 -1,5 °C 89 % 1012,7 hPa 0,0 mm 0,0 km/h (0 Bft) W-SW 242 ° 0 min 0,000 mm 0,0 UV-I 0 W/m² -3,1 °C -1,5 °C 0,0 km/h (0 Bft)
10.01.2018 07:02 -1,4 °C 89 % 1012,8 hPa 0,0 mm 0,0 km/h (0 Bft) W-SW 242 ° 0 min 0,000 mm 0,0 UV-I 0 W/m² -3,0 °C -1,4 °C 0,0 km/h (0 Bft)
10.01.2018 07:03 -1,4 °C 89 % 1012,8 hPa 0,0 mm 1,3 km/h (1 Bft) W-SW 242 ° 0 min 0,000 mm 0,0 UV-I 0 W/m² -3,0 °C -1,4 °C 3,2 km/h (1 Bft)
10.01.2018 07:04 -1,4 °C 89 % 1012,8 hPa 0,0 mm 0,3 km/h (0 Bft) W-SW 242 ° 0 min 0,000 mm 0,0 UV-I 0 W/m² -3,0 °C -1,4 °C 1,6 km/h (1 Bft)
10.01.2018 07:05 -1,4 °C 89 % 1012,8 hPa 0,0 mm 0,0 km/h (0 Bft) W-SW 242 ° 0 min 0,000 mm 0,0 UV-I 0 W/m² -3,0 °C -1,4 °C 0,0 km/h (0 Bft)
10.01.2018 07:06 -1,4 °C 89 % 1012,7 hPa 0,0 mm 0,0 km/h (0 Bft) W-SW 242 ° 0 min 0,000 mm 0,0 UV-I 0 W/m² -3,0 °C -1,4 °C 0,0 km/h (0 Bft)
10.01.2018 07:07 -1,4 °C 89 % 1012,7 hPa 0,0 mm 0,0 km/h (0 Bft) W-SW 242 ° 0 min 0,000 mm 0,0 UV-I 0 W/m² -3,0 °C -1,4 °C 0,0 km/h (0 Bft)
10.01.2018 07:08 -1,4 °C 89 % 1012,7 hPa 0,0 mm 0,0 km/h (0 Bft) N 0 ° 0 min 0,000 mm 0,0 UV-I 0 W/m² -3,0 °C -1,4 °C 0,0 km/h (0 Bft)
10.01.2018 07:09 -1,4 °C 88 % 1012,8 hPa 0,0 mm 0,0 km/h (0 Bft) N 0 ° 0 min 0,000 mm 0,0 UV-I 0 W/m² -3,1 °C -1,4 °C 0,0 km/h (0 Bft)
10.01.2018 07:10 -1,4 °C 89 % 1012,7 hPa 0,0 mm 0,0 km/h (0 Bft) N 0 ° 0 min 0,000 mm 0,0 UV-I 0 W/m² -3,0 °C -1,4 °C 0,0 km/h (0 Bft)
10.01.2018 07:11 -1,4 °C 88 % 1012,8 hPa 0,0 mm 0,0 km/h (0 Bft) N 0 ° 0 min 0,000 mm 0,0 UV-I 0 W/m² -3,1 °C -1,4 °C 0,0 km/h (0 Bft)
10.01.2018 07:12 -1,4 °C 88 % 1012,8 hPa 0,0 mm 0,0 km/h (0 Bft) N 0 ° 0 min 0,000 mm 0,0 UV-I 0 W/m² -3,1 °C -1,4 °C 0,0 km/h (0 Bft)
10.01.2018 07:13 -1,4 °C 88 % 1012,8 hPa 0,0 mm 0,0 km/h (0 Bft) N 0 ° 0 min 0,000 mm 0,0 UV-I 0 W/m² -3,1 °C -1,4 °C 0,0 km/h (0 Bft)
10.01.2018 07:14 -1,4 °C 88 % 1012,8 hPa 0,0 mm 0,0 km/h (0 Bft) N 0 ° 0 min 0,000 mm 0,0 UV-I 0 W/m² -3,1 °C -1,4 °C 0,0 km/h (0 Bft)
10.01.2018 07:15 -1,5 °C 88 % 1012,8 hPa 0,0 mm 0,0 km/h (0 Bft) N 0 ° 0 min 0,000 mm 0,0 UV-I 0 W/m² -3,2 °C -1,5 °C 0,0 km/h (0 Bft)
10.01.2018 07:17 -1,5 °C 88 % 1012,8 hPa 0,0 mm 0,0 km/h (0 Bft) W-SW 242 ° 0 min 0,000 mm 0,0 UV-I 0 W/m² -3,2 °C -1,5 °C 0,0 km/h (0 Bft)
10.01.2018 07:18 -1,5 °C 88 % 1012,7 hPa 0,0 mm 0,0 km/h (0 Bft) W-SW 242 ° 0 min 0,000 mm 0,0 UV-I 0 W/m² -3,2 °C -1,5 °C 0,0 km/h (0 Bft)
10.01.2018 07:19 -1,5 °C 88 % 1012,7 hPa 0,0 mm 0,0 km/h (0 Bft) W-SW 242 ° 0 min 0,000 mm 0,0 UV-I 0 W/m² -3,2 °C -1,5 °C 0,0 km/h (0 Bft)
10.01.2018 07:20 -1,6 °C 88 % 1012,7 hPa 0,0 mm 0,0 km/h (0 Bft) W-SW 242 ° 0 min 0,000 mm 0,0 UV-I 0 W/m² -3,3 °C -1,6 °C 0,0 km/h (0 Bft)
10.01.2018 07:21 -1,6 °C 88 % 1012,7 hPa 0,0 mm 0,0 km/h (0 Bft) W-SW 242 ° 0 min 0,000 mm 0,0 UV-I 0 W/m² -3,3 °C -1,6 °C 0,0 km/h (0 Bft)
10.01.2018 07:22 -1,6 °C 88 % 1012,7 hPa 0,0 mm 0,0 km/h (0 Bft) W-SW 242 ° 0 min 0,000 mm 0,0 UV-I 0 W/m² -3,3 °C -1,6 °C 0,0 km/h (0 Bft)
10.01.2018 07:23 -1,6 °C 88 % 1012,7 hPa 0,0 mm 0,0 km/h (0 Bft) W-SW 242 ° 0 min 0,000 mm 0,0 UV-I 0 W/m² -3,3 °C -1,6 °C 0,0 km/h (0 Bft)
10.01.2018 07:24 -1,6 °C 88 % 1012,7 hPa 0,0 mm 0,0 km/h (0 Bft) W-SW 242 ° 0 min 0,000 mm 0,0 UV-I 0 W/m² -3,3 °C -1,6 °C 0,0 km/h (0 Bft)
10.01.2018 07:25 -1,6 °C 88 % 1012,7 hPa 0,0 mm 0,0 km/h (0 Bft) W-SW 242 ° 0 min 0,000 mm 0,0 UV-I 0 W/m² -3,3 °C -1,6 °C 0,0 km/h (0 Bft)
10.01.2018 07:26 -1,6 °C 88 % 1012,8 hPa 0,0 mm 0,0 km/h (0 Bft) N 0 ° 0 min 0,000 mm 0,0 UV-I 0 W/m² -3,3 °C -1,6 °C 0,0 km/h (0 Bft)
10.01.2018 07:27 -1,6 °C 88 % 1012,7 hPa 0,0 mm 0,0 km/h (0 Bft) N 0 ° 0 min 0,000 mm 0,0 UV-I 0 W/m² -3,3 °C -1,6 °C 0,0 km/h (0 Bft)
10.01.2018 07:28 -1,6 °C 88 % 1012,8 hPa 0,0 mm 0,0 km/h (0 Bft) N 0 ° 0 min 0,000 mm 0,0 UV-I 0 W/m² -3,3 °C -1,6 °C 0,0 km/h (0 Bft)
10.01.2018 07:29 -1,7 °C 88 % 1012,8 hPa 0,0 mm 0,0 km/h (0 Bft) N 0 ° 0 min 0,000 mm 0,0 UV-I 0 W/m² -3,4 °C -1,7 °C 0,0 km/h (0 Bft)
10.01.2018 07:30 -1,7 °C 88 % 1012,8 hPa 0,0 mm 0,0 km/h (0 Bft) N 0 ° 0 min 0,000 mm 0,0 UV-I 0 W/m² -3,4 °C -1,7 °C 0,0 km/h (0 Bft)
10.01.2018 07:31 -1,7 °C 88 % 1012,8 hPa 0,0 mm 0,0 km/h (0 Bft) N 0 ° 0 min 0,000 mm 0,0 UV-I 0 W/m² -3,4 °C -1,7 °C 0,0 km/h (0 Bft)
10.01.2018 07:32 -1,7 °C 88 % 1012,8 hPa 0,0 mm 0,0 km/h (0 Bft) N 0 ° 0 min 0,000 mm 0,0 UV-I 0 W/m² -3,4 °C -1,7 °C 0,0 km/h (0 Bft)
10.01.2018 07:34 -1,7 °C 88 % 1012,8 hPa 0,0 mm 0,0 km/h (0 Bft) W-SW 242 ° 0 min 0,000 mm 0,0 UV-I 0 W/m² -3,4 °C -1,7 °C 0,0 km/h (0 Bft)
10.01.2018 07:35 -1,8 °C 88 % 1012,8 hPa 0,0 mm 0,0 km/h (0 Bft) W-SW 242 ° 0 min 0,000 mm 0,0 UV-I 0 W/m² -3,5 °C -1,8 °C 0,0 km/h (0 Bft)
10.01.2018 07:36 -1,8 °C 88 % 1012,8 hPa 0,0 mm 0,0 km/h (0 Bft) W-SW 242 ° 0 min 0,000 mm 0,0 UV-I 0 W/m² -3,5 °C -1,8 °C 0,0 km/h (0 Bft)
10.01.2018 07:37 -1,8 °C 88 % 1012,8 hPa 0,0 mm 0,0 km/h (0 Bft) W-SW 242 ° 0 min 0,000 mm 0,0 UV-I 0 W/m² -3,5 °C -1,8 °C 0,0 km/h (0 Bft)
10.01.2018 07:38 -1,8 °C 88 % 1012,8 hPa 0,0 mm 0,0 km/h (0 Bft) W-SW 242 ° 0 min 0,000 mm 0,0 UV-I 0 W/m² -3,5 °C -1,8 °C 0,0 km/h (0 Bft)
10.01.2018 07:39 -1,8 °C 88 % 1012,8 hPa 0,0 mm 0,0 km/h (0 Bft) W-SW 242 ° 0 min 0,000 mm 0,0 UV-I 0 W/m² -3,5 °C -1,8 °C 0,0 km/h (0 Bft)
10.01.2018 07:40 -1,8 °C 88 % 1012,8 hPa 0,0 mm 0,7 km/h (0 Bft) W-SW 242 ° 0 min 0,000 mm 0,0 UV-I 0 W/m² -3,5 °C -1,8 °C 3,2 km/h (1 Bft)
10.01.2018 07:41 -1,8 °C 88 % 1012,7 hPa 0,0 mm 0,7 km/h (0 Bft) W-SW 242 ° 0 min 0,000 mm 0,0 UV-I 0 W/m² -3,5 °C -1,8 °C 1,6 km/h (1 Bft)
10.01.2018 07:42 -1,8 °C 89 % 1012,7 hPa 0,0 mm 1,1 km/h (1 Bft) W-SW 242 ° 0 min 0,000 mm 0,0 UV-I 0 W/m² -3,4 °C -1,8 °C 3,2 km/h (1 Bft)
10.01.2018 07:43 -1,8 °C 89 % 1012,8 hPa 0,0 mm 0,6 km/h (0 Bft) W-SW 242 ° 0 min 0,000 mm 0,0 UV-I 0 W/m² -3,4 °C -1,8 °C 1,6 km/h (1 Bft)
10.01.2018 07:44 -1,8 °C 89 % 1012,8 hPa 0,0 mm 0,8 km/h (0 Bft) W-SW 242 ° 0 min 0,000 mm 0,0 UV-I 0 W/m² -3,4 °C -1,8 °C 1,6 km/h (1 Bft)
10.01.2018 07:45 -1,8 °C 89 % 1012,7 hPa 0,0 mm 0,3 km/h (0 Bft) W-SW 242 ° 0 min 0,000 mm 0,0 UV-I 0 W/m² -3,4 °C -1,8 °C 1,6 km/h (1 Bft)
10.01.2018 07:46 -1,7 °C 89 % 1012,8 hPa 0,0 mm 0,0 km/h (0 Bft) W-SW 242 ° 0 min 0,000 mm 0,0 UV-I 0 W/m² -3,3 °C -1,7 °C 0,0 km/h (0 Bft)
10.01.2018 07:47 -1,7 °C 89 % 1012,8 hPa 0,0 mm 0,0 km/h (0 Bft) W-SW 242 ° 0 min 0,000 mm 0,0 UV-I 0 W/m² -3,3 °C -1,7 °C 0,0 km/h (0 Bft)
10.01.2018 07:48 -1,7 °C 89 % 1012,7 hPa 0,0 mm 0,0 km/h (0 Bft) N 0 ° 0 min 0,000 mm 0,0 UV-I 0 W/m² -3,3 °C -1,7 °C 0,0 km/h (0 Bft)
10.01.2018 07:49 -1,7 °C 89 % 1012,8 hPa 0,0 mm 0,0 km/h (0 Bft) N 0 ° 0 min 0,000 mm 0,0 UV-I 0 W/m² -3,3 °C -1,7 °C 0,0 km/h (0 Bft)
10.01.2018 07:50 -1,7 °C 89 % 1012,8 hPa 0,0 mm 0,0 km/h (0 Bft) N 0 ° 0 min 0,000 mm 0,0 UV-I 0 W/m² -3,3 °C -1,7 °C 0,0 km/h (0 Bft)
10.01.2018 07:51 -1,7 °C 89 % 1012,8 hPa 0,0 mm 0,0 km/h (0 Bft) N 0 ° 0 min 0,000 mm 0,0 UV-I 0 W/m² -3,3 °C -1,7 °C 0,0 km/h (0 Bft)
10.01.2018 07:52 -1,7 °C 89 % 1012,8 hPa 0,0 mm 0,0 km/h (0 Bft) N 0 ° 0 min 0,000 mm 0,0 UV-I 0 W/m² -3,3 °C -1,7 °C 0,0 km/h (0 Bft)
10.01.2018 07:53 -1,7 °C 89 % 1012,8 hPa 0,0 mm 0,0 km/h (0 Bft) N 0 ° 0 min 0,000 mm 0,0 UV-I 0 W/m² -3,3 °C -1,7 °C 0,0 km/h (0 Bft)
10.01.2018 07:54 -1,7 °C 89 % 1012,9 hPa 0,0 mm 0,0 km/h (0 Bft) N 0 ° 0 min 0,000 mm 0,0 UV-I 0 W/m² -3,3 °C -1,7 °C 0,0 km/h (0 Bft)
10.01.2018 07:56 -1,7 °C 89 % 1012,9 hPa 0,0 mm 0,0 km/h (0 Bft) W-SW 242 ° 0 min 0,000 mm 0,0 UV-I 0 W/m² -3,3 °C -1,7 °C 0,0 km/h (0 Bft)
10.01.2018 07:57 -1,7 °C 89 % 1012,9 hPa 0,0 mm 0,0 km/h (0 Bft) W-SW 242 ° 0 min 0,000 mm 0,0 UV-I 0 W/m² -3,3 °C -1,7 °C 0,0 km/h (0 Bft)
10.01.2018 07:58 -1,7 °C 89 % 1012,9 hPa 0,0 mm 0,0 km/h (0 Bft) W-SW 242 ° 0 min 0,000 mm 0,0 UV-I 0 W/m² -3,3 °C -1,7 °C 0,0 km/h (0 Bft)
10.01.2018 07:59 -1,7 °C 88 % 1012,9 hPa 0,0 mm 0,7 km/h (0 Bft) W-SW 242 ° 0 min 0,000 mm 0,0 UV-I 0 W/m² -3,4 °C -1,7 °C 1,6 km/h (1 Bft)
10.01.2018 08:00 -1,7 °C 88 % 1012,9 hPa 0,0 mm 0,0 km/h (0 Bft) W-SW 242 ° 0 min 0,000 mm 0,0 UV-I 0 W/m² -3,4 °C -1,7 °C 0,0 km/h (0 Bft)
10.01.2018 08:01 -1,7 °C 88 % 1012,9 hPa 0,0 mm 2,0 km/h (1 Bft) SW 229 ° 0 min 0,000 mm 0,0 UV-I 0 W/m² -3,4 °C -1,7 °C 4,8 km/h (1 Bft)
10.01.2018 08:02 -1,7 °C 89 % 1013,0 hPa 0,0 mm 0,4 km/h (0 Bft) SW 229 ° 0 min 0,000 mm 0,0 UV-I 0 W/m² -3,3 °C -1,7 °C 1,6 km/h (1 Bft)
10.01.2018 08:03 -1,7 °C 89 % 1013,0 hPa 0,0 mm 0,0 km/h (0 Bft) SW 229 ° 0 min 0,000 mm 0,0 UV-I 5 W/m² -3,3 °C -1,7 °C 0,0 km/h (0 Bft)
10.01.2018 08:04 -1,7 °C 89 % 1012,9 hPa 0,0 mm 0,0 km/h (0 Bft) SW 229 ° 0 min 0,000 mm 0,0 UV-I 5 W/m² -3,3 °C -1,7 °C 0,0 km/h (0 Bft)
10.01.2018 08:05 -1,7 °C 89 % 1013,0 hPa 0,0 mm 0,0 km/h (0 Bft) SW 229 ° 0 min 0,000 mm 0,0 UV-I 7 W/m² -3,3 °C -1,7 °C 0,0 km/h (0 Bft)
10.01.2018 08:06 -1,7 °C 89 % 1013,0 hPa 0,0 mm 0,0 km/h (0 Bft) SW 229 ° 0 min 0,000 mm 0,0 UV-I 7 W/m² -3,3 °C -1,7 °C 0,0 km/h (0 Bft)
10.01.2018 08:07 -1,6 °C 89 % 1013,0 hPa 0,0 mm 0,0 km/h (0 Bft) SW 229 ° 0 min 0,000 mm 0,0 UV-I 9 W/m² -3,2 °C -1,6 °C 0,0 km/h (0 Bft)
10.01.2018 08:08 -1,7 °C 89 % 1013,0 hPa 0,0 mm 0,0 km/h (0 Bft) SW 229 ° 0 min 0,000 mm 0,0 UV-I 9 W/m² -3,3 °C -1,7 °C 0,0 km/h (0 Bft)
10.01.2018 08:09 -1,7 °C 89 % 1013,0 hPa 0,0 mm 0,0 km/h (0 Bft) SW 229 ° 0 min 0,000 mm 0,0 UV-I 9 W/m² -3,3 °C -1,7 °C 0,0 km/h (0 Bft)
10.01.2018 08:10 -1,7 °C 89 % 1013,0 hPa 0,0 mm 0,0 km/h (0 Bft) SW 229 ° 0 min 0,000 mm 0,0 UV-I 9 W/m² -3,3 °C -1,7 °C 0,0 km/h (0 Bft)
10.01.2018 08:11 -1,7 °C 89 % 1013,0 hPa 0,0 mm 0,0 km/h (0 Bft) SW 229 ° 0 min 0,000 mm 0,0 UV-I 9 W/m² -3,3 °C -1,7 °C 0,0 km/h (0 Bft)
10.01.2018 08:12 -1,7 °C 88 % 1013,1 hPa 0,0 mm 0,0 km/h (0 Bft) SW 229 ° 0 min 0,000 mm 0,0 UV-I 9 W/m² -3,4 °C -1,7 °C 0,0 km/h (0 Bft)
10.01.2018 08:13 -1,7 °C 88 % 1013,1 hPa 0,0 mm 0,0 km/h (0 Bft) SW 229 ° 0 min 0,000 mm 0,0 UV-I 11 W/m² -3,4 °C -1,7 °C 0,0 km/h (0 Bft)
10.01.2018 08:14 -1,7 °C 88 % 1013,1 hPa 0,0 mm 0,0 km/h (0 Bft) SW 229 ° 0 min 0,000 mm 0,0 UV-I 11 W/m² -3,4 °C -1,7 °C 0,0 km/h (0 Bft)
10.01.2018 08:15 -1,7 °C 88 % 1013,1 hPa 0,0 mm 0,0 km/h (0 Bft) SW 229 ° 0 min 0,000 mm 0,0 UV-I 11 W/m² -3,4 °C -1,7 °C 0,0 km/h (0 Bft)
10.01.2018 08:16 -1,7 °C 88 % 1013,1 hPa 0,0 mm 0,0 km/h (0 Bft) SW 229 ° 0 min 0,000 mm 0,0 UV-I 11 W/m² -3,4 °C -1,7 °C 0,0 km/h (0 Bft)
10.01.2018 08:17 -1,7 °C 88 % 1013,1 hPa 0,0 mm 0,0 km/h (0 Bft) SW 229 ° 0 min 0,000 mm 0,0 UV-I 11 W/m² -3,4 °C -1,7 °C 0,0 km/h (0 Bft)
10.01.2018 08:18 -1,7 °C 88 % 1013,1 hPa 0,0 mm 0,0 km/h (0 Bft) SW 229 ° 0 min 0,000 mm 0,0 UV-I 11 W/m² -3,4 °C -1,7 °C 0,0 km/h (0 Bft)
10.01.2018 08:19 -1,7 °C 88 % 1013,1 hPa 0,0 mm 0,0 km/h (0 Bft) SW 229 ° 0 min 0,000 mm 0,0 UV-I 11 W/m² -3,4 °C -1,7 °C 0,0 km/h (0 Bft)
10.01.2018 08:20 -1,7 °C 88 % 1013,1 hPa 0,0 mm 0,0 km/h (0 Bft) SW 229 ° 0 min 0,000 mm 0,0 UV-I 11 W/m² -3,4 °C -1,7 °C 0,0 km/h (0 Bft)
10.01.2018 08:21 -1,7 °C 88 % 1013,1 hPa 0,0 mm 0,0 km/h (0 Bft) SW 229 ° 0 min 0,000 mm 0,0 UV-I 11 W/m² -3,4 °C -1,7 °C 0,0 km/h (0 Bft)
10.01.2018 08:22 -1,7 °C 89 % 1013,0 hPa 0,0 mm 0,2 km/h (0 Bft) SW 229 ° 0 min 0,000 mm 0,0 UV-I 11 W/m² -3,3 °C -1,7 °C 1,6 km/h (1 Bft)
10.01.2018 08:23 -1,7 °C 89 % 1013,1 hPa 0,0 mm 0,2 km/h (0 Bft) SW 229 ° 0 min 0,000 mm 0,0 UV-I 11 W/m² -3,3 °C -1,7 °C 1,6 km/h (1 Bft)
10.01.2018 08:24 -1,6 °C 89 % 1013,1 hPa 0,0 mm 1,9 km/h (1 Bft) SW 229 ° 0 min 0,000 mm 0,0 UV-I 11 W/m² -3,2 °C -1,6 °C 4,8 km/h (1 Bft)
10.01.2018 08:25 -1,6 °C 89 % 1013,0 hPa 0,0 mm 2,4 km/h (1 Bft) SW 229 ° 0 min 0,000 mm 0,0 UV-I 11 W/m² -3,2 °C -1,6 °C 4,8 km/h (1 Bft)
10.01.2018 08:26 -1,5 °C 90 % 1013,1 hPa 0,0 mm 1,9 km/h (1 Bft) SW 229 ° 0 min 0,000 mm 0,0 UV-I 12 W/m² -2,9 °C -1,5 °C 3,2 km/h (1 Bft)
10.01.2018 08:27 -1,4 °C 90 % 1013,1 hPa 0,0 mm 1,7 km/h (1 Bft) SW 229 ° 0 min 0,000 mm 0,0 UV-I 12 W/m² -2,8 °C -1,4 °C 4,8 km/h (1 Bft)
10.01.2018 08:28 -1,4 °C 90 % 1013,1 hPa 0,0 mm 1,5 km/h (1 Bft) SW 229 ° 0 min 0,000 mm 0,0 UV-I 12 W/m² -2,8 °C -1,4 °C 3,2 km/h (1 Bft)
10.01.2018 08:29 -1,3 °C 90 % 1013,1 hPa 0,0 mm 1,5 km/h (1 Bft) SW 229 ° 0 min 0,000 mm 0,0 UV-I 12 W/m² -2,7 °C -1,3 °C 3,2 km/h (1 Bft)
10.01.2018 08:30 -1,2 °C 90 % 1013,1 hPa 0,0 mm 0,0 km/h (0 Bft) SW 229 ° 0 min 0,000 mm 0,0 UV-I 12 W/m² -2,6 °C -1,2 °C 0,0 km/h (0 Bft)
10.01.2018 08:31 -1,2 °C 90 % 1013,1 hPa 0,0 mm 0,0 km/h (0 Bft) SW 229 ° 0 min 0,000 mm 0,0 UV-I 12 W/m² -2,6 °C -1,2 °C 0,0 km/h (0 Bft)
10.01.2018 08:32 -1,2 °C 90 % 1013,2 hPa 0,0 mm 0,0 km/h (0 Bft) SW 229 ° 0 min 0,000 mm 0,0 UV-I 12 W/m² -2,6 °C -1,2 °C 0,0 km/h (0 Bft)
10.01.2018 08:33 -1,2 °C 90 % 1013,2 hPa 0,0 mm 3,2 km/h (1 Bft) W 270 ° 0 min 0,000 mm 0,0 UV-I 12 W/m² -2,6 °C -1,2 °C 3,2 km/h (1 Bft)
10.01.2018 08:34 -1,2 °C 89 % 1013,2 hPa 0,0 mm 1,6 km/h (1 Bft) W 270 ° 0 min 0,000 mm 0,0 UV-I 14 W/m² -2,8 °C -1,2 °C 3,2 km/h (1 Bft)
10.01.2018 08:35 -1,3 °C 89 % 1013,2 hPa 0,0 mm 0,0 km/h (0 Bft) W 270 ° 0 min 0,000 mm 0,0 UV-I 14 W/m² -2,9 °C -1,3 °C 1,6 km/h (1 Bft)
10.01.2018 08:36 -1,3 °C 89 % 1013,3 hPa 0,0 mm 0,0 km/h (0 Bft) N 0 ° 0 min 0,000 mm 0,0 UV-I 14 W/m² -2,9 °C -1,3 °C 0,0 km/h (0 Bft)
10.01.2018 08:37 -1,3 °C 89 % 1013,3 hPa 0,0 mm 0,0 km/h (0 Bft) N 0 ° 0 min 0,000 mm 0,0 UV-I 14 W/m² -2,9 °C -1,3 °C 0,0 km/h (0 Bft)
10.01.2018 08:38 -1,3 °C 89 % 1013,3 hPa 0,0 mm 0,0 km/h (0 Bft) N 0 ° 0 min 0,000 mm 0,0 UV-I 14 W/m² -2,9 °C -1,3 °C 0,0 km/h (0 Bft)
10.01.2018 08:39 -1,3 °C 89 % 1013,3 hPa 0,0 mm 0,0 km/h (0 Bft) N 0 ° 0 min 0,000 mm 0,0 UV-I 14 W/m² -2,9 °C -1,3 °C 0,0 km/h (0 Bft)
10.01.2018 08:41 -1,3 °C 89 % 1013,3 hPa 0,0 mm 0,0 km/h (0 Bft) W 279 ° 0 min 0,000 mm 0,0 UV-I 16 W/m² -2,9 °C -1,3 °C 0,0 km/h (0 Bft)
10.01.2018 08:42 -1,3 °C 89 % 1013,3 hPa 0,0 mm 0,0 km/h (0 Bft) W 279 ° 0 min 0,000 mm 0,0 UV-I 16 W/m² -2,9 °C -1,3 °C 0,0 km/h (0 Bft)
10.01.2018 08:43 -1,3 °C 89 % 1013,3 hPa 0,0 mm 0,0 km/h (0 Bft) W 279 ° 0 min 0,000 mm 0,0 UV-I 16 W/m² -2,9 °C -1,3 °C 0,0 km/h (0 Bft)
10.01.2018 08:44 -1,3 °C 89 % 1013,3 hPa 0,0 mm 0,0 km/h (0 Bft) W 279 ° 0 min 0,000 mm 0,0 UV-I 16 W/m² -2,9 °C -1,3 °C 0,0 km/h (0 Bft)
10.01.2018 08:45 -1,3 °C 89 % 1013,3 hPa 0,0 mm 0,0 km/h (0 Bft) W 279 ° 0 min 0,000 mm 0,0 UV-I 16 W/m² -2,9 °C -1,3 °C 0,0 km/h (0 Bft)
10.01.2018 08:46 -1,3 °C 89 % 1013,4 hPa 0,0 mm 0,0 km/h (0 Bft) W 279 ° 0 min 0,000 mm 0,0 UV-I 18 W/m² -2,9 °C -1,3 °C 0,0 km/h (0 Bft)
10.01.2018 08:47 -1,3 °C 89 % 1013,3 hPa 0,0 mm 0,0 km/h (0 Bft) W 279 ° 0 min 0,000 mm 0,0 UV-I 18 W/m² -2,9 °C -1,3 °C 0,0 km/h (0 Bft)
10.01.2018 08:48 -1,3 °C 88 % 1013,3 hPa 0,0 mm 0,0 km/h (0 Bft) W 279 ° 0 min 0,000 mm 0,0 UV-I 18 W/m² -3,0 °C -1,3 °C 0,0 km/h (0 Bft)
10.01.2018 08:49 -1,3 °C 88 % 1013,4 hPa 0,0 mm 0,0 km/h (0 Bft) W 279 ° 0 min 0,000 mm 0,0 UV-I 18 W/m² -3,0 °C -1,3 °C 0,0 km/h (0 Bft)
10.01.2018 08:50 -1,3 °C 88 % 1013,4 hPa 0,0 mm 0,0 km/h (0 Bft) W 279 ° 0 min 0,000 mm 0,0 UV-I 18 W/m² -3,0 °C -1,3 °C 0,0 km/h (0 Bft)
10.01.2018 08:51 -1,3 °C 88 % 1013,4 hPa 0,0 mm 0,0 km/h (0 Bft) W 279 ° 0 min 0,000 mm 0,0 UV-I 18 W/m² -3,0 °C -1,3 °C 0,0 km/h (0 Bft)
10.01.2018 08:52 -1,3 °C 88 % 1013,3 hPa 0,0 mm 0,0 km/h (0 Bft) W 279 ° 0 min 0,000 mm 0,0 UV-I 18 W/m² -3,0 °C -1,3 °C 0,0 km/h (0 Bft)
10.01.2018 08:53 -1,3 °C 88 % 1013,4 hPa 0,0 mm 0,0 km/h (0 Bft) W 279 ° 0 min 0,000 mm 0,0 UV-I 18 W/m² -3,0 °C -1,3 °C 0,0 km/h (0 Bft)
10.01.2018 08:54 -1,3 °C 88 % 1013,4 hPa 0,0 mm 0,0 km/h (0 Bft) W 279 ° 0 min 0,000 mm 0,0 UV-I 19 W/m² -3,0 °C -1,3 °C 0,0 km/h (0 Bft)
10.01.2018 08:55 -1,3 °C 88 % 1013,4 hPa 0,0 mm 0,0 km/h (0 Bft) W 279 ° 0 min 0,000 mm 0,0 UV-I 19 W/m² -3,0 °C -1,3 °C 0,0 km/h (0 Bft)
10.01.2018 08:56 -1,3 °C 88 % 1013,4 hPa 0,0 mm 0,0 km/h (0 Bft) W 279 ° 0 min 0,000 mm 0,0 UV-I 19 W/m² -3,0 °C -1,3 °C 0,0 km/h (0 Bft)
10.01.2018 08:57 -1,3 °C 88 % 1013,4 hPa 0,0 mm 0,0 km/h (0 Bft) W 279 ° 0 min 0,000 mm 0,0 UV-I 19 W/m² -3,0 °C -1,3 °C 0,0 km/h (0 Bft)
10.01.2018 08:58 -1,4 °C 88 % 1013,5 hPa 0,0 mm 0,0 km/h (0 Bft) N 0 ° 0 min 0,000 mm 0,0 UV-I 19 W/m² -3,1 °C -1,4 °C 0,0 km/h (0 Bft)
10.01.2018 08:59 -1,4 °C 88 % 1013,4 hPa 0,0 mm 0,0 km/h (0 Bft) N 0 ° 0 min 0,000 mm 0,0 UV-I 19 W/m² -3,1 °C -1,4 °C 0,0 km/h (0 Bft)
10.01.2018 09:00 -1,4 °C 88 % 1013,5 hPa 0,0 mm 0,0 km/h (0 Bft) N 0 ° 0 min 0,000 mm 0,0 UV-I 19 W/m² -3,1 °C -1,4 °C 0,0 km/h (0 Bft)
10.01.2018 09:01 -1,4 °C 88 % 1013,4 hPa 0,0 mm 0,0 km/h (0 Bft) N 0 ° 0 min 0,000 mm 0,0 UV-I 19 W/m² -3,1 °C -1,4 °C 0,0 km/h (0 Bft)
10.01.2018 09:02 -1,4 °C 88 % 1013,5 hPa 0,0 mm 0,0 km/h (0 Bft) N 0 ° 0 min 0,000 mm 0,0 UV-I 19 W/m² -3,1 °C -1,4 °C 0,0 km/h (0 Bft)
10.01.2018 09:03 -1,4 °C 88 % 1013,5 hPa 0,0 mm 0,0 km/h (0 Bft) N 0 ° 0 min 0,000 mm 0,0 UV-I 19 W/m² -3,1 °C -1,4 °C 0,0 km/h (0 Bft)
10.01.2018 09:04 -1,4 °C 88 % 1013,5 hPa 0,0 mm 0,0 km/h (0 Bft) N 0 ° 0 min 0,000 mm 0,0 UV-I 19 W/m² -3,1 °C -1,4 °C 0,0 km/h (0 Bft)
10.01.2018 09:08 -1,5 °C 88 % 1013,5 hPa 0,0 mm 0,0 km/h (0 Bft) W 279 ° 0 min 0,000 mm 0,0 UV-I 21 W/m² -3,2 °C -1,5 °C 0,0 km/h (0 Bft)
10.01.2018 09:09 -1,5 °C 88 % 1013,5 hPa 0,0 mm 0,0 km/h (0 Bft) W 279 ° 0 min 0,000 mm 0,0 UV-I 21 W/m² -3,2 °C -1,5 °C 0,0 km/h (0 Bft)
10.01.2018 09:10 -1,5 °C 88 % 1013,5 hPa 0,0 mm 0,0 km/h (0 Bft) W 279 ° 0 min 0,000 mm 0,0 UV-I 23 W/m² -3,2 °C -1,5 °C 0,0 km/h (0 Bft)
10.01.2018 09:11 -1,5 °C 87 % 1013,6 hPa 0,0 mm 0,0 km/h (0 Bft) W 279 ° 0 min 0,000 mm 0,0 UV-I 23 W/m² -3,4 °C -1,5 °C 0,0 km/h (0 Bft)
10.01.2018 09:12 -1,6 °C 88 % 1013,5 hPa 0,0 mm 0,0 km/h (0 Bft) W 279 ° 0 min 0,000 mm 0,0 UV-I 25 W/m² -3,3 °C -1,6 °C 0,0 km/h (0 Bft)
10.01.2018 09:13 -1,6 °C 88 % 1013,6 hPa 0,0 mm 0,0 km/h (0 Bft) W 279 ° 0 min 0,000 mm 0,0 UV-I 26 W/m² -3,3 °C -1,6 °C 0,0 km/h (0 Bft)
10.01.2018 09:14 -1,6 °C 88 % 1013,6 hPa 0,0 mm 0,0 km/h (0 Bft) W 279 ° 0 min 0,000 mm 0,0 UV-I 26 W/m² -3,3 °C -1,6 °C 0,0 km/h (0 Bft)
10.01.2018 09:15 -1,6 °C 88 % 1013,5 hPa 0,0 mm 2,4 km/h (1 Bft) W-SW 238 ° 0 min 0,000 mm 0,0 UV-I 26 W/m² -3,3 °C -1,6 °C 6,4 km/h (2 Bft)
10.01.2018 09:16 -1,6 °C 88 % 1013,6 hPa 0,0 mm 6,1 km/h (2 Bft) S-SW 203 ° 0 min 0,000 mm 0,0 UV-I 26 W/m² -3,3 °C -3,9 °C 9,7 km/h (2 Bft)
10.01.2018 09:17 -1,6 °C 88 % 1013,6 hPa 0,0 mm 2,6 km/h (1 Bft) W 279 ° 0 min 0,000 mm 0,0 UV-I 25 W/m² -3,3 °C -1,6 °C 3,2 km/h (1 Bft)
10.01.2018 09:18 -1,5 °C 89 % 1013,6 hPa 0,0 mm 7,0 km/h (2 Bft) S-SW 213 ° 0 min 0,000 mm 0,0 UV-I 23 W/m² -3,1 °C -4,1 °C 9,7 km/h (2 Bft)
10.01.2018 09:19 -1,4 °C 89 % 1013,6 hPa 0,0 mm 8,8 km/h (2 Bft) S-SW 209 ° 0 min 0,000 mm 0,0 UV-I 21 W/m² -3,0 °C -4,6 °C 12,9 km/h (3 Bft)
10.01.2018 09:20 -1,3 °C 89 % 1013,6 hPa 0,0 mm 5,8 km/h (2 Bft) SW 216 ° 0 min 0,000 mm 0,0 UV-I 21 W/m² -2,9 °C -3,4 °C 11,3 km/h (2 Bft)
10.01.2018 09:21 -1,3 °C 90 % 1013,6 hPa 0,0 mm 0,8 km/h (0 Bft) S-SW 202 ° 0 min 0,000 mm 0,0 UV-I 21 W/m² -2,7 °C -1,3 °C 3,2 km/h (1 Bft)
10.01.2018 09:22 -1,2 °C 90 % 1013,6 hPa 0,0 mm 3,1 km/h (1 Bft) S-SW 207 ° 0 min 0,000 mm 0,0 UV-I 23 W/m² -2,6 °C -1,2 °C 11,3 km/h (2 Bft)
10.01.2018 09:23 -1,1 °C 90 % 1013,6 hPa 0,0 mm 6,4 km/h (2 Bft) S-SW 205 ° 0 min 0,000 mm 0,0 UV-I 25 W/m² -2,5 °C -3,5 °C 9,7 km/h (2 Bft)
10.01.2018 09:24 -1,0 °C 90 % 1013,6 hPa 0,0 mm 2,7 km/h (1 Bft) S 188 ° 0 min 0,000 mm 0,0 UV-I 26 W/m² -2,4 °C -1,0 °C 4,8 km/h (1 Bft)
10.01.2018 09:25 -0,9 °C 90 % 1013,6 hPa 0,0 mm 5,3 km/h (1 Bft) S-SW 200 ° 0 min 0,000 mm 0,0 UV-I 26 W/m² -2,3 °C -2,8 °C 8,0 km/h (2 Bft)
10.01.2018 09:26 -0,8 °C 90 % 1013,6 hPa 0,0 mm 3,3 km/h (1 Bft) S-SW 200 ° 0 min 0,000 mm 0,0 UV-I 28 W/m² -2,2 °C -0,8 °C 4,8 km/h (1 Bft)
10.01.2018 09:27 -0,8 °C 89 % 1013,6 hPa 0,0 mm 1,5 km/h (1 Bft) S-SW 200 ° 0 min 0,000 mm 0,0 UV-I 28 W/m² -2,4 °C -0,8 °C 4,8 km/h (1 Bft)
10.01.2018 09:28 -0,8 °C 89 % 1013,6 hPa 0,0 mm 0,0 km/h (0 Bft) S-SW 200 ° 0 min 0,000 mm 0,0 UV-I 28 W/m² -2,4 °C -0,8 °C 0,0 km/h (0 Bft)
10.01.2018 09:29 -0,7 °C 89 % 1013,6 hPa 0,0 mm 0,0 km/h (0 Bft) S-SW 200 ° 0 min 0,000 mm 0,0 UV-I 28 W/m² -2,3 °C -0,7 °C 0,0 km/h (0 Bft)
10.01.2018 09:30 -0,7 °C 89 % 1013,6 hPa 0,0 mm 0,0 km/h (0 Bft) S-SW 200 ° 0 min 0,000 mm 0,0 UV-I 26 W/m² -2,3 °C -0,7 °C 0,0 km/h (0 Bft)
10.01.2018 09:31 -0,6 °C 89 % 1013,6 hPa 0,0 mm 0,0 km/h (0 Bft) S-SW 200 ° 0 min 0,000 mm 0,0 UV-I 25 W/m² -2,2 °C -0,6 °C 0,0 km/h (0 Bft)
10.01.2018 09:32 -0,6 °C 89 % 1013,6 hPa 0,0 mm 1,5 km/h (1 Bft) S-SW 200 ° 0 min 0,000 mm 0,0 UV-I 25 W/m² -2,2 °C -0,6 °C 3,2 km/h (1 Bft)
10.01.2018 09:33 -0,6 °C 89 % 1013,6 hPa 0,0 mm 1,4 km/h (1 Bft) S-SW 200 ° 0 min 0,000 mm 0,0 UV-I 23 W/m² -2,2 °C -0,6 °C 3,2 km/h (1 Bft)
10.01.2018 09:34 -0,5 °C 89 % 1013,7 hPa 0,0 mm 0,4 km/h (0 Bft) S-SW 200 ° 0 min 0,000 mm 0,0 UV-I 23 W/m² -2,1 °C -0,5 °C 1,6 km/h (1 Bft)
10.01.2018 09:35 -0,6 °C 88 % 1013,7 hPa 0,0 mm 0,1 km/h (0 Bft) S-SW 200 ° 0 min 0,000 mm 0,0 UV-I 23 W/m² -2,3 °C -0,6 °C 1,6 km/h (1 Bft)
10.01.2018 09:36 -0,5 °C 88 % 1013,7 hPa 0,0 mm 0,3 km/h (0 Bft) S-SW 200 ° 0 min 0,000 mm 0,0 UV-I 23 W/m² -2,2 °C -0,5 °C 1,6 km/h (1 Bft)
10.01.2018 09:37 -0,5 °C 88 % 1013,7 hPa 0,0 mm 1,7 km/h (1 Bft) S-SW 200 ° 0 min 0,000 mm 0,0 UV-I 23 W/m² -2,2 °C -0,5 °C 3,2 km/h (1 Bft)
10.01.2018 09:38 -0,5 °C 88 % 1013,7 hPa 0,0 mm 0,7 km/h (0 Bft) S-SW 200 ° 0 min 0,000 mm 0,0 UV-I 23 W/m² -2,2 °C -0,5 °C 1,6 km/h (1 Bft)
10.01.2018 09:39 -0,5 °C 88 % 1013,7 hPa 0,0 mm 0,7 km/h (0 Bft) S-SW 200 ° 0 min 0,000 mm 0,0 UV-I 23 W/m² -2,2 °C -0,5 °C 1,6 km/h (1 Bft)
10.01.2018 09:40 -0,5 °C 88 % 1013,7 hPa 0,0 mm 0,0 km/h (0 Bft) S-SW 200 ° 0 min 0,000 mm 0,0 UV-I 23 W/m² -2,2 °C -0,5 °C 0,0 km/h (0 Bft)
10.01.2018 09:41 -0,4 °C 88 % 1013,7 hPa 0,0 mm 0,0 km/h (0 Bft) S-SW 200 ° 0 min 0,000 mm 0,0 UV-I 23 W/m² -2,1 °C -0,4 °C 0,0 km/h (0 Bft)
10.01.2018 09:42 -0,4 °C 88 % 1013,7 hPa 0,0 mm 0,0 km/h (0 Bft) S-SW 200 ° 0 min 0,000 mm 0,0 UV-I 23 W/m² -2,1 °C -0,4 °C 0,0 km/h (0 Bft)
10.01.2018 09:43 -0,4 °C 88 % 1013,7 hPa 0,0 mm 0,0 km/h (0 Bft) N 0 ° 0 min 0,000 mm 0,0 UV-I 23 W/m² -2,1 °C -0,4 °C 0,0 km/h (0 Bft)
10.01.2018 09:44 -0,4 °C 88 % 1013,7 hPa 0,0 mm 0,0 km/h (0 Bft) N 0 ° 0 min 0,000 mm 0,0 UV-I 23 W/m² -2,1 °C -0,4 °C 0,0 km/h (0 Bft)
10.01.2018 09:45 -0,4 °C 88 % 1013,7 hPa 0,0 mm 0,0 km/h (0 Bft) N 0 ° 0 min 0,000 mm 0,0 UV-I 23 W/m² -2,1 °C -0,4 °C 0,0 km/h (0 Bft)
10.01.2018 09:46 -0,4 °C 88 % 1013,7 hPa 0,0 mm 0,0 km/h (0 Bft) N 0 ° 0 min 0,000 mm 0,0 UV-I 23 W/m² -2,1 °C -0,4 °C 0,0 km/h (0 Bft)
10.01.2018 09:47 -0,4 °C 88 % 1013,7 hPa 0,0 mm 0,0 km/h (0 Bft) N 0 ° 0 min 0,000 mm 0,0 UV-I 23 W/m² -2,1 °C -0,4 °C 0,0 km/h (0 Bft)
10.01.2018 09:48 -0,4 °C 88 % 1013,6 hPa 0,0 mm 0,0 km/h (0 Bft) N 0 ° 0 min 0,000 mm 0,0 UV-I 23 W/m² -2,1 °C -0,4 °C 0,0 km/h (0 Bft)
10.01.2018 09:49 -0,4 °C 87 % 1013,7 hPa 0,0 mm 0,0 km/h (0 Bft) N 0 ° 0 min 0,000 mm 0,0 UV-I 23 W/m² -2,3 °C -0,4 °C 0,0 km/h (0 Bft)
10.01.2018 09:51 -0,4 °C 87 % 1013,7 hPa 0,0 mm 0,0 km/h (0 Bft) S-SW 200 ° 0 min 0,000 mm 0,0 UV-I 23 W/m² -2,3 °C -0,4 °C 0,0 km/h (0 Bft)
10.01.2018 09:53 -0,4 °C 87 % 1013,7 hPa 0,0 mm 0,0 km/h (0 Bft) S-SW 200 ° 0 min 0,000 mm 0,0 UV-I 23 W/m² -2,3 °C -0,4 °C 0,0 km/h (0 Bft)
10.01.2018 09:54 -0,4 °C 88 % 1013,7 hPa 0,0 mm 0,0 km/h (0 Bft) S-SW 200 ° 0 min 0,000 mm 0,0 UV-I 23 W/m² -2,1 °C -0,4 °C 0,0 km/h (0 Bft)
10.01.2018 09:55 -0,4 °C 88 % 1013,7 hPa 0,0 mm 0,0 km/h (0 Bft) S-SW 200 ° 0 min 0,000 mm 0,0 UV-I 23 W/m² -2,1 °C -0,4 °C 0,0 km/h (0 Bft)
10.01.2018 09:56 -0,3 °C 88 % 1013,6 hPa 0,0 mm 0,0 km/h (0 Bft) S-SW 200 ° 0 min 0,000 mm 0,0 UV-I 23 W/m² -2,0 °C -0,3 °C 0,0 km/h (0 Bft)
10.01.2018 09:57 -0,4 °C 88 % 1013,7 hPa 0,0 mm 0,0 km/h (0 Bft) S-SW 200 ° 0 min 0,000 mm 0,0 UV-I 23 W/m² -2,1 °C -0,4 °C 0,0 km/h (0 Bft)
10.01.2018 09:58 -0,3 °C 87 % 1013,7 hPa 0,0 mm 0,0 km/h (0 Bft) S-SW 200 ° 0 min 0,000 mm 0,0 UV-I 23 W/m² -2,2 °C -0,3 °C 0,0 km/h (0 Bft)
10.01.2018 09:59 -0,3 °C 87 % 1013,7 hPa 0,0 mm 0,0 km/h (0 Bft) S-SW 200 ° 0 min 0,000 mm 0,0 UV-I 25 W/m² -2,2 °C -0,3 °C 0,0 km/h (0 Bft)
10.01.2018 10:00 -0,3 °C 87 % 1013,7 hPa 0,0 mm 0,0 km/h (0 Bft) S-SW 200 ° 0 min 0,000 mm 0,0 UV-I 25 W/m² -2,2 °C -0,3 °C 0,0 km/h (0 Bft)
10.01.2018 10:01 -0,3 °C 87 % 1013,6 hPa 0,0 mm 0,0 km/h (0 Bft) S-SW 200 ° 0 min 0,000 mm 0,0 UV-I 25 W/m² -2,2 °C -0,3 °C 0,0 km/h (0 Bft)
10.01.2018 10:02 -0,3 °C 87 % 1013,6 hPa 0,0 mm 0,0 km/h (0 Bft) S-SW 200 ° 0 min 0,000 mm 0,0 UV-I 25 W/m² -2,2 °C -0,3 °C 0,0 km/h (0 Bft)
10.01.2018 10:03 -0,3 °C 88 % 1013,6 hPa 0,0 mm 0,0 km/h (0 Bft) S-SW 200 ° 0 min 0,000 mm 0,0 UV-I 25 W/m² -2,0 °C -0,3 °C 0,0 km/h (0 Bft)
10.01.2018 10:04 -0,3 °C 88 % 1013,6 hPa 0,0 mm 0,0 km/h (0 Bft) S-SW 200 ° 0 min 0,000 mm 0,0 UV-I 25 W/m² -2,0 °C -0,3 °C 0,0 km/h (0 Bft)
10.01.2018 10:05 -0,3 °C 88 % 1013,6 hPa 0,0 mm 0,0 km/h (0 Bft) S-SW 200 ° 0 min 0,000 mm 0,0 UV-I 25 W/m² -2,0 °C -0,3 °C 0,0 km/h (0 Bft)
10.01.2018 10:06 -0,3 °C 88 % 1013,6 hPa 0,0 mm 0,0 km/h (0 Bft) S-SW 200 ° 0 min 0,000 mm 0,0 UV-I 25 W/m² -2,0 °C -0,3 °C 0,0 km/h (0 Bft)
10.01.2018 10:07 -0,3 °C 88 % 1013,6 hPa 0,0 mm 0,0 km/h (0 Bft) S-SW 200 ° 0 min 0,000 mm 0,0 UV-I 25 W/m² -2,0 °C -0,3 °C 0,0 km/h (0 Bft)
10.01.2018 10:08 -0,3 °C 88 % 1013,6 hPa 0,0 mm 0,0 km/h (0 Bft) S-SW 200 ° 0 min 0,000 mm 0,0 UV-I 25 W/m² -2,0 °C -0,3 °C 0,0 km/h (0 Bft)
10.01.2018 10:09 -0,2 °C 88 % 1013,6 hPa 0,0 mm 0,0 km/h (0 Bft) S-SW 200 ° 0 min 0,000 mm 0,0 UV-I 25 W/m² -1,9 °C -0,2 °C 0,0 km/h (0 Bft)
10.01.2018 10:10 -0,3 °C 88 % 1013,6 hPa 0,0 mm 0,0 km/h (0 Bft) S-SW 200 ° 0 min 0,000 mm 0,0 UV-I 25 W/m² -2,0 °C -0,3 °C 0,0 km/h (0 Bft)
10.01.2018 10:11 -0,2 °C 88 % 1013,5 hPa 0,0 mm 0,0 km/h (0 Bft) S-SW 200 ° 0 min 0,000 mm 0,0 UV-I 25 W/m² -1,9 °C -0,2 °C 0,0 km/h (0 Bft)
10.01.2018 10:12 -0,2 °C 88 % 1013,6 hPa 0,0 mm 0,0 km/h (0 Bft) S-SW 200 ° 0 min 0,000 mm 0,0 UV-I 25 W/m² -1,9 °C -0,2 °C 0,0 km/h (0 Bft)
10.01.2018 10:13 -0,2 °C 88 % 1013,6 hPa 0,0 mm 0,0 km/h (0 Bft) S-SW 200 ° 0 min 0,000 mm 0,0 UV-I 25 W/m² -1,9 °C -0,2 °C 0,0 km/h (0 Bft)
10.01.2018 10:14 -0,2 °C 88 % 1013,7 hPa 0,0 mm 0,0 km/h (0 Bft) S-SW 200 ° 0 min 0,000 mm 0,0 UV-I 25 W/m² -1,9 °C -0,2 °C 0,0 km/h (0 Bft)
10.01.2018 10:15 -0,1 °C 88 % 1013,6 hPa 0,0 mm 0,0 km/h (0 Bft) S-SW 200 ° 0 min 0,000 mm 0,0 UV-I 25 W/m² -1,8 °C -0,1 °C 0,0 km/h (0 Bft)
10.01.2018 10:16 -0,1 °C 88 % 1013,6 hPa 0,0 mm 0,0 km/h (0 Bft) S-SW 200 ° 0 min 0,000 mm 0,0 UV-I 25 W/m² -1,8 °C -0,1 °C 0,0 km/h (0 Bft)
10.01.2018 10:17 -0,1 °C 88 % 1013,6 hPa 0,0 mm 0,0 km/h (0 Bft) S-SW 200 ° 0 min 0,000 mm 0,0 UV-I 26 W/m² -1,8 °C -0,1 °C 0,0 km/h (0 Bft)
10.01.2018 10:18 -0,1 °C 88 % 1013,7 hPa 0,0 mm 0,0 km/h (0 Bft) S-SW 200 ° 0 min 0,000 mm 0,0 UV-I 26 W/m² -1,8 °C -0,1 °C 0,0 km/h (0 Bft)
10.01.2018 10:19 -0,1 °C 88 % 1013,7 hPa 0,0 mm 0,0 km/h (0 Bft) S-SW 200 ° 0 min 0,000 mm 0,0 UV-I 26 W/m² -1,8 °C -0,1 °C 0,0 km/h (0 Bft)
10.01.2018 10:20 -0,1 °C 88 % 1013,6 hPa 0,0 mm 0,0 km/h (0 Bft) S-SW 200 ° 0 min 0,000 mm 0,0 UV-I 26 W/m² -1,8 °C -0,1 °C 0,0 km/h (0 Bft)
10.01.2018 10:21 0,0 °C 88 % 1013,6 hPa 0,0 mm 0,0 km/h (0 Bft) S-SW 200 ° 0 min 0,000 mm 0,0 UV-I 26 W/m² -1,7 °C 0,0 °C 0,0 km/h (0 Bft)
10.01.2018 10:22 0,1 °C 88 % 1013,6 hPa 0,0 mm 0,0 km/h (0 Bft) S-SW 200 ° 0 min 0,000 mm 0,0 UV-I 26 W/m² -1,6 °C 0,1 °C 0,0 km/h (0 Bft)
10.01.2018 10:23 0,1 °C 88 % 1013,6 hPa 0,0 mm 0,0 km/h (0 Bft) S-SW 200 ° 0 min 0,000 mm 0,0 UV-I 26 W/m² -1,6 °C 0,1 °C 0,0 km/h (0 Bft)
10.01.2018 10:24 0,1 °C 88 % 1013,6 hPa 0,0 mm 0,0 km/h (0 Bft) S-SW 200 ° 0 min 0,000 mm 0,0 UV-I 26 W/m² -1,6 °C 0,1 °C 0,0 km/h (0 Bft)
10.01.2018 10:25 0,1 °C 88 % 1013,5 hPa 0,0 mm 0,0 km/h (0 Bft) S-SW 200 ° 0 min 0,000 mm 0,0 UV-I 26 W/m² -1,6 °C 0,1 °C 0,0 km/h (0 Bft)
10.01.2018 10:26 0,1 °C 88 % 1013,5 hPa 0,0 mm 0,0 km/h (0 Bft) S-SW 200 ° 0 min 0,000 mm 0,0 UV-I 26 W/m² -1,6 °C 0,1 °C 0,0 km/h (0 Bft)
10.01.2018 10:27 0,2 °C 88 % 1013,6 hPa 0,0 mm 0,0 km/h (0 Bft) S-SW 200 ° 0 min 0,000 mm 0,0 UV-I 26 W/m² -1,5 °C 0,2 °C 0,0 km/h (0 Bft)
10.01.2018 10:28 0,2 °C 88 % 1013,6 hPa 0,0 mm 0,0 km/h (0 Bft) S-SW 200 ° 0 min 0,000 mm 0,0 UV-I 26 W/m² -1,5 °C 0,2 °C 0,0 km/h (0 Bft)
10.01.2018 10:29 0,3 °C 88 % 1013,5 hPa 0,0 mm 0,0 km/h (0 Bft) S-SW 200 ° 0 min 0,000 mm 0,0 UV-I 26 W/m² -1,4 °C 0,3 °C 0,0 km/h (0 Bft)
10.01.2018 10:30 0,3 °C 88 % 1013,5 hPa 0,0 mm 0,0 km/h (0 Bft) S-SW 200 ° 0 min 0,000 mm 0,0 UV-I 26 W/m² -1,4 °C 0,3 °C 0,0 km/h (0 Bft)
10.01.2018 10:31 0,3 °C 88 % 1013,5 hPa 0,0 mm 0,0 km/h (0 Bft) S-SW 200 ° 0 min 0,000 mm 0,0 UV-I 26 W/m² -1,4 °C 0,3 °C 0,0 km/h (0 Bft)
10.01.2018 10:32 0,3 °C 88 % 1013,5 hPa 0,0 mm 0,0 km/h (0 Bft) S-SW 200 ° 0 min 0,000 mm 0,0 UV-I 26 W/m² -1,4 °C 0,3 °C 0,0 km/h (0 Bft)
10.01.2018 10:33 0,4 °C 88 % 1013,5 hPa 0,0 mm 0,0 km/h (0 Bft) S-SW 200 ° 0 min 0,000 mm 0,0 UV-I 26 W/m² -1,3 °C 0,4 °C 0,0 km/h (0 Bft)
10.01.2018 10:34 0,4 °C 88 % 1013,5 hPa 0,0 mm 0,0 km/h (0 Bft) S-SW 200 ° 0 min 0,000 mm 0,0 UV-I 26 W/m² -1,3 °C 0,4 °C 0,0 km/h (0 Bft)
10.01.2018 10:35 0,4 °C 88 % 1013,5 hPa 0,0 mm 0,0 km/h (0 Bft) S-SW 200 ° 0 min 0,000 mm 0,0 UV-I 26 W/m² -1,3 °C 0,4 °C 0,0 km/h (0 Bft)
10.01.2018 10:36 0,5 °C 88 % 1013,5 hPa 0,0 mm 0,0 km/h (0 Bft) S-SW 200 ° 0 min 0,000 mm 0,0 UV-I 26 W/m² -1,3 °C 0,5 °C 0,0 km/h (0 Bft)
10.01.2018 10:37 0,6 °C 88 % 1013,5 hPa 0,0 mm 0,0 km/h (0 Bft) S-SW 200 ° 0 min 0,000 mm 0,0 UV-I 26 W/m² -1,2 °C 0,6 °C 0,0 km/h (0 Bft)
10.01.2018 10:38 0,6 °C 88 % 1013,5 hPa 0,0 mm 0,0 km/h (0 Bft) S-SW 200 ° 0 min 0,000 mm 0,0 UV-I 26 W/m² -1,2 °C 0,6 °C 0,0 km/h (0 Bft)
10.01.2018 10:39 0,6 °C 88 % 1013,4 hPa 0,0 mm 0,0 km/h (0 Bft) S-SW 200 ° 0 min 0,000 mm 0,0 UV-I 26 W/m² -1,2 °C 0,6 °C 0,0 km/h (0 Bft)
10.01.2018 10:40 0,7 °C 88 % 1013,4 hPa 0,0 mm 0,0 km/h (0 Bft) S-SW 200 ° 0 min 0,000 mm 0,0 UV-I 26 W/m² -1,1 °C 0,7 °C 0,0 km/h (0 Bft)
10.01.2018 10:41 0,7 °C 87 % 1013,4 hPa 0,0 mm 0,0 km/h (0 Bft) S-SW 200 ° 0 min 0,000 mm 0,0 UV-I 26 W/m² -1,2 °C 0,7 °C 0,0 km/h (0 Bft)
10.01.2018 10:42 0,8 °C 88 % 1013,4 hPa 0,0 mm 0,0 km/h (0 Bft) S-SW 200 ° 0 min 0,000 mm 0,0 UV-I 26 W/m² -1,0 °C 0,8 °C 0,0 km/h (0 Bft)
10.01.2018 10:43 0,8 °C 87 % 1013,4 hPa 0,0 mm 0,0 km/h (0 Bft) S-SW 200 ° 0 min 0,000 mm 0,0 UV-I 26 W/m² -1,1 °C 0,8 °C 0,0 km/h (0 Bft)
10.01.2018 10:44 0,8 °C 87 % 1013,4 hPa 0,0 mm 0,0 km/h (0 Bft) S-SW 200 ° 0 min 0,000 mm 0,0 UV-I 26 W/m² -1,1 °C 0,8 °C 0,0 km/h (0 Bft)
10.01.2018 10:45 0,8 °C 87 % 1013,4 hPa 0,0 mm 0,0 km/h (0 Bft) S-SW 200 ° 0 min 0,000 mm 0,0 UV-I 26 W/m² -1,1 °C 0,8 °C 0,0 km/h (0 Bft)
10.01.2018 10:46 0,9 °C 87 % 1013,4 hPa 0,0 mm 0,0 km/h (0 Bft) S-SW 200 ° 0 min 0,000 mm 0,0 UV-I 26 W/m² -1,0 °C 0,9 °C 0,0 km/h (0 Bft)
10.01.2018 10:47 0,9 °C 87 % 1013,4 hPa 0,0 mm 0,0 km/h (0 Bft) S-SW 200 ° 0 min 0,000 mm 0,0 UV-I 26 W/m² -1,0 °C 0,9 °C 0,0 km/h (0 Bft)
10.01.2018 10:48 1,0 °C 87 % 1013,4 hPa 0,0 mm 0,0 km/h (0 Bft) S-SW 200 ° 0 min 0,000 mm 0,0 UV-I 26 W/m² -0,9 °C 1,0 °C 0,0 km/h (0 Bft)
10.01.2018 10:49 1,0 °C 87 % 1013,4 hPa 0,0 mm 0,0 km/h (0 Bft) S-SW 200 ° 0 min 0,000 mm 0,0 UV-I 26 W/m² -0,9 °C 1,0 °C 0,0 km/h (0 Bft)
10.01.2018 10:50 1,1 °C 87 % 1013,4 hPa 0,0 mm 0,0 km/h (0 Bft) S-SW 200 ° 0 min 0,000 mm 0,0 UV-I 26 W/m² -0,8 °C 1,1 °C 0,0 km/h (0 Bft)
10.01.2018 10:51 1,1 °C 87 % 1013,4 hPa 0,0 mm 0,0 km/h (0 Bft) S-SW 200 ° 0 min 0,000 mm 0,0 UV-I 26 W/m² -0,8 °C 1,1 °C 0,0 km/h (0 Bft)
10.01.2018 10:52 1,1 °C 86 % 1013,4 hPa 0,0 mm 0,0 km/h (0 Bft) S-SW 200 ° 0 min 0,000 mm 0,0 UV-I 26 W/m² -1,0 °C 1,1 °C 0,0 km/h (0 Bft)
10.01.2018 10:53 1,2 °C 87 % 1013,3 hPa 0,0 mm 0,0 km/h (0 Bft) S-SW 200 ° 0 min 0,000 mm 0,0 UV-I 26 W/m² -0,7 °C 1,2 °C 0,0 km/h (0 Bft)
10.01.2018 10:54 1,2 °C 87 % 1013,3 hPa 0,0 mm 0,0 km/h (0 Bft) S-SW 200 ° 0 min 0,000 mm 0,0 UV-I 26 W/m² -0,7 °C 1,2 °C 0,0 km/h (0 Bft)
10.01.2018 10:55 1,2 °C 86 % 1013,3 hPa 0,0 mm 0,0 km/h (0 Bft) S-SW 200 ° 0 min 0,000 mm 0,0 UV-I 26 W/m² -0,9 °C 1,2 °C 0,0 km/h (0 Bft)
10.01.2018 10:56 1,3 °C 86 % 1013,3 hPa 0,0 mm 0,0 km/h (0 Bft) S-SW 200 ° 0 min 0,000 mm 0,0 UV-I 26 W/m² -0,8 °C 1,3 °C 0,0 km/h (0 Bft)
10.01.2018 10:57 1,3 °C 86 % 1013,3 hPa 0,0 mm 0,0 km/h (0 Bft) S-SW 200 ° 0 min 0,000 mm 0,0 UV-I 26 W/m² -0,8 °C 1,3 °C 0,0 km/h (0 Bft)
10.01.2018 10:58 1,3 °C 86 % 1013,2 hPa 0,0 mm 0,0 km/h (0 Bft) S-SW 200 ° 0 min 0,000 mm 0,0 UV-I 26 W/m² -0,8 °C 1,3 °C 0,0 km/h (0 Bft)
10.01.2018 10:59 1,3 °C 86 % 1013,2 hPa 0,0 mm 0,0 km/h (0 Bft) S-SW 200 ° 0 min 0,000 mm 0,0 UV-I 26 W/m² -0,8 °C 1,3 °C 0,0 km/h (0 Bft)
10.01.2018 11:00 1,4 °C 86 % 1013,2 hPa 0,0 mm 0,0 km/h (0 Bft) S-SW 200 ° 0 min 0,000 mm 0,0 UV-I 26 W/m² -0,7 °C 1,4 °C 0,0 km/h (0 Bft)
10.01.2018 11:01 1,4 °C 86 % 1013,2 hPa 0,0 mm 0,0 km/h (0 Bft) S-SW 200 ° 0 min 0,000 mm 0,0 UV-I 26 W/m² -0,7 °C 1,4 °C 0,0 km/h (0 Bft)
10.01.2018 11:02 1,5 °C 86 % 1013,2 hPa 0,0 mm 0,0 km/h (0 Bft) S-SW 200 ° 0 min 0,000 mm 0,0 UV-I 26 W/m² -0,6 °C 1,5 °C 0,0 km/h (0 Bft)
10.01.2018 11:03 1,5 °C 86 % 1013,2 hPa 0,0 mm 0,0 km/h (0 Bft) S-SW 200 ° 0 min 0,000 mm 0,0 UV-I 26 W/m² -0,6 °C 1,5 °C 0,0 km/h (0 Bft)
10.01.2018 11:04 1,6 °C 86 % 1013,2 hPa 0,0 mm 0,0 km/h (0 Bft) S-SW 200 ° 0 min 0,000 mm 0,0 UV-I 26 W/m² -0,5 °C 1,6 °C 0,0 km/h (0 Bft)
10.01.2018 11:05 1,6 °C 86 % 1013,2 hPa 0,0 mm 0,0 km/h (0 Bft) S-SW 200 ° 0 min 0,000 mm 0,0 UV-I 28 W/m² -0,5 °C 1,6 °C 0,0 km/h (0 Bft)
10.01.2018 11:06 1,6 °C 86 % 1013,2 hPa 0,0 mm 0,0 km/h (0 Bft) S-SW 200 ° 0 min 0,000 mm 0,0 UV-I 28 W/m² -0,5 °C 1,6 °C 0,0 km/h (0 Bft)
10.01.2018 11:07 1,7 °C 86 % 1013,2 hPa 0,0 mm 0,0 km/h (0 Bft) S-SW 200 ° 0 min 0,000 mm 0,0 UV-I 28 W/m² -0,4 °C 1,7 °C 0,0 km/h (0 Bft)
10.01.2018 11:08 1,7 °C 86 % 1013,1 hPa 0,0 mm 0,0 km/h (0 Bft) S-SW 200 ° 0 min 0,000 mm 0,0 UV-I 28 W/m² -0,4 °C 1,7 °C 0,0 km/h (0 Bft)
10.01.2018 11:09 1,7 °C 86 % 1013,1 hPa 0,0 mm 0,0 km/h (0 Bft) S-SW 200 ° 0 min 0,000 mm 0,0 UV-I 28 W/m² -0,4 °C 1,7 °C 0,0 km/h (0 Bft)
10.01.2018 11:10 1,8 °C 86 % 1013,1 hPa 0,0 mm 0,0 km/h (0 Bft) S-SW 200 ° 0 min 0,000 mm 0,0 UV-I 28 W/m² -0,3 °C 1,8 °C 0,0 km/h (0 Bft)
10.01.2018 11:11 1,8 °C 86 % 1013,1 hPa 0,0 mm 0,2 km/h (0 Bft) S 190 ° 0 min 0,000 mm 0,0 UV-I 28 W/m² -0,3 °C 1,8 °C 1,6 km/h (1 Bft)
10.01.2018 11:12 1,8 °C 87 % 1013,1 hPa 0,0 mm 0,3 km/h (0 Bft) W-SW 242 ° 0 min 0,000 mm 0,0 UV-I 28 W/m² -0,1 °C 1,8 °C 1,6 km/h (1 Bft)
10.01.2018 11:13 1,9 °C 87 % 1013,1 hPa 0,0 mm 0,0 km/h (0 Bft) W-SW 242 ° 0 min 0,000 mm 0,0 UV-I 28 W/m² -0,0 °C 1,9 °C 0,0 km/h (0 Bft)
10.01.2018 11:14 1,9 °C 87 % 1013,1 hPa 0,0 mm 0,0 km/h (0 Bft) W-SW 242 ° 0 min 0,000 mm 0,0 UV-I 28 W/m² -0,0 °C 1,9 °C 0,0 km/h (0 Bft)
10.01.2018 11:15 2,0 °C 87 % 1013,1 hPa 0,0 mm 0,0 km/h (0 Bft) W-SW 242 ° 0 min 0,000 mm 0,0 UV-I 28 W/m² 0,1 °C 2,0 °C 0,0 km/h (0 Bft)
10.01.2018 11:16 2,1 °C 87 % 1013,0 hPa 0,0 mm 0,3 km/h (0 Bft) SW 220 ° 0 min 0,000 mm 0,0 UV-I 28 W/m² 0,2 °C 2,1 °C 3,2 km/h (1 Bft)
10.01.2018 11:17 2,1 °C 87 % 1013,0 hPa 0,0 mm 1,0 km/h (0 Bft) SW 220 ° 0 min 0,000 mm 0,0 UV-I 28 W/m² 0,2 °C 2,1 °C 3,2 km/h (1 Bft)
10.01.2018 11:18 2,2 °C 87 % 1013,0 hPa 0,0 mm 0,7 km/h (0 Bft) W-NW 290 ° 0 min 0,000 mm 0,0 UV-I 28 W/m² 0,3 °C 2,2 °C 3,2 km/h (1 Bft)
10.01.2018 11:19 2,2 °C 87 % 1013,0 hPa 0,0 mm 2,6 km/h (1 Bft) W-NW 291 ° 0 min 0,000 mm 0,0 UV-I 28 W/m² 0,3 °C 2,2 °C 4,8 km/h (1 Bft)
10.01.2018 11:20 2,3 °C 87 % 1012,9 hPa 0,0 mm 1,5 km/h (1 Bft) W-NW 291 ° 0 min 0,000 mm 0,0 UV-I 28 W/m² 0,4 °C 2,3 °C 3,2 km/h (1 Bft)
10.01.2018 11:21 2,3 °C 87 % 1012,9 hPa 0,0 mm 1,1 km/h (1 Bft) W-NW 291 ° 0 min 0,000 mm 0,0 UV-I 28 W/m² 0,4 °C 2,3 °C 1,6 km/h (1 Bft)
10.01.2018 11:22 2,3 °C 87 % 1012,9 hPa 0,0 mm 1,1 km/h (1 Bft) W-NW 291 ° 0 min 0,000 mm 0,0 UV-I 28 W/m² 0,4 °C 2,3 °C 3,2 km/h (1 Bft)
10.01.2018 11:23 2,4 °C 87 % 1012,9 hPa 0,0 mm 2,3 km/h (1 Bft) W-NW 296 ° 0 min 0,000 mm 0,0 UV-I 28 W/m² 0,5 °C 2,4 °C 3,2 km/h (1 Bft)
10.01.2018 11:24 2,4 °C 87 % 1012,9 hPa 0,0 mm 1,0 km/h (0 Bft) W-NW 296 ° 0 min 0,000 mm 0,0 UV-I 28 W/m² 0,5 °C 2,4 °C 3,2 km/h (1 Bft)
10.01.2018 11:25 2,5 °C 87 % 1012,9 hPa 0,0 mm 4,4 km/h (1 Bft) NW 314 ° 0 min 0,000 mm 0,0 UV-I 28 W/m² 0,6 °C 2,5 °C 6,4 km/h (2 Bft)
10.01.2018 11:26 2,6 °C 86 % 1012,8 hPa 0,0 mm 4,1 km/h (1 Bft) W-NW 282 ° 0 min 0,000 mm 0,0 UV-I 28 W/m² 0,5 °C 2,6 °C 6,4 km/h (2 Bft)
10.01.2018 11:27 2,6 °C 87 % 1012,8 hPa 0,0 mm 2,9 km/h (1 Bft) W 280 ° 0 min 0,000 mm 0,0 UV-I 28 W/m² 0,7 °C 2,6 °C 6,4 km/h (2 Bft)
10.01.2018 11:28 2,6 °C 86 % 1012,8 hPa 0,0 mm 2,7 km/h (1 Bft) W-NW 298 ° 0 min 0,000 mm 0,0 UV-I 28 W/m² 0,5 °C 2,6 °C 4,8 km/h (1 Bft)
10.01.2018 11:29 2,7 °C 86 % 1012,8 hPa 0,0 mm 4,7 km/h (1 Bft) W 267 ° 0 min 0,000 mm 0,0 UV-I 28 W/m² 0,6 °C 1,6 °C 9,7 km/h (2 Bft)
10.01.2018 11:30 2,7 °C 86 % 1012,8 hPa 0,0 mm 3,5 km/h (1 Bft) W-NW 286 ° 0 min 0,000 mm 0,0 UV-I 28 W/m² 0,6 °C 2,7 °C 4,8 km/h (1 Bft)
10.01.2018 11:31 2,8 °C 86 % 1012,8 hPa 0,0 mm 4,3 km/h (1 Bft) W-NW 292 ° 0 min 0,000 mm 0,0 UV-I 28 W/m² 0,7 °C 2,8 °C 6,4 km/h (2 Bft)
10.01.2018 11:32 2,9 °C 86 % 1012,8 hPa 0,0 mm 5,6 km/h (1 Bft) W 279 ° 0 min 0,000 mm 0,0 UV-I 28 W/m² 0,8 °C 1,5 °C 6,4 km/h (2 Bft)
10.01.2018 11:33 2,9 °C 86 % 1012,8 hPa 0,0 mm 4,1 km/h (1 Bft) W-NW 290 ° 0 min 0,000 mm 0,0 UV-I 28 W/m² 0,8 °C 2,9 °C 4,8 km/h (1 Bft)
10.01.2018 11:34 3,1 °C 86 % 1012,8 hPa 0,0 mm 3,9 km/h (1 Bft) W 267 ° 0 min 0,000 mm 0,0 UV-I 28 W/m² 1,0 °C 3,1 °C 4,8 km/h (1 Bft)
10.01.2018 11:35 3,1 °C 86 % 1012,8 hPa 0,0 mm 6,4 km/h (2 Bft) W-NW 289 ° 0 min 0,000 mm 0,0 UV-I 28 W/m² 1,0 °C 1,4 °C 11,3 km/h (2 Bft)
10.01.2018 11:36 3,2 °C 85 % 1012,8 hPa 0,0 mm 0,7 km/h (0 Bft) W-NW 289 ° 0 min 0,000 mm 0,0 UV-I 28 W/m² 0,9 °C 3,2 °C 3,2 km/h (1 Bft)
10.01.2018 11:37 3,2 °C 85 % 1012,8 hPa 0,0 mm 2,2 km/h (1 Bft) W-NW 289 ° 0 min 0,000 mm 0,0 UV-I 30 W/m² 0,9 °C 3,2 °C 3,2 km/h (1 Bft)
10.01.2018 11:38 3,3 °C 85 % 1012,8 hPa 0,0 mm 3,5 km/h (1 Bft) W 273 ° 0 min 0,000 mm 0,0 UV-I 30 W/m² 1,0 °C 3,3 °C 6,4 km/h (2 Bft)
10.01.2018 11:39 3,3 °C 85 % 1012,8 hPa 0,0 mm 4,9 km/h (1 Bft) W-NW 296 ° 0 min 0,000 mm 0,0 UV-I 30 W/m² 1,0 °C 2,2 °C 8,0 km/h (2 Bft)
10.01.2018 11:40 3,3 °C 85 % 1012,8 hPa 0,0 mm 6,8 km/h (2 Bft) W-NW 297 ° 0 min 0,000 mm 0,0 UV-I 30 W/m² 1,0 °C 1,5 °C 11,3 km/h (2 Bft)
10.01.2018 11:41 3,4 °C 85 % 1012,6 hPa 0,0 mm 6,2 km/h (2 Bft) W 279 ° 0 min 0,000 mm 0,0 UV-I 30 W/m² 1,1 °C 1,8 °C 11,3 km/h (2 Bft)
10.01.2018 11:42 3,6 °C 84 % 1012,6 hPa 0,0 mm 4,0 km/h (1 Bft) W-NW 283 ° 0 min 0,000 mm 0,0 UV-I 30 W/m² 1,2 °C 3,6 °C 6,4 km/h (2 Bft)
10.01.2018 11:43 3,6 °C 84 % 1012,6 hPa 0,0 mm 3,2 km/h (1 Bft) NW 306 ° 0 min 0,000 mm 0,0 UV-I 30 W/m² 1,2 °C 3,6 °C 4,8 km/h (1 Bft)
10.01.2018 11:44 3,6 °C 84 % 1012,6 hPa 0,0 mm 2,7 km/h (1 Bft) W-NW 290 ° 0 min 0,000 mm 0,0 UV-I 30 W/m² 1,2 °C 3,6 °C 4,8 km/h (1 Bft)
10.01.2018 11:45 3,7 °C 84 % 1012,6 hPa 0,0 mm 3,2 km/h (1 Bft) W-NW 284 ° 0 min 0,000 mm 0,0 UV-I 30 W/m² 1,3 °C 3,7 °C 4,8 km/h (1 Bft)
10.01.2018 11:46 3,7 °C 84 % 1012,6 hPa 0,0 mm 2,5 km/h (1 Bft) W-NW 288 ° 0 min 0,000 mm 0,0 UV-I 30 W/m² 1,3 °C 3,7 °C 4,8 km/h (1 Bft)
10.01.2018 11:47 3,8 °C 83 % 1012,6 hPa 0,0 mm 2,6 km/h (1 Bft) W-NW 296 ° 0 min 0,000 mm 0,0 UV-I 32 W/m² 1,2 °C 3,8 °C 4,8 km/h (1 Bft)
10.01.2018 11:48 3,8 °C 83 % 1012,6 hPa 0,0 mm 1,0 km/h (0 Bft) W-NW 296 ° 0 min 0,000 mm 0,0 UV-I 32 W/m² 1,2 °C 3,8 °C 1,6 km/h (1 Bft)
10.01.2018 11:49 3,9 °C 83 % 1012,6 hPa 0,0 mm 3,0 km/h (1 Bft) W 277 ° 0 min 0,000 mm 0,0 UV-I 32 W/m² 1,3 °C 3,9 °C 4,8 km/h (1 Bft)
10.01.2018 11:50 3,9 °C 83 % 1012,5 hPa 0,0 mm 4,5 km/h (1 Bft) W-SW 254 ° 0 min 0,000 mm 0,0 UV-I 32 W/m² 1,3 °C 3,9 °C 6,4 km/h (2 Bft)
10.01.2018 11:51 3,9 °C 83 % 1012,5 hPa 0,0 mm 3,8 km/h (1 Bft) W 260 ° 0 min 0,000 mm 0,0 UV-I 32 W/m² 1,3 °C 3,9 °C 6,4 km/h (2 Bft)
10.01.2018 11:52 4,0 °C 83 % 1012,4 hPa 0,0 mm 3,6 km/h (1 Bft) W 273 ° 0 min 0,000 mm 0,0 UV-I 32 W/m² 1,4 °C 4,0 °C 4,8 km/h (1 Bft)
10.01.2018 11:53 4,0 °C 83 % 1012,4 hPa 0,0 mm 2,2 km/h (1 Bft) W 274 ° 0 min 0,000 mm 0,0 UV-I 32 W/m² 1,4 °C 4,0 °C 3,2 km/h (1 Bft)
10.01.2018 11:54 4,0 °C 83 % 1012,4 hPa 0,0 mm 3,2 km/h (1 Bft) W 274 ° 0 min 0,000 mm 0,0 UV-I 32 W/m² 1,4 °C 4,0 °C 4,8 km/h (1 Bft)
10.01.2018 11:55 4,1 °C 82 % 1012,4 hPa 0,0 mm 1,2 km/h (1 Bft) W 274 ° 0 min 0,000 mm 0,0 UV-I 33 W/m² 1,3 °C 4,1 °C 4,8 km/h (1 Bft)
10.01.2018 11:56 4,1 °C 82 % 1012,4 hPa 0,0 mm 1,7 km/h (1 Bft) W 274 ° 0 min 0,000 mm 0,0 UV-I 33 W/m² 1,3 °C 4,1 °C 4,8 km/h (1 Bft)
10.01.2018 11:57 4,1 °C 82 % 1012,3 hPa 0,0 mm 0,6 km/h (0 Bft) W 274 ° 0 min 0,000 mm 0,0 UV-I 33 W/m² 1,3 °C 4,1 °C 3,2 km/h (1 Bft)
10.01.2018 11:58 4,2 °C 82 % 1012,3 hPa 0,0 mm 0,3 km/h (0 Bft) W 274 ° 0 min 0,000 mm 0,0 UV-I 33 W/m² 1,4 °C 4,2 °C 1,6 km/h (1 Bft)
10.01.2018 11:59 4,2 °C 82 % 1012,3 hPa 0,0 mm 0,7 km/h (0 Bft) W 274 ° 0 min 0,000 mm 0,0 UV-I 33 W/m² 1,4 °C 4,2 °C 1,6 km/h (1 Bft)
10.01.2018 12:00 4,2 °C 82 % 1012,3 hPa 0,0 mm 2,3 km/h (1 Bft) W 274 ° 0 min 0,000 mm 0,0 UV-I 33 W/m² 1,4 °C 4,2 °C 4,8 km/h (1 Bft)
10.01.2018 12:01 4,2 °C 82 % 1012,2 hPa 0,0 mm 2,0 km/h (1 Bft) W 274 ° 0 min 0,000 mm 0,0 UV-I 33 W/m² 1,4 °C 4,2 °C 3,2 km/h (1 Bft)
10.01.2018 12:02 4,2 °C 82 % 1012,2 hPa 0,0 mm 2,0 km/h (1 Bft) W 274 ° 0 min 0,000 mm 0,0 UV-I 39 W/m² 1,4 °C 4,2 °C 3,2 km/h (1 Bft)
10.01.2018 12:03 4,2 °C 82 % 1012,2 hPa 0,0 mm 1,7 km/h (1 Bft) W 274 ° 0 min 0,000 mm 0,0 UV-I 39 W/m² 1,4 °C 4,2 °C 3,2 km/h (1 Bft)
10.01.2018 12:04 4,3 °C 82 % 1012,2 hPa 0,0 mm 2,1 km/h (1 Bft) W 274 ° 0 min 0,000 mm 0,0 UV-I 35 W/m² 1,5 °C 4,3 °C 3,2 km/h (1 Bft)
10.01.2018 12:05 4,3 °C 81 % 1012,1 hPa 0,0 mm 2,5 km/h (1 Bft) W 274 ° 0 min 0,000 mm 0,0 UV-I 35 W/m² 1,3 °C 4,3 °C 4,8 km/h (1 Bft)
10.01.2018 12:06 4,3 °C 81 % 1012,1 hPa 0,0 mm 0,8 km/h (0 Bft) W 274 ° 0 min 0,000 mm 0,0 UV-I 35 W/m² 1,3 °C 4,3 °C 1,6 km/h (1 Bft)
10.01.2018 12:07 4,4 °C 81 % 1012,1 hPa 0,0 mm 3,4 km/h (1 Bft) W 275 ° 0 min 0,000 mm 0,0 UV-I 35 W/m² 1,4 °C 4,4 °C 4,8 km/h (1 Bft)
10.01.2018 12:08 4,4 °C 81 % 1012,1 hPa 0,0 mm 2,0 km/h (1 Bft) W 275 ° 0 min 0,000 mm 0,0 UV-I 35 W/m² 1,4 °C 4,4 °C 4,8 km/h (1 Bft)
10.01.2018 12:09 4,5 °C 81 % 1012,1 hPa 0,0 mm 4,4 km/h (1 Bft) W 275 ° 0 min 0,000 mm 0,0 UV-I 35 W/m² 1,5 °C 4,5 °C 6,4 km/h (2 Bft)
10.01.2018 12:10 4,6 °C 80 % 1012,1 hPa 0,0 mm 2,9 km/h (1 Bft) W 275 ° 0 min 0,000 mm 0,0 UV-I 35 W/m² 1,5 °C 4,6 °C 4,8 km/h (1 Bft)
10.01.2018 12:11 4,5 °C 80 % 1012,1 hPa 0,0 mm 4,2 km/h (1 Bft) W 278 ° 0 min 0,000 mm 0,0 UV-I 37 W/m² 1,4 °C 4,5 °C 6,4 km/h (2 Bft)
10.01.2018 12:12 4,5 °C 80 % 1012,0 hPa 0,0 mm 1,9 km/h (1 Bft) W 278 ° 0 min 0,000 mm 0,0 UV-I 42 W/m² 1,4 °C 4,5 °C 4,8 km/h (1 Bft)
10.01.2018 12:13 4,6 °C 80 % 1012,0 hPa 0,0 mm 1,4 km/h (1 Bft) W 278 ° 0 min 0,000 mm 0,0 UV-I 42 W/m² 1,5 °C 4,6 °C 3,2 km/h (1 Bft)
10.01.2018 12:14 4,6 °C 80 % 1012,0 hPa 0,0 mm 0,7 km/h (0 Bft) W 278 ° 0 min 0,000 mm 0,0 UV-I 37 W/m² 1,5 °C 4,6 °C 1,6 km/h (1 Bft)
10.01.2018 12:15 4,7 °C 80 % 1012,0 hPa 0,0 mm 0,5 km/h (0 Bft) W 278 ° 0 min 0,000 mm 0,0 UV-I 35 W/m² 1,6 °C 4,7 °C 1,6 km/h (1 Bft)
10.01.2018 12:16 4,7 °C 80 % 1011,9 hPa 0,0 mm 0,0 km/h (0 Bft) W 278 ° 0 min 0,000 mm 0,0 UV-I 35 W/m² 1,6 °C 4,7 °C 0,0 km/h (0 Bft)
10.01.2018 12:17 4,7 °C 79 % 1011,9 hPa 0,0 mm 0,0 km/h (0 Bft) W 278 ° 0 min 0,000 mm 0,0 UV-I 39 W/m² 1,4 °C 4,7 °C 0,0 km/h (0 Bft)
10.01.2018 12:18 4,7 °C 79 % 1011,9 hPa 0,0 mm 1,1 km/h (1 Bft) W 278 ° 0 min 0,000 mm 0,0 UV-I 37 W/m² 1,4 °C 4,7 °C 3,2 km/h (1 Bft)
10.01.2018 12:19 4,7 °C 79 % 1011,9 hPa 0,0 mm 0,1 km/h (0 Bft) W 278 ° 0 min 0,000 mm 0,0 UV-I 35 W/m² 1,4 °C 4,7 °C 1,6 km/h (1 Bft)
10.01.2018 12:20 4,8 °C 79 % 1011,9 hPa 0,0 mm 0,0 km/h (0 Bft) W 278 ° 0 min 0,000 mm 0,0 UV-I 35 W/m² 1,5 °C 4,8 °C 0,0 km/h (0 Bft)
10.01.2018 12:21 4,8 °C 79 % 1011,9 hPa 0,0 mm 0,0 km/h (0 Bft) W 278 ° 0 min 0,000 mm 0,0 UV-I 35 W/m² 1,5 °C 4,8 °C 0,0 km/h (0 Bft)
10.01.2018 12:22 4,8 °C 79 % 1011,8 hPa 0,0 mm 0,5 km/h (0 Bft) W 278 ° 0 min 0,000 mm 0,0 UV-I 35 W/m² 1,5 °C 4,8 °C 1,6 km/h (1 Bft)
10.01.2018 12:23 4,9 °C 79 % 1011,8 hPa 0,0 mm 0,0 km/h (0 Bft) W 278 ° 0 min 0,000 mm 0,0 UV-I 35 W/m² 1,6 °C 4,9 °C 0,0 km/h (0 Bft)
10.01.2018 12:24 4,9 °C 78 % 1011,8 hPa 0,0 mm 0,0 km/h (0 Bft) W 278 ° 0 min 0,000 mm 0,0 UV-I 35 W/m² 1,4 °C 4,9 °C 0,0 km/h (0 Bft)
10.01.2018 12:25 4,9 °C 78 % 1011,8 hPa 0,0 mm 0,0 km/h (0 Bft) W 278 ° 0 min 0,000 mm 0,0 UV-I 35 W/m² 1,4 °C 4,9 °C 0,0 km/h (0 Bft)
10.01.2018 12:26 4,9 °C 78 % 1011,8 hPa 0,0 mm 0,0 km/h (0 Bft) W 278 ° 0 min 0,000 mm 0,0 UV-I 35 W/m² 1,4 °C 4,9 °C 0,0 km/h (0 Bft)
10.01.2018 12:27 4,9 °C 78 % 1011,8 hPa 0,0 mm 0,0 km/h (0 Bft) W 278 ° 0 min 0,000 mm 0,0 UV-I 35 W/m² 1,4 °C 4,9 °C 0,0 km/h (0 Bft)
10.01.2018 12:28 4,9 °C 78 % 1011,7 hPa 0,0 mm 0,0 km/h (0 Bft) W 278 ° 0 min 0,000 mm 0,0 UV-I 35 W/m² 1,4 °C 4,9 °C 0,0 km/h (0 Bft)
10.01.2018 12:29 4,9 °C 78 % 1011,7 hPa 0,0 mm 0,0 km/h (0 Bft) W 278 ° 0 min 0,000 mm 0,0 UV-I 35 W/m² 1,4 °C 4,9 °C 0,0 km/h (0 Bft)
10.01.2018 12:30 4,9 °C 78 % 1011,8 hPa 0,0 mm 1,6 km/h (1 Bft) W 278 ° 0 min 0,000 mm 0,0 UV-I 37 W/m² 1,4 °C 4,9 °C 3,2 km/h (1 Bft)
10.01.2018 12:31 5,0 °C 78 % 1011,7 hPa 0,0 mm 2,8 km/h (1 Bft) W 278 ° 0 min 0,000 mm 0,0 UV-I 37 W/m² 1,5 °C 5,0 °C 3,2 km/h (1 Bft)
10.01.2018 12:32 5,0 °C 78 % 1011,7 hPa 0,0 mm 1,4 km/h (1 Bft) W 278 ° 0 min 0,000 mm 0,0 UV-I 37 W/m² 1,5 °C 5,0 °C 3,2 km/h (1 Bft)
10.01.2018 12:33 5,0 °C 78 % 1011,7 hPa 0,0 mm 1,0 km/h (0 Bft) W 278 ° 0 min 0,000 mm 0,0 UV-I 37 W/m² 1,5 °C 5,0 °C 1,6 km/h (1 Bft)
10.01.2018 12:34 5,0 °C 78 % 1011,7 hPa 0,0 mm 0,5 km/h (0 Bft) W 278 ° 0 min 0,000 mm 0,0 UV-I 37 W/m² 1,5 °C 5,0 °C 1,6 km/h (1 Bft)
10.01.2018 12:35 5,1 °C 78 % 1011,7 hPa 0,0 mm 2,6 km/h (1 Bft) W 278 ° 0 min 0,000 mm 0,0 UV-I 39 W/m² 1,6 °C 5,1 °C 4,8 km/h (1 Bft)
10.01.2018 12:36 5,0 °C 78 % 1011,7 hPa 0,0 mm 1,9 km/h (1 Bft) W 278 ° 0 min 0,000 mm 0,0 UV-I 39 W/m² 1,5 °C 5,0 °C 3,2 km/h (1 Bft)
10.01.2018 12:37 5,1 °C 78 % 1011,7 hPa 0,0 mm 3,1 km/h (1 Bft) W 279 ° 0 min 0,000 mm 0,0 UV-I 39 W/m² 1,6 °C 5,1 °C 4,8 km/h (1 Bft)
10.01.2018 12:38 5,1 °C 78 % 1011,6 hPa 0,0 mm 0,0 km/h (0 Bft) W 279 ° 0 min 0,000 mm 0,0 UV-I 40 W/m² 1,6 °C 5,1 °C 0,0 km/h (0 Bft)
10.01.2018 12:39 5,2 °C 78 % 1011,6 hPa 0,0 mm 0,0 km/h (0 Bft) W 279 ° 0 min 0,000 mm 0,0 UV-I 49 W/m² 1,7 °C 5,2 °C 0,0 km/h (0 Bft)
10.01.2018 12:40 5,2 °C 78 % 1011,6 hPa 0,0 mm 0,0 km/h (0 Bft) W 279 ° 0 min 0,000 mm 0,9 UV-I 58 W/m² 1,7 °C 5,2 °C 0,0 km/h (0 Bft)
10.01.2018 12:41 5,1 °C 78 % 1011,6 hPa 0,0 mm 0,0 km/h (0 Bft) W 279 ° 0 min 0,000 mm 0,9 UV-I 63 W/m² 1,6 °C 5,1 °C 0,0 km/h (0 Bft)
10.01.2018 12:42 5,1 °C 78 % 1011,6 hPa 0,0 mm 0,3 km/h (0 Bft) W 279 ° 0 min 0,000 mm 0,9 UV-I 62 W/m² 1,6 °C 5,1 °C 3,2 km/h (1 Bft)
10.01.2018 12:43 5,1 °C 78 % 1011,6 hPa 0,0 mm 1,0 km/h (0 Bft) W-NW 282 ° 0 min 0,000 mm 0,0 UV-I 44 W/m² 1,6 °C 5,1 °C 3,2 km/h (1 Bft)
10.01.2018 12:44 4,9 °C 78 % 1011,6 hPa 0,0 mm 1,4 km/h (1 Bft) W-NW 282 ° 0 min 0,000 mm 0,0 UV-I 44 W/m² 1,4 °C 4,9 °C 3,2 km/h (1 Bft)
10.01.2018 12:45 4,9 °C 78 % 1011,5 hPa 0,0 mm 0,5 km/h (0 Bft) W-NW 284 ° 0 min 0,000 mm 0,0 UV-I 44 W/m² 1,4 °C 4,9 °C 3,2 km/h (1 Bft)
10.01.2018 12:46 4,9 °C 79 % 1011,5 hPa 0,0 mm 1,9 km/h (1 Bft) W-NW 284 ° 0 min 0,000 mm 0,0 UV-I 44 W/m² 1,6 °C 4,9 °C 3,2 km/h (1 Bft)
10.01.2018 12:47 5,0 °C 79 % 1011,5 hPa 0,0 mm 1,7 km/h (1 Bft) W-NW 284 ° 0 min 0,000 mm 0,0 UV-I 46 W/m² 1,7 °C 5,0 °C 3,2 km/h (1 Bft)
10.01.2018 12:48 5,0 °C 78 % 1011,5 hPa 0,0 mm 1,2 km/h (1 Bft) W-NW 284 ° 0 min 0,000 mm 0,0 UV-I 46 W/m² 1,5 °C 5,0 °C 3,2 km/h (1 Bft)
10.01.2018 12:49 5,0 °C 79 % 1011,5 hPa 0,0 mm 0,5 km/h (0 Bft) W-NW 284 ° 0 min 0,000 mm 0,0 UV-I 47 W/m² 1,7 °C 5,0 °C 1,6 km/h (1 Bft)
10.01.2018 12:50 5,0 °C 78 % 1011,5 hPa 0,0 mm 2,8 km/h (1 Bft) W-NW 284 ° 0 min 0,000 mm 0,0 UV-I 47 W/m² 1,5 °C 5,0 °C 3,2 km/h (1 Bft)
10.01.2018 12:51 5,1 °C 79 % 1011,5 hPa 0,0 mm 0,2 km/h (0 Bft) W-NW 284 ° 0 min 0,000 mm 0,0 UV-I 49 W/m² 1,8 °C 5,1 °C 1,6 km/h (1 Bft)
10.01.2018 12:52 5,2 °C 79 % 1011,4 hPa 0,0 mm 0,0 km/h (0 Bft) W-NW 284 ° 0 min 0,000 mm 0,0 UV-I 49 W/m² 1,9 °C 5,2 °C 0,0 km/h (0 Bft)
10.01.2018 12:53 5,3 °C 78 % 1011,5 hPa 0,0 mm 1,0 km/h (0 Bft) NW 311 ° 0 min 0,000 mm 0,0 UV-I 51 W/m² 1,8 °C 5,3 °C 3,2 km/h (1 Bft)
10.01.2018 12:54 5,4 °C 78 % 1011,5 hPa 0,0 mm 0,7 km/h (0 Bft) NW 311 ° 0 min 0,000 mm 0,0 UV-I 53 W/m² 1,9 °C 5,4 °C 1,6 km/h (1 Bft)
10.01.2018 12:55 5,4 °C 77 % 1011,5 hPa 0,0 mm 2,0 km/h (1 Bft) NW 311 ° 0 min 0,000 mm 0,0 UV-I 53 W/m² 1,7 °C 5,4 °C 4,8 km/h (1 Bft)
10.01.2018 12:56 5,4 °C 77 % 1011,4 hPa 0,0 mm 1,3 km/h (1 Bft) NW 311 ° 0 min 0,000 mm 0,0 UV-I 53 W/m² 1,7 °C 5,4 °C 3,2 km/h (1 Bft)
10.01.2018 12:57 5,4 °C 77 % 1011,4 hPa 0,0 mm 0,0 km/h (0 Bft) NW 311 ° 0 min 0,000 mm 0,0 UV-I 54 W/m² 1,7 °C 5,4 °C 0,0 km/h (0 Bft)
10.01.2018 12:58 5,4 °C 77 % 1011,4 hPa 0,0 mm 0,0 km/h (0 Bft) NW 311 ° 0 min 0,000 mm 0,0 UV-I 54 W/m² 1,7 °C 5,4 °C 0,0 km/h (0 Bft)
10.01.2018 12:59 5,5 °C 77 % 1011,4 hPa 0,0 mm 0,0 km/h (0 Bft) NW 311 ° 0 min 0,000 mm 0,9 UV-I 56 W/m² 1,8 °C 5,5 °C 0,0 km/h (0 Bft)
10.01.2018 13:00 5,6 °C 77 % 1011,4 hPa 0,0 mm 0,1 km/h (0 Bft) NW 311 ° 0 min 0,000 mm 0,9 UV-I 56 W/m² 1,9 °C 5,6 °C 1,6 km/h (1 Bft)
10.01.2018 13:01 5,4 °C 76 % 1011,3 hPa 0,0 mm 0,6 km/h (0 Bft) NW 311 ° 0 min 0,026 mm 0,9 UV-I 56 W/m² 1,5 °C 5,4 °C 3,2 km/h (1 Bft)
10.01.2018 13:02 5,2 °C 77 % 1011,3 hPa 0,0 mm 0,0 km/h (0 Bft) NW 311 ° 0 min 0,000 mm 0,9 UV-I 56 W/m² 1,5 °C 5,2 °C 0,0 km/h (0 Bft)
10.01.2018 13:03 5,1 °C 77 % 1011,4 hPa 0,0 mm 0,0 km/h (0 Bft) NW 311 ° 0 min 0,000 mm 0,9 UV-I 56 W/m² 1,4 °C 5,1 °C 0,0 km/h (0 Bft)
10.01.2018 13:04 5,1 °C 78 % 1011,3 hPa 0,0 mm 0,0 km/h (0 Bft) NW 311 ° 0 min 0,000 mm 0,9 UV-I 56 W/m² 1,6 °C 5,1 °C 0,0 km/h (0 Bft)
10.01.2018 13:05 5,1 °C 79 % 1011,4 hPa 0,0 mm 0,0 km/h (0 Bft) NW 311 ° 0 min 0,000 mm 0,9 UV-I 56 W/m² 1,8 °C 5,1 °C 0,0 km/h (0 Bft)
10.01.2018 13:06 5,2 °C 78 % 1011,3 hPa 0,0 mm 0,0 km/h (0 Bft) NW 311 ° 0 min 0,000 mm 0,0 UV-I 54 W/m² 1,7 °C 5,2 °C 0,0 km/h (0 Bft)
10.01.2018 13:07 5,2 °C 78 % 1011,3 hPa 0,0 mm 0,7 km/h (0 Bft) NW 311 ° 0 min 0,000 mm 0,0 UV-I 54 W/m² 1,7 °C 5,2 °C 3,2 km/h (1 Bft)
10.01.2018 13:08 5,4 °C 78 % 1011,3 hPa 0,0 mm 2,2 km/h (1 Bft) NW 311 ° 0 min 0,000 mm 0,0 UV-I 54 W/m² 1,9 °C 5,4 °C 3,2 km/h (1 Bft)
10.01.2018 13:09 5,4 °C 78 % 1011,3 hPa 0,0 mm 1,2 km/h (1 Bft) NW 311 ° 0 min 0,000 mm 0,0 UV-I 54 W/m² 1,9 °C 5,4 °C 3,2 km/h (1 Bft)
10.01.2018 13:10 5,6 °C 77 % 1011,3 hPa 0,0 mm 0,5 km/h (0 Bft) NW 311 ° 0 min 0,000 mm 0,0 UV-I 54 W/m² 1,9 °C 5,6 °C 1,6 km/h (1 Bft)
10.01.2018 13:11 5,6 °C 77 % 1011,3 hPa 0,0 mm 0,0 km/h (0 Bft) NW 311 ° 0 min 0,000 mm 0,0 UV-I 54 W/m² 1,9 °C 5,6 °C 0,0 km/h (0 Bft)
10.01.2018 13:12 5,6 °C 77 % 1011,3 hPa 0,0 mm 0,0 km/h (0 Bft) NW 311 ° 0 min 0,000 mm 0,0 UV-I 54 W/m² 1,9 °C 5,6 °C 0,0 km/h (0 Bft)
10.01.2018 13:13 5,6 °C 77 % 1011,2 hPa 0,0 mm 0,0 km/h (0 Bft) NW 311 ° 0 min 0,000 mm 0,0 UV-I 54 W/m² 1,9 °C 5,6 °C 0,0 km/h (0 Bft)
10.01.2018 13:14 5,4 °C 77 % 1011,2 hPa 0,0 mm 0,0 km/h (0 Bft) NW 311 ° 0 min 0,000 mm 0,0 UV-I 54 W/m² 1,7 °C 5,4 °C 0,0 km/h (0 Bft)
10.01.2018 13:15 5,4 °C 77 % 1011,2 hPa 0,0 mm 0,8 km/h (0 Bft) NW 311 ° 0 min 0,000 mm 0,0 UV-I 54 W/m² 1,7 °C 5,4 °C 1,6 km/h (1 Bft)
10.01.2018 13:16 5,4 °C 77 % 1011,2 hPa 0,0 mm 0,0 km/h (0 Bft) NW 311 ° 0 min 0,000 mm 0,0 UV-I 54 W/m² 1,7 °C 5,4 °C 0,0 km/h (0 Bft)
10.01.2018 13:17 5,4 °C 78 % 1011,2 hPa 0,0 mm 0,0 km/h (0 Bft) NW 311 ° 0 min 0,000 mm 0,0 UV-I 53 W/m² 1,9 °C 5,4 °C 0,0 km/h (0 Bft)
10.01.2018 13:18 5,3 °C 78 % 1011,2 hPa 0,0 mm 0,0 km/h (0 Bft) NW 311 ° 0 min 0,000 mm 0,0 UV-I 53 W/m² 1,8 °C 5,3 °C 0,0 km/h (0 Bft)
10.01.2018 13:19 5,3 °C 78 % 1011,2 hPa 0,0 mm 0,0 km/h (0 Bft) NW 311 ° 0 min 0,000 mm 0,0 UV-I 53 W/m² 1,8 °C 5,3 °C 0,0 km/h (0 Bft)
10.01.2018 13:20 5,3 °C 78 % 1011,2 hPa 0,0 mm 0,0 km/h (0 Bft) NW 311 ° 0 min 0,000 mm 0,0 UV-I 54 W/m² 1,8 °C 5,3 °C 0,0 km/h (0 Bft)
10.01.2018 13:21 5,3 °C 78 % 1011,1 hPa 0,0 mm 0,0 km/h (0 Bft) W 265 ° 0 min 0,000 mm 0,0 UV-I 53 W/m² 1,8 °C 5,3 °C 0,0 km/h (0 Bft)
10.01.2018 13:22 5,3 °C 78 % 1011,1 hPa 0,0 mm 0,0 km/h (0 Bft) W 265 ° 0 min 0,000 mm 0,0 UV-I 53 W/m² 1,8 °C 5,3 °C 0,0 km/h (0 Bft)
10.01.2018 13:23 5,3 °C 78 % 1011,1 hPa 0,0 mm 0,0 km/h (0 Bft) W 265 ° 0 min 0,000 mm 0,0 UV-I 53 W/m² 1,8 °C 5,3 °C 0,0 km/h (0 Bft)
10.01.2018 13:24 5,4 °C 78 % 1011,1 hPa 0,0 mm 0,0 km/h (0 Bft) W 265 ° 0 min 0,000 mm 0,0 UV-I 53 W/m² 1,9 °C 5,4 °C 0,0 km/h (0 Bft)
10.01.2018 13:25 5,5 °C 78 % 1011,1 hPa 0,0 mm 0,0 km/h (0 Bft) W 265 ° 0 min 0,000 mm 0,0 UV-I 53 W/m² 2,0 °C 5,5 °C 0,0 km/h (0 Bft)
10.01.2018 13:26 5,6 °C 77 % 1011,1 hPa 0,0 mm 2,2 km/h (1 Bft) W-NW 290 ° 0 min 0,000 mm 0,0 UV-I 53 W/m² 1,9 °C 5,6 °C 4,8 km/h (1 Bft)
10.01.2018 13:27 5,6 °C 77 % 1011,1 hPa 0,0 mm 2,4 km/h (1 Bft) W-NW 290 ° 0 min 0,000 mm 0,0 UV-I 53 W/m² 1,9 °C 5,6 °C 4,8 km/h (1 Bft)
10.01.2018 13:28 5,7 °C 78 % 1011,1 hPa 0,0 mm 3,2 km/h (1 Bft) W-NW 293 ° 0 min 0,000 mm 0,0 UV-I 53 W/m² 2,2 °C 5,7 °C 4,8 km/h (1 Bft)
10.01.2018 13:29 5,7 °C 77 % 1011,1 hPa 0,0 mm 2,6 km/h (1 Bft) W-NW 293 ° 0 min 0,000 mm 0,0 UV-I 53 W/m² 2,0 °C 5,7 °C 3,2 km/h (1 Bft)
10.01.2018 13:30 5,8 °C 77 % 1011,1 hPa 0,0 mm 0,0 km/h (0 Bft) W-NW 293 ° 0 min 0,000 mm 0,0 UV-I 54 W/m² 2,1 °C 5,8 °C 0,0 km/h (0 Bft)
10.01.2018 13:31 5,8 °C 77 % 1011,1 hPa 0,0 mm 0,0 km/h (0 Bft) W-NW 293 ° 0 min 0,000 mm 0,0 UV-I 54 W/m² 2,1 °C 5,8 °C 0,0 km/h (0 Bft)
10.01.2018 13:32 5,8 °C 76 % 1011,1 hPa 0,0 mm 0,2 km/h (0 Bft) W-NW 293 ° 0 min 0,000 mm 0,0 UV-I 54 W/m² 1,9 °C 5,8 °C 1,6 km/h (1 Bft)
10.01.2018 13:33 5,8 °C 76 % 1011,1 hPa 0,0 mm 0,8 km/h (0 Bft) W-NW 293 ° 0 min 0,000 mm 0,0 UV-I 54 W/m² 1,9 °C 5,8 °C 1,6 km/h (1 Bft)
10.01.2018 13:34 5,8 °C 77 % 1011,0 hPa 0,0 mm 0,3 km/h (0 Bft) W-NW 293 ° 0 min 0,000 mm 0,0 UV-I 54 W/m² 2,1 °C 5,8 °C 3,2 km/h (1 Bft)
10.01.2018 13:35 5,8 °C 77 % 1011,1 hPa 0,0 mm 3,7 km/h (1 Bft) W-NW 293 ° 0 min 0,000 mm 0,0 UV-I 54 W/m² 2,1 °C 5,8 °C 4,8 km/h (1 Bft)
10.01.2018 13:36 5,8 °C 77 % 1011,1 hPa 0,0 mm 2,3 km/h (1 Bft) W-NW 293 ° 0 min 0,000 mm 0,0 UV-I 54 W/m² 2,1 °C 5,8 °C 3,2 km/h (1 Bft)
10.01.2018 13:37 5,8 °C 77 % 1011,0 hPa 0,0 mm 1,0 km/h (0 Bft) W-NW 293 ° 0 min 0,000 mm 0,0 UV-I 54 W/m² 2,1 °C 5,8 °C 3,2 km/h (1 Bft)
10.01.2018 13:38 5,8 °C 77 % 1011,0 hPa 0,0 mm 2,3 km/h (1 Bft) W-NW 293 ° 0 min 0,000 mm 0,0 UV-I 54 W/m² 2,1 °C 5,8 °C 3,2 km/h (1 Bft)
10.01.2018 13:39 5,7 °C 77 % 1011,0 hPa 0,0 mm 1,9 km/h (1 Bft) W-NW 293 ° 0 min 0,000 mm 0,0 UV-I 54 W/m² 2,0 °C 5,7 °C 3,2 km/h (1 Bft)
10.01.2018 13:40 5,7 °C 77 % 1011,0 hPa 0,0 mm 1,8 km/h (1 Bft) W-NW 293 ° 0 min 0,000 mm 0,8 UV-I 56 W/m² 2,0 °C 5,7 °C 3,2 km/h (1 Bft)
10.01.2018 13:41 5,7 °C 77 % 1011,0 hPa 0,0 mm 0,3 km/h (0 Bft) W-NW 293 ° 0 min 0,000 mm 0,8 UV-I 56 W/m² 2,0 °C 5,7 °C 1,6 km/h (1 Bft)
10.01.2018 13:42 5,7 °C 77 % 1011,0 hPa 0,0 mm 0,0 km/h (0 Bft) W-NW 293 ° 0 min 0,000 mm 0,8 UV-I 56 W/m² 2,0 °C 5,7 °C 0,0 km/h (0 Bft)
10.01.2018 13:43 5,7 °C 77 % 1011,0 hPa 0,0 mm 0,0 km/h (0 Bft) W-NW 293 ° 0 min 0,000 mm 0,8 UV-I 58 W/m² 2,0 °C 5,7 °C 0,0 km/h (0 Bft)
10.01.2018 13:44 5,7 °C 77 % 1011,0 hPa 0,0 mm 0,0 km/h (0 Bft) W-NW 293 ° 0 min 0,000 mm 0,8 UV-I 58 W/m² 2,0 °C 5,7 °C 0,0 km/h (0 Bft)
10.01.2018 13:45 5,8 °C 76 % 1010,9 hPa 0,0 mm 0,3 km/h (0 Bft) W-NW 293 ° 0 min 0,000 mm 0,8 UV-I 60 W/m² 1,9 °C 5,8 °C 3,2 km/h (1 Bft)
10.01.2018 13:46 5,8 °C 76 % 1010,9 hPa 0,0 mm 1,3 km/h (1 Bft) W-NW 293 ° 0 min 0,000 mm 0,8 UV-I 60 W/m² 1,9 °C 5,8 °C 3,2 km/h (1 Bft)
10.01.2018 13:47 5,8 °C 76 % 1010,9 hPa 0,0 mm 1,5 km/h (1 Bft) W-NW 293 ° 0 min 0,000 mm 0,8 UV-I 60 W/m² 1,9 °C 5,8 °C 3,2 km/h (1 Bft)
10.01.2018 13:48 5,8 °C 76 % 1010,9 hPa 0,0 mm 2,4 km/h (1 Bft) W-NW 297 ° 0 min 0,000 mm 0,8 UV-I 65 W/m² 1,9 °C 5,8 °C 3,2 km/h (1 Bft)
10.01.2018 13:49 5,7 °C 76 % 1010,9 hPa 0,0 mm 0,0 km/h (0 Bft) W-NW 297 ° 0 min 0,000 mm 0,8 UV-I 65 W/m² 1,8 °C 5,7 °C 0,0 km/h (0 Bft)
10.01.2018 13:50 5,7 °C 76 % 1010,9 hPa 0,0 mm 0,0 km/h (0 Bft) W-NW 297 ° 0 min 0,000 mm 0,8 UV-I 72 W/m² 1,8 °C 5,7 °C 0,0 km/h (0 Bft)
10.01.2018 13:51 5,6 °C 77 % 1010,9 hPa 0,0 mm 3,8 km/h (1 Bft) NW 311 ° 0 min 0,000 mm 0,8 UV-I 83 W/m² 1,9 °C 5,6 °C 8,0 km/h (2 Bft)
10.01.2018 13:52 5,6 °C 77 % 1010,9 hPa 0,0 mm 2,9 km/h (1 Bft) NW 311 ° 0 min 0,000 mm 0,9 UV-I 111 W/m² 1,9 °C 5,6 °C 4,8 km/h (1 Bft)
10.01.2018 13:53 5,6 °C 77 % 1010,9 hPa 0,0 mm 3,0 km/h (1 Bft) NW 311 ° 0 min 0,000 mm 0,9 UV-I 163 W/m² 1,9 °C 5,6 °C 4,8 km/h (1 Bft)
10.01.2018 13:54 5,6 °C 77 % 1010,9 hPa 0,0 mm 0,2 km/h (0 Bft) NW 311 ° 0 min 0,000 mm 0,9 UV-I 169 W/m² 1,9 °C 5,6 °C 1,6 km/h (1 Bft)
10.01.2018 13:55 5,6 °C 77 % 1010,9 hPa 0,0 mm 0,6 km/h (0 Bft) NW 311 ° 0 min 0,000 mm 0,9 UV-I 181 W/m² 1,9 °C 5,6 °C 3,2 km/h (1 Bft)
10.01.2018 13:56 5,6 °C 77 % 1010,9 hPa 0,0 mm 0,0 km/h (0 Bft) NW 311 ° 0 min 0,000 mm 0,9 UV-I 197 W/m² 1,9 °C 5,6 °C 0,0 km/h (0 Bft)
10.01.2018 13:57 5,6 °C 77 % 1010,8 hPa 0,0 mm 0,0 km/h (0 Bft) NW 311 ° 0 min 0,000 mm 1,0 UV-I 207 W/m² 1,9 °C 5,6 °C 0,0 km/h (0 Bft)
10.01.2018 13:58 5,7 °C 77 % 1010,8 hPa 0,0 mm 0,0 km/h (0 Bft) NW 311 ° 0 min 0,000 mm 1,0 UV-I 218 W/m² 2,0 °C 5,7 °C 0,0 km/h (0 Bft)
10.01.2018 13:59 5,8 °C 77 % 1010,8 hPa 0,0 mm 0,0 km/h (0 Bft) NW 311 ° 0 min 0,000 mm 1,0 UV-I 227 W/m² 2,1 °C 5,8 °C 0,0 km/h (0 Bft)
10.01.2018 14:00 5,9 °C 77 % 1010,8 hPa 0,0 mm 2,5 km/h (1 Bft) NW 311 ° 0 min 0,025 mm 1,0 UV-I 221 W/m² 2,2 °C 5,9 °C 3,2 km/h (1 Bft)
10.01.2018 14:01 6,0 °C 76 % 1010,8 hPa 0,0 mm 3,6 km/h (1 Bft) W 269 ° 0 min 0,000 mm 1,0 UV-I 220 W/m² 2,1 °C 6,0 °C 4,8 km/h (1 Bft)
10.01.2018 14:02 5,9 °C 76 % 1010,8 hPa 0,0 mm 3,6 km/h (1 Bft) W-SW 254 ° 0 min 0,000 mm 0,9 UV-I 213 W/m² 2,0 °C 5,9 °C 4,8 km/h (1 Bft)
10.01.2018 14:03 5,8 °C 76 % 1010,8 hPa 0,0 mm 3,0 km/h (1 Bft) W 278 ° 0 min 0,000 mm 0,9 UV-I 206 W/m² 1,9 °C 5,8 °C 4,8 km/h (1 Bft)
10.01.2018 14:04 5,8 °C 76 % 1010,8 hPa 0,0 mm 3,4 km/h (1 Bft) W 277 ° 0 min 0,000 mm 0,9 UV-I 216 W/m² 1,9 °C 5,8 °C 4,8 km/h (1 Bft)
10.01.2018 14:05 5,8 °C 76 % 1010,8 hPa 0,0 mm 3,7 km/h (1 Bft) W 277 ° 0 min 0,000 mm 1,0 UV-I 223 W/m² 1,9 °C 5,8 °C 4,8 km/h (1 Bft)
10.01.2018 14:06 5,8 °C 76 % 1010,8 hPa 0,0 mm 2,5 km/h (1 Bft) W 277 ° 0 min 0,000 mm 0,9 UV-I 223 W/m² 1,9 °C 5,8 °C 4,8 km/h (1 Bft)
10.01.2018 14:07 5,8 °C 76 % 1010,8 hPa 0,0 mm 1,7 km/h (1 Bft) W 277 ° 0 min 0,000 mm 0,9 UV-I 213 W/m² 1,9 °C 5,8 °C 3,2 km/h (1 Bft)
10.01.2018 14:08 5,8 °C 76 % 1010,8 hPa 0,0 mm 0,9 km/h (0 Bft) W 277 ° 0 min 0,000 mm 0,9 UV-I 211 W/m² 1,9 °C 5,8 °C 3,2 km/h (1 Bft)
10.01.2018 14:09 5,8 °C 76 % 1010,8 hPa 0,0 mm 3,7 km/h (1 Bft) W-NW 289 ° 0 min 0,000 mm 0,9 UV-I 192 W/m² 1,9 °C 5,8 °C 4,8 km/h (1 Bft)
10.01.2018 14:10 5,8 °C 76 % 1010,8 hPa 0,0 mm 0,5 km/h (0 Bft) W-NW 289 ° 0 min 0,000 mm 0,8 UV-I 142 W/m² 1,9 °C 5,8 °C 1,6 km/h (1 Bft)
10.01.2018 14:11 5,9 °C 76 % 1010,8 hPa 0,0 mm 1,1 km/h (1 Bft) W-NW 289 ° 0 min 0,000 mm 0,8 UV-I 81 W/m² 2,0 °C 5,9 °C 3,2 km/h (1 Bft)
10.01.2018 14:12 5,8 °C 76 % 1010,8 hPa 0,0 mm 1,9 km/h (1 Bft) W-NW 289 ° 0 min 0,000 mm 0,8 UV-I 105 W/m² 1,9 °C 5,8 °C 4,8 km/h (1 Bft)
10.01.2018 14:13 5,8 °C 76 % 1010,8 hPa 0,0 mm 3,7 km/h (1 Bft) W 276 ° 0 min 0,000 mm 0,8 UV-I 153 W/m² 1,9 °C 5,8 °C 6,4 km/h (2 Bft)
10.01.2018 14:14 5,7 °C 76 % 1010,8 hPa 0,0 mm 2,5 km/h (1 Bft) W-NW 286 ° 0 min 0,000 mm 0,9 UV-I 186 W/m² 1,8 °C 5,7 °C 4,8 km/h (1 Bft)
10.01.2018 14:15 5,7 °C 76 % 1010,8 hPa 0,0 mm 4,2 km/h (1 Bft) W-NW 293 ° 0 min 0,000 mm 0,9 UV-I 195 W/m² 1,8 °C 5,7 °C 8,0 km/h (2 Bft)
10.01.2018 14:16 5,7 °C 76 % 1010,8 hPa 0,0 mm 3,0 km/h (1 Bft) W-NW 293 ° 0 min 0,000 mm 0,9 UV-I 179 W/m² 1,8 °C 5,7 °C 4,8 km/h (1 Bft)
10.01.2018 14:17 5,6 °C 76 % 1010,9 hPa 0,0 mm 0,5 km/h (0 Bft) W-NW 293 ° 0 min 0,000 mm 0,8 UV-I 91 W/m² 1,7 °C 5,6 °C 1,6 km/h (1 Bft)
10.01.2018 14:18 5,6 °C 76 % 1010,8 hPa 0,0 mm 1,2 km/h (1 Bft) W-NW 292 ° 0 min 0,000 mm 0,8 UV-I 83 W/m² 1,7 °C 5,6 °C 3,2 km/h (1 Bft)
10.01.2018 14:19 5,6 °C 76 % 1010,8 hPa 0,0 mm 0,2 km/h (0 Bft) W-NW 292 ° 0 min 0,000 mm 0,8 UV-I 74 W/m² 1,7 °C 5,6 °C 1,6 km/h (1 Bft)
10.01.2018 14:20 5,7 °C 76 % 1010,8 hPa 0,0 mm 2,4 km/h (1 Bft) W-NW 292 ° 0 min 0,000 mm 0,8 UV-I 67 W/m² 1,8 °C 5,7 °C 4,8 km/h (1 Bft)
10.01.2018 14:21 5,6 °C 76 % 1010,8 hPa 0,0 mm 4,2 km/h (1 Bft) W 277 ° 0 min 0,000 mm 0,7 UV-I 62 W/m² 1,7 °C 5,6 °C 6,4 km/h (2 Bft)
10.01.2018 14:22 5,6 °C 76 % 1010,8 hPa 0,0 mm 3,2 km/h (1 Bft) W 277 ° 0 min 0,000 mm 0,7 UV-I 53 W/m² 1,7 °C 5,6 °C 4,8 km/h (1 Bft)
10.01.2018 14:23 5,6 °C 76 % 1010,8 hPa 0,0 mm 2,6 km/h (1 Bft) W 277 ° 0 min 0,000 mm 0,0 UV-I 51 W/m² 1,7 °C 5,6 °C 4,8 km/h (1 Bft)
10.01.2018 14:24 5,6 °C 76 % 1010,8 hPa 0,0 mm 1,9 km/h (1 Bft) W 277 ° 0 min 0,000 mm 0,0 UV-I 51 W/m² 1,7 °C 5,6 °C 3,2 km/h (1 Bft)
10.01.2018 14:25 5,6 °C 76 % 1010,8 hPa 0,0 mm 1,0 km/h (0 Bft) W 277 ° 0 min 0,000 mm 0,0 UV-I 53 W/m² 1,7 °C 5,6 °C 3,2 km/h (1 Bft)
10.01.2018 14:26 5,6 °C 76 % 1010,7 hPa 0,0 mm 1,7 km/h (1 Bft) W 277 ° 0 min 0,000 mm 0,7 UV-I 56 W/m² 1,7 °C 5,6 °C 3,2 km/h (1 Bft)
10.01.2018 14:27 5,6 °C 75 % 1010,8 hPa 0,0 mm 2,4 km/h (1 Bft) W 277 ° 0 min 0,000 mm 0,7 UV-I 62 W/m² 1,5 °C 5,6 °C 4,8 km/h (1 Bft)
10.01.2018 14:28 5,6 °C 75 % 1010,8 hPa 0,0 mm 0,4 km/h (0 Bft) W 277 ° 0 min 0,000 mm 0,7 UV-I 62 W/m² 1,5 °C 5,6 °C 1,6 km/h (1 Bft)
10.01.2018 14:29 5,5 °C 75 % 1010,7 hPa 0,0 mm 0,0 km/h (0 Bft) W 277 ° 0 min 0,000 mm 0,7 UV-I 56 W/m² 1,4 °C 5,5 °C 0,0 km/h (0 Bft)
10.01.2018 14:30 5,5 °C 75 % 1010,7 hPa 0,0 mm 0,0 km/h (0 Bft) W 277 ° 0 min 0,000 mm 0,7 UV-I 58 W/m² 1,4 °C 5,5 °C 0,0 km/h (0 Bft)
10.01.2018 14:31 5,5 °C 75 % 1010,7 hPa 0,0 mm 0,0 km/h (0 Bft) W 277 ° 0 min 0,000 mm 0,7 UV-I 58 W/m² 1,4 °C 5,5 °C 0,0 km/h (0 Bft)
10.01.2018 14:32 5,5 °C 75 % 1010,7 hPa 0,0 mm 0,0 km/h (0 Bft) W 277 ° 0 min 0,000 mm 0,0 UV-I 51 W/m² 1,4 °C 5,5 °C 0,0 km/h (0 Bft)
10.01.2018 14:33 5,6 °C 75 % 1010,7 hPa 0,0 mm 0,0 km/h (0 Bft) W 277 ° 0 min 0,000 mm 0,0 UV-I 46 W/m² 1,5 °C 5,6 °C 0,0 km/h (0 Bft)
10.01.2018 14:34 5,5 °C 75 % 1010,7 hPa 0,0 mm 0,0 km/h (0 Bft) W 277 ° 0 min 0,000 mm 0,0 UV-I 44 W/m² 1,4 °C 5,5 °C 0,0 km/h (0 Bft)
10.01.2018 14:35 5,5 °C 75 % 1010,7 hPa 0,0 mm 0,0 km/h (0 Bft) W 277 ° 0 min 0,000 mm 0,0 UV-I 44 W/m² 1,4 °C 5,5 °C 0,0 km/h (0 Bft)
10.01.2018 14:36 5,6 °C 75 % 1010,7 hPa 0,0 mm 0,6 km/h (0 Bft) W 277 ° 0 min 0,000 mm 0,0 UV-I 44 W/m² 1,5 °C 5,6 °C 3,2 km/h (1 Bft)
10.01.2018 14:37 5,6 °C 75 % 1010,7 hPa 0,0 mm 3,2 km/h (1 Bft) W 277 ° 0 min 0,000 mm 0,0 UV-I 44 W/m² 1,5 °C 5,6 °C 3,2 km/h (1 Bft)
10.01.2018 14:38 5,6 °C 75 % 1010,7 hPa 0,0 mm 3,2 km/h (1 Bft) W 270 ° 0 min 0,000 mm 0,0 UV-I 44 W/m² 1,5 °C 5,6 °C 4,8 km/h (1 Bft)
10.01.2018 14:39 5,6 °C 75 % 1010,7 hPa 0,0 mm 0,0 km/h (0 Bft) W 270 ° 0 min 0,000 mm 0,0 UV-I 44 W/m² 1,5 °C 5,6 °C 1,6 km/h (1 Bft)
10.01.2018 14:40 5,6 °C 75 % 1010,7 hPa 0,0 mm 0,0 km/h (0 Bft) W 270 ° 0 min 0,000 mm 0,0 UV-I 44 W/m² 1,5 °C 5,6 °C 1,6 km/h (1 Bft)
10.01.2018 14:41 5,6 °C 75 % 1010,7 hPa 0,0 mm 1,6 km/h (1 Bft) W 270 ° 0 min 0,000 mm 0,0 UV-I 42 W/m² 1,5 °C 5,6 °C 1,6 km/h (1 Bft)
10.01.2018 14:42 5,6 °C 75 % 1010,7 hPa 0,0 mm 1,6 km/h (1 Bft) W 270 ° 0 min 0,000 mm 0,0 UV-I 42 W/m² 1,5 °C 5,6 °C 3,2 km/h (1 Bft)
10.01.2018 14:43 5,6 °C 75 % 1010,7 hPa 0,0 mm 0,0 km/h (0 Bft) N 0 ° 0 min 0,000 mm 0,0 UV-I 40 W/m² 1,5 °C 5,6 °C 0,0 km/h (0 Bft)
10.01.2018 14:44 5,7 °C 75 % 1010,8 hPa 0,0 mm 0,0 km/h (0 Bft) N 0 ° 0 min 0,000 mm 0,0 UV-I 40 W/m² 1,6 °C 5,7 °C 0,0 km/h (0 Bft)
10.01.2018 14:46 5,7 °C 74 % 1010,7 hPa 0,0 mm 0,0 km/h (0 Bft) W 277 ° 0 min 0,000 mm 0,0 UV-I 40 W/m² 1,4 °C 5,7 °C 0,0 km/h (0 Bft)
10.01.2018 14:48 5,7 °C 74 % 1010,9 hPa 0,0 mm 0,0 km/h (0 Bft) W 277 ° 0 min 0,000 mm 0,0 UV-I 44 W/m² 1,4 °C 5,7 °C 0,0 km/h (0 Bft)
10.01.2018 14:49 5,7 °C 74 % 1010,9 hPa 0,0 mm 0,0 km/h (0 Bft) W 277 ° 0 min 0,000 mm 0,0 UV-I 42 W/m² 1,4 °C 5,7 °C 0,0 km/h (0 Bft)
10.01.2018 14:50 5,7 °C 74 % 1010,8 hPa 0,0 mm 0,0 km/h (0 Bft) W 277 ° 0 min 0,000 mm 0,0 UV-I 40 W/m² 1,4 °C 5,7 °C 0,0 km/h (0 Bft)
10.01.2018 14:51 5,7 °C 74 % 1010,8 hPa 0,0 mm 0,0 km/h (0 Bft) W 277 ° 0 min 0,000 mm 0,0 UV-I 37 W/m² 1,4 °C 5,7 °C 0,0 km/h (0 Bft)
10.01.2018 14:52 5,8 °C 74 % 1010,8 hPa 0,0 mm 0,0 km/h (0 Bft) W 277 ° 0 min 0,000 mm 0,0 UV-I 37 W/m² 1,5 °C 5,8 °C 0,0 km/h (0 Bft)
10.01.2018 14:53 5,8 °C 74 % 1010,8 hPa 0,0 mm 0,0 km/h (0 Bft) W 277 ° 0 min 0,000 mm 0,0 UV-I 37 W/m² 1,5 °C 5,8 °C 0,0 km/h (0 Bft)
10.01.2018 14:54 5,8 °C 74 % 1010,8 hPa 0,0 mm 0,0 km/h (0 Bft) W 277 ° 0 min 0,000 mm 0,0 UV-I 37 W/m² 1,5 °C 5,8 °C 0,0 km/h (0 Bft)
10.01.2018 14:55 5,8 °C 75 % 1010,8 hPa 0,0 mm 0,0 km/h (0 Bft) W 277 ° 0 min 0,000 mm 0,0 UV-I 35 W/m² 1,7 °C 5,8 °C 0,0 km/h (0 Bft)
10.01.2018 14:56 5,8 °C 75 % 1010,8 hPa 0,0 mm 0,0 km/h (0 Bft) W 277 ° 0 min 0,000 mm 0,0 UV-I 35 W/m² 1,7 °C 5,8 °C 0,0 km/h (0 Bft)
10.01.2018 14:57 5,8 °C 75 % 1010,7 hPa 0,0 mm 0,0 km/h (0 Bft) W 277 ° 0 min 0,000 mm 0,0 UV-I 35 W/m² 1,7 °C 5,8 °C 0,0 km/h (0 Bft)
10.01.2018 14:58 5,9 °C 74 % 1010,7 hPa 0,0 mm 0,0 km/h (0 Bft) W 277 ° 0 min 0,000 mm 0,0 UV-I 35 W/m² 1,6 °C 5,9 °C 0,0 km/h (0 Bft)
10.01.2018 14:59 5,9 °C 75 % 1010,8 hPa 0,0 mm 0,0 km/h (0 Bft) W 277 ° 0 min 0,000 mm 0,0 UV-I 35 W/m² 1,8 °C 5,9 °C 0,0 km/h (0 Bft)
10.01.2018 15:00 5,9 °C 74 % 1010,8 hPa 0,0 mm 0,0 km/h (0 Bft) W 277 ° 0 min 0,051 mm 0,0 UV-I 35 W/m² 1,6 °C 5,9 °C 0,0 km/h (0 Bft)
10.01.2018 15:01 5,9 °C 74 % 1010,8 hPa 0,0 mm 0,0 km/h (0 Bft) W 277 ° 0 min 0,000 mm 0,0 UV-I 35 W/m² 1,6 °C 5,9 °C 0,0 km/h (0 Bft)
10.01.2018 15:02 5,9 °C 74 % 1010,8 hPa 0,0 mm 0,0 km/h (0 Bft) W 277 ° 0 min 0,000 mm 0,0 UV-I 35 W/m² 1,6 °C 5,9 °C 0,0 km/h (0 Bft)
10.01.2018 15:03 5,9 °C 74 % 1010,8 hPa 0,0 mm 0,0 km/h (0 Bft) W 277 ° 0 min 0,000 mm 0,0 UV-I 35 W/m² 1,6 °C 5,9 °C 0,0 km/h (0 Bft)
10.01.2018 15:04 5,9 °C 74 % 1010,8 hPa 0,0 mm 0,0 km/h (0 Bft) W 277 ° 0 min 0,000 mm 0,0 UV-I 35 W/m² 1,6 °C 5,9 °C 0,0 km/h (0 Bft)
10.01.2018 15:05 5,9 °C 74 % 1010,9 hPa 0,0 mm 0,0 km/h (0 Bft) W 277 ° 0 min 0,000 mm 0,0 UV-I 35 W/m² 1,6 °C 5,9 °C 0,0 km/h (0 Bft)
10.01.2018 15:06 5,9 °C 74 % 1010,9 hPa 0,0 mm 0,0 km/h (0 Bft) W 277 ° 0 min 0,000 mm 0,0 UV-I 35 W/m² 1,6 °C 5,9 °C 0,0 km/h (0 Bft)
10.01.2018 15:07 5,9 °C 74 % 1010,9 hPa 0,0 mm 0,0 km/h (0 Bft) W 277 ° 0 min 0,000 mm 0,0 UV-I 35 W/m² 1,6 °C 5,9 °C 0,0 km/h (0 Bft)
10.01.2018 15:08 5,9 °C 74 % 1010,9 hPa 0,0 mm 0,0 km/h (0 Bft) W 277 ° 0 min 0,000 mm 0,0 UV-I 35 W/m² 1,6 °C 5,9 °C 0,0 km/h (0 Bft)
10.01.2018 15:09 5,9 °C 74 % 1010,9 hPa 0,0 mm 0,0 km/h (0 Bft) W 277 ° 0 min 0,000 mm 0,0 UV-I 35 W/m² 1,6 °C 5,9 °C 0,0 km/h (0 Bft)
10.01.2018 15:10 5,8 °C 74 % 1010,9 hPa 0,0 mm 0,0 km/h (0 Bft) W 277 ° 0 min 0,000 mm 0,0 UV-I 35 W/m² 1,5 °C 5,8 °C 0,0 km/h (0 Bft)
10.01.2018 15:11 5,5 °C 74 % 1010,9 hPa 0,0 mm 0,0 km/h (0 Bft) W 277 ° 0 min 0,000 mm 0,0 UV-I 35 W/m² 1,2 °C 5,5 °C 0,0 km/h (0 Bft)
10.01.2018 15:12 5,3 °C 75 % 1010,8 hPa 0,0 mm 0,0 km/h (0 Bft) W 277 ° 0 min 0,000 mm 0,0 UV-I 35 W/m² 1,2 °C 5,3 °C 0,0 km/h (0 Bft)
10.01.2018 15:13 5,2 °C 76 % 1010,9 hPa 0,0 mm 0,0 km/h (0 Bft) W 277 ° 0 min 0,000 mm 0,0 UV-I 33 W/m² 1,3 °C 5,2 °C 0,0 km/h (0 Bft)
10.01.2018 15:14 5,3 °C 76 % 1010,9 hPa 0,0 mm 0,0 km/h (0 Bft) W 277 ° 0 min 0,000 mm 0,0 UV-I 33 W/m² 1,4 °C 5,3 °C 0,0 km/h (0 Bft)
10.01.2018 15:15 5,4 °C 77 % 1010,9 hPa 0,0 mm 0,0 km/h (0 Bft) W 277 ° 0 min 0,000 mm 0,0 UV-I 33 W/m² 1,7 °C 5,4 °C 0,0 km/h (0 Bft)
10.01.2018 15:16 5,6 °C 77 % 1010,9 hPa 0,0 mm 0,0 km/h (0 Bft) W 277 ° 0 min 0,000 mm 0,0 UV-I 33 W/m² 1,9 °C 5,6 °C 0,0 km/h (0 Bft)
10.01.2018 15:17 5,6 °C 76 % 1010,9 hPa 0,0 mm 0,0 km/h (0 Bft) W 277 ° 0 min 0,000 mm 0,0 UV-I 33 W/m² 1,7 °C 5,6 °C 0,0 km/h (0 Bft)
10.01.2018 15:18 5,7 °C 76 % 1010,9 hPa 0,0 mm 0,0 km/h (0 Bft) W 277 ° 0 min 0,000 mm 0,0 UV-I 33 W/m² 1,8 °C 5,7 °C 0,0 km/h (0 Bft)
10.01.2018 15:19 5,7 °C 76 % 1010,9 hPa 0,0 mm 0,0 km/h (0 Bft) W 277 ° 0 min 0,000 mm 0,0 UV-I 33 W/m² 1,8 °C 5,7 °C 0,0 km/h (0 Bft)
10.01.2018 15:20 5,8 °C 75 % 1010,9 hPa 0,0 mm 0,0 km/h (0 Bft) W 277 ° 0 min 0,000 mm 0,0 UV-I 33 W/m² 1,7 °C 5,8 °C 0,0 km/h (0 Bft)
10.01.2018 15:21 5,8 °C 75 % 1010,9 hPa 0,0 mm 0,0 km/h (0 Bft) W 277 ° 0 min 0,000 mm 0,0 UV-I 33 W/m² 1,7 °C 5,8 °C 0,0 km/h (0 Bft)
10.01.2018 15:22 5,8 °C 75 % 1011,0 hPa 0,0 mm 0,0 km/h (0 Bft) W 277 ° 0 min 0,000 mm 0,0 UV-I 33 W/m² 1,7 °C 5,8 °C 0,0 km/h (0 Bft)
10.01.2018 15:23 5,9 °C 75 % 1010,9 hPa 0,0 mm 0,0 km/h (0 Bft) W 277 ° 0 min 0,000 mm 0,0 UV-I 32 W/m² 1,8 °C 5,9 °C 0,0 km/h (0 Bft)
10.01.2018 15:24 5,9 °C 75 % 1011,0 hPa 0,0 mm 0,0 km/h (0 Bft) W 277 ° 0 min 0,000 mm 0,0 UV-I 32 W/m² 1,8 °C 5,9 °C 0,0 km/h (0 Bft)
10.01.2018 15:25 5,9 °C 75 % 1011,0 hPa 0,0 mm 0,0 km/h (0 Bft) W 277 ° 0 min 0,000 mm 0,0 UV-I 32 W/m² 1,8 °C 5,9 °C 0,0 km/h (0 Bft)
10.01.2018 15:26 5,9 °C 75 % 1011,0 hPa 0,0 mm 0,0 km/h (0 Bft) W 277 ° 0 min 0,000 mm 0,0 UV-I 30 W/m² 1,8 °C 5,9 °C 0,0 km/h (0 Bft)
10.01.2018 15:27 5,9 °C 76 % 1011,0 hPa 0,0 mm 0,0 km/h (0 Bft) W 277 ° 0 min 0,000 mm 0,0 UV-I 30 W/m² 2,0 °C 5,9 °C 0,0 km/h (0 Bft)
10.01.2018 15:28 5,8 °C 76 % 1011,0 hPa 0,0 mm 0,0 km/h (0 Bft) W 277 ° 0 min 0,000 mm 0,0 UV-I 30 W/m² 1,9 °C 5,8 °C 0,0 km/h (0 Bft)
10.01.2018 15:29 5,8 °C 75 % 1011,0 hPa 0,0 mm 0,0 km/h (0 Bft) W 277 ° 0 min 0,000 mm 0,0 UV-I 30 W/m² 1,7 °C 5,8 °C 0,0 km/h (0 Bft)
10.01.2018 15:30 5,8 °C 76 % 1011,0 hPa 0,0 mm 0,0 km/h (0 Bft) W 277 ° 0 min 0,000 mm 0,0 UV-I 28 W/m² 1,9 °C 5,8 °C 0,0 km/h (0 Bft)
10.01.2018 15:31 5,8 °C 76 % 1011,0 hPa 0,0 mm 0,0 km/h (0 Bft) W 277 ° 0 min 0,000 mm 0,0 UV-I 28 W/m² 1,9 °C 5,8 °C 0,0 km/h (0 Bft)
10.01.2018 15:32 5,7 °C 76 % 1011,0 hPa 0,0 mm 0,0 km/h (0 Bft) W 277 ° 0 min 0,000 mm 0,0 UV-I 28 W/m² 1,8 °C 5,7 °C 0,0 km/h (0 Bft)
10.01.2018 15:33 5,7 °C 76 % 1011,0 hPa 0,0 mm 0,0 km/h (0 Bft) W 277 ° 0 min 0,000 mm 0,0 UV-I 26 W/m² 1,8 °C 5,7 °C 0,0 km/h (0 Bft)
10.01.2018 15:34 5,7 °C 76 % 1011,0 hPa 0,0 mm 0,0 km/h (0 Bft) W 277 ° 0 min 0,000 mm 0,0 UV-I 26 W/m² 1,8 °C 5,7 °C 0,0 km/h (0 Bft)
10.01.2018 15:35 5,6 °C 76 % 1011,0 hPa 0,0 mm 0,0 km/h (0 Bft) W 277 ° 0 min 0,000 mm 0,0 UV-I 26 W/m² 1,7 °C 5,6 °C 0,0 km/h (0 Bft)
10.01.2018 15:36 5,6 °C 76 % 1011,0 hPa 0,0 mm 0,0 km/h (0 Bft) W 277 ° 0 min 0,000 mm 0,0 UV-I 26 W/m² 1,7 °C 5,6 °C 0,0 km/h (0 Bft)
10.01.2018 15:37 5,6 °C 77 % 1011,0 hPa 0,0 mm 0,0 km/h (0 Bft) W 277 ° 0 min 0,000 mm 0,0 UV-I 26 W/m² 1,9 °C 5,6 °C 0,0 km/h (0 Bft)
10.01.2018 15:38 5,6 °C 77 % 1011,0 hPa 0,0 mm 0,0 km/h (0 Bft) W 277 ° 0 min 0,000 mm 0,0 UV-I 26 W/m² 1,9 °C 5,6 °C 0,0 km/h (0 Bft)
10.01.2018 15:39 5,6 °C 77 % 1011,0 hPa 0,0 mm 0,0 km/h (0 Bft) W 277 ° 0 min 0,000 mm 0,0 UV-I 25 W/m² 1,9 °C 5,6 °C 0,0 km/h (0 Bft)
10.01.2018 15:40 5,6 °C 77 % 1011,0 hPa 0,0 mm 0,0 km/h (0 Bft) W 277 ° 0 min 0,000 mm 0,0 UV-I 25 W/m² 1,9 °C 5,6 °C 0,0 km/h (0 Bft)
10.01.2018 15:41 5,6 °C 77 % 1011,0 hPa 0,0 mm 0,0 km/h (0 Bft) W 277 ° 0 min 0,000 mm 0,0 UV-I 25 W/m² 1,9 °C 5,6 °C 0,0 km/h (0 Bft)
10.01.2018 15:42 5,6 °C 77 % 1011,0 hPa 0,0 mm 0,0 km/h (0 Bft) W 277 ° 0 min 0,000 mm 0,0 UV-I 25 W/m² 1,9 °C 5,6 °C 0,0 km/h (0 Bft)
10.01.2018 15:43 5,6 °C 77 % 1011,0 hPa 0,0 mm 0,0 km/h (0 Bft) W 277 ° 0 min 0,000 mm 0,0 UV-I 25 W/m² 1,9 °C 5,6 °C 0,0 km/h (0 Bft)
10.01.2018 15:44 5,6 °C 77 % 1011,0 hPa 0,0 mm 0,0 km/h (0 Bft) W 277 ° 0 min 0,000 mm 0,0 UV-I 23 W/m² 1,9 °C 5,6 °C 0,0 km/h (0 Bft)
10.01.2018 15:45 5,5 °C 77 % 1011,0 hPa 0,0 mm 0,0 km/h (0 Bft) W 277 ° 0 min 0,000 mm 0,0 UV-I 23 W/m² 1,8 °C 5,5 °C 0,0 km/h (0 Bft)
10.01.2018 15:46 5,5 °C 77 % 1011,0 hPa 0,0 mm 1,7 km/h (1 Bft) W 277 ° 0 min 0,000 mm 0,0 UV-I 23 W/m² 1,8 °C 5,5 °C 3,2 km/h (1 Bft)
10.01.2018 15:47 5,5 °C 77 % 1011,0 hPa 0,0 mm 2,1 km/h (1 Bft) W 277 ° 0 min 0,000 mm 0,0 UV-I 23 W/m² 1,8 °C 5,5 °C 3,2 km/h (1 Bft)
10.01.2018 15:48 5,4 °C 77 % 1011,0 hPa 0,0 mm 2,4 km/h (1 Bft) W 277 ° 0 min 0,000 mm 0,0 UV-I 23 W/m² 1,7 °C 5,4 °C 3,2 km/h (1 Bft)
10.01.2018 15:49 5,4 °C 77 % 1011,0 hPa 0,0 mm 2,6 km/h (1 Bft) W 277 ° 0 min 0,000 mm 0,0 UV-I 23 W/m² 1,7 °C 5,4 °C 3,2 km/h (1 Bft)
10.01.2018 15:50 5,3 °C 77 % 1011,0 hPa 0,0 mm 3,1 km/h (1 Bft) W 277 ° 0 min 0,000 mm 0,0 UV-I 21 W/m² 1,6 °C 5,3 °C 4,8 km/h (1 Bft)
10.01.2018 15:51 5,3 °C 77 % 1011,0 hPa 0,0 mm 3,3 km/h (1 Bft) W 277 ° 0 min 0,000 mm 0,0 UV-I 21 W/m² 1,6 °C 5,3 °C 4,8 km/h (1 Bft)
10.01.2018 15:52 5,3 °C 77 % 1011,1 hPa 0,0 mm 3,0 km/h (1 Bft) W 277 ° 0 min 0,000 mm 0,0 UV-I 21 W/m² 1,6 °C 5,3 °C 3,2 km/h (1 Bft)
10.01.2018 15:53 5,3 °C 77 % 1011,0 hPa 0,0 mm 3,0 km/h (1 Bft) W 277 ° 0 min 0,000 mm 0,0 UV-I 21 W/m² 1,6 °C 5,3 °C 3,2 km/h (1 Bft)
10.01.2018 15:54 5,3 °C 77 % 1011,1 hPa 0,0 mm 2,3 km/h (1 Bft) W 277 ° 0 min 0,000 mm 0,0 UV-I 21 W/m² 1,6 °C 5,3 °C 3,2 km/h (1 Bft)
10.01.2018 15:55 5,3 °C 77 % 1011,1 hPa 0,0 mm 2,2 km/h (1 Bft) W 277 ° 0 min 0,000 mm 0,0 UV-I 21 W/m² 1,6 °C 5,3 °C 3,2 km/h (1 Bft)
10.01.2018 15:56 5,3 °C 77 % 1011,1 hPa 0,0 mm 1,6 km/h (1 Bft) W 277 ° 0 min 0,000 mm 0,0 UV-I 21 W/m² 1,6 °C 5,3 °C 3,2 km/h (1 Bft)
10.01.2018 15:57 5,2 °C 77 % 1011,1 hPa 0,0 mm 1,7 km/h (1 Bft) W 277 ° 0 min 0,000 mm 0,0 UV-I 19 W/m² 1,5 °C 5,2 °C 3,2 km/h (1 Bft)
10.01.2018 15:58 5,3 °C 77 % 1011,1 hPa 0,0 mm 0,8 km/h (0 Bft) W 277 ° 0 min 0,000 mm 0,0 UV-I 19 W/m² 1,6 °C 5,3 °C 1,6 km/h (1 Bft)
10.01.2018 15:59 5,2 °C 77 % 1011,1 hPa 0,0 mm 0,0 km/h (0 Bft) W 277 ° 0 min 0,000 mm 0,0 UV-I 19 W/m² 1,5 °C 5,2 °C 0,0 km/h (0 Bft)
10.01.2018 16:00 5,2 °C 77 % 1011,1 hPa 0,0 mm 0,0 km/h (0 Bft) W 277 ° 0 min 0,000 mm 0,0 UV-I 19 W/m² 1,5 °C 5,2 °C 0,0 km/h (0 Bft)
10.01.2018 16:01 5,2 °C 77 % 1011,0 hPa 0,0 mm 0,0 km/h (0 Bft) W 277 ° 0 min 0,025 mm 0,0 UV-I 19 W/m² 1,5 °C 5,2 °C 0,0 km/h (0 Bft)
10.01.2018 16:02 5,1 °C 77 % 1011,1 hPa 0,0 mm 0,0 km/h (0 Bft) W 277 ° 0 min 0,000 mm 0,0 UV-I 18 W/m² 1,4 °C 5,1 °C 0,0 km/h (0 Bft)
10.01.2018 16:03 4,9 °C 76 % 1011,1 hPa 0,0 mm 0,0 km/h (0 Bft) W 277 ° 0 min 0,000 mm 0,0 UV-I 18 W/m² 1,0 °C 4,9 °C 0,0 km/h (0 Bft)
10.01.2018 16:04 4,9 °C 76 % 1011,1 hPa 0,0 mm 0,0 km/h (0 Bft) W 277 ° 0 min 0,000 mm 0,0 UV-I 18 W/m² 1,0 °C 4,9 °C 0,0 km/h (0 Bft)
10.01.2018 16:05 4,8 °C 77 % 1011,1 hPa 0,0 mm 0,0 km/h (0 Bft) W 277 ° 0 min 0,000 mm 0,0 UV-I 18 W/m² 1,1 °C 4,8 °C 0,0 km/h (0 Bft)
10.01.2018 16:06 4,8 °C 77 % 1011,1 hPa 0,0 mm 0,0 km/h (0 Bft) W 277 ° 0 min 0,000 mm 0,0 UV-I 18 W/m² 1,1 °C 4,8 °C 0,0 km/h (0 Bft)
10.01.2018 16:07 4,7 °C 77 % 1011,1 hPa 0,0 mm 0,0 km/h (0 Bft) W 277 ° 0 min 0,000 mm 0,0 UV-I 18 W/m² 1,0 °C 4,7 °C 0,0 km/h (0 Bft)
10.01.2018 16:08 4,7 °C 78 % 1011,1 hPa 0,0 mm 0,0 km/h (0 Bft) W 277 ° 0 min 0,000 mm 0,0 UV-I 18 W/m² 1,2 °C 4,7 °C 0,0 km/h (0 Bft)
10.01.2018 16:09 4,7 °C 78 % 1011,1 hPa 0,0 mm 0,1 km/h (0 Bft) W 277 ° 0 min 0,000 mm 0,0 UV-I 16 W/m² 1,2 °C 4,7 °C 1,6 km/h (1 Bft)
10.01.2018 16:10 4,7 °C 78 % 1011,1 hPa 0,0 mm 1,4 km/h (1 Bft) W 277 ° 0 min 0,000 mm 0,0 UV-I 16 W/m² 1,2 °C 4,7 °C 1,6 km/h (1 Bft)
10.01.2018 16:11 4,7 °C 79 % 1011,2 hPa 0,0 mm 1,9 km/h (1 Bft) W 277 ° 0 min 0,000 mm 0,0 UV-I 16 W/m² 1,4 °C 4,7 °C 3,2 km/h (1 Bft)
10.01.2018 16:12 4,7 °C 79 % 1011,2 hPa 0,0 mm 1,6 km/h (1 Bft) W 277 ° 0 min 0,000 mm 0,0 UV-I 16 W/m² 1,4 °C 4,7 °C 3,2 km/h (1 Bft)
10.01.2018 16:13 4,6 °C 79 % 1011,2 hPa 0,0 mm 2,0 km/h (1 Bft) W 277 ° 0 min 0,000 mm 0,0 UV-I 14 W/m² 1,3 °C 4,6 °C 3,2 km/h (1 Bft)
10.01.2018 16:14 4,6 °C 79 % 1011,2 hPa 0,0 mm 2,4 km/h (1 Bft) W 270 ° 0 min 0,000 mm 0,0 UV-I 14 W/m² 1,3 °C 4,6 °C 3,2 km/h (1 Bft)
10.01.2018 16:15 4,6 °C 79 % 1011,2 hPa 0,0 mm 3,0 km/h (1 Bft) W 269 ° 0 min 0,000 mm 0,0 UV-I 14 W/m² 1,3 °C 4,6 °C 3,2 km/h (1 Bft)
10.01.2018 16:16 4,6 °C 79 % 1011,2 hPa 0,0 mm 2,1 km/h (1 Bft) W 268 ° 0 min 0,000 mm 0,0 UV-I 14 W/m² 1,3 °C 4,6 °C 3,2 km/h (1 Bft)
10.01.2018 16:17 4,6 °C 79 % 1011,2 hPa 0,0 mm 1,8 km/h (1 Bft) W 267 ° 0 min 0,000 mm 0,0 UV-I 14 W/m² 1,3 °C 4,6 °C 3,2 km/h (1 Bft)
10.01.2018 16:18 4,6 °C 79 % 1011,2 hPa 0,0 mm 1,9 km/h (1 Bft) W 263 ° 0 min 0,000 mm 0,0 UV-I 14 W/m² 1,3 °C 4,6 °C 3,2 km/h (1 Bft)
10.01.2018 16:19 4,6 °C 79 % 1011,2 hPa 0,0 mm 1,0 km/h (0 Bft) W 263 ° 0 min 0,000 mm 0,0 UV-I 12 W/m² 1,3 °C 4,6 °C 3,2 km/h (1 Bft)
10.01.2018 16:20 4,6 °C 79 % 1011,2 hPa 0,0 mm 1,2 km/h (1 Bft) W 263 ° 0 min 0,000 mm 0,0 UV-I 12 W/m² 1,3 °C 4,6 °C 1,6 km/h (1 Bft)
10.01.2018 16:21 4,6 °C 79 % 1011,3 hPa 0,0 mm 1,0 km/h (0 Bft) W 263 ° 0 min 0,000 mm 0,0 UV-I 12 W/m² 1,3 °C 4,6 °C 1,6 km/h (1 Bft)
10.01.2018 16:22 4,6 °C 79 % 1011,3 hPa 0,0 mm 1,4 km/h (1 Bft) W 263 ° 0 min 0,000 mm 0,0 UV-I 12 W/m² 1,3 °C 4,6 °C 1,6 km/h (1 Bft)
10.01.2018 16:24 4,6 °C 79 % 1011,3 hPa 0,0 mm 1,3 km/h (1 Bft) W 263 ° 0 min 0,000 mm 0,0 UV-I 11 W/m² 1,3 °C 4,6 °C 3,2 km/h (1 Bft)
10.01.2018 16:25 4,5 °C 79 % 1011,3 hPa 0,0 mm 1,4 km/h (1 Bft) W 263 ° 0 min 0,000 mm 0,0 UV-I 11 W/m² 1,2 °C 4,5 °C 1,6 km/h (1 Bft)
10.01.2018 16:26 4,5 °C 79 % 1011,3 hPa 0,0 mm 0,2 km/h (0 Bft) W 263 ° 0 min 0,000 mm 0,0 UV-I 11 W/m² 1,2 °C 4,5 °C 1,6 km/h (1 Bft)
10.01.2018 16:27 4,5 °C 79 % 1011,3 hPa 0,0 mm 0,0 km/h (0 Bft) W 263 ° 0 min 0,000 mm 0,0 UV-I 11 W/m² 1,2 °C 4,5 °C 0,0 km/h (0 Bft)
10.01.2018 16:28 4,5 °C 79 % 1011,4 hPa 0,0 mm 0,0 km/h (0 Bft) W 263 ° 0 min 0,000 mm 0,0 UV-I 11 W/m² 1,2 °C 4,5 °C 0,0 km/h (0 Bft)
10.01.2018 16:29 4,5 °C 79 % 1011,4 hPa 0,0 mm 0,0 km/h (0 Bft) W 263 ° 0 min 0,000 mm 0,0 UV-I 11 W/m² 1,2 °C 4,5 °C 0,0 km/h (0 Bft)
10.01.2018 16:30 4,4 °C 79 % 1011,4 hPa 0,0 mm 0,5 km/h (0 Bft) W 263 ° 0 min 0,000 mm 0,0 UV-I 9 W/m² 1,1 °C 4,4 °C 1,6 km/h (1 Bft)
10.01.2018 16:31 4,4 °C 79 % 1011,4 hPa 0,0 mm 0,8 km/h (0 Bft) W 263 ° 0 min 0,000 mm 0,0 UV-I 9 W/m² 1,1 °C 4,4 °C 1,6 km/h (1 Bft)
10.01.2018 16:32 4,4 °C 79 % 1011,4 hPa 0,0 mm 0,0 km/h (0 Bft) W 263 ° 0 min 0,000 mm 0,0 UV-I 9 W/m² 1,1 °C 4,4 °C 0,0 km/h (0 Bft)
10.01.2018 16:33 4,4 °C 79 % 1011,5 hPa 0,0 mm 0,0 km/h (0 Bft) W 263 ° 0 min 0,000 mm 0,0 UV-I 7 W/m² 1,1 °C 4,4 °C 0,0 km/h (0 Bft)
10.01.2018 16:34 4,4 °C 79 % 1011,5 hPa 0,0 mm 0,0 km/h (0 Bft) W 263 ° 0 min 0,000 mm 0,0 UV-I 7 W/m² 1,1 °C 4,4 °C 0,0 km/h (0 Bft)
10.01.2018 16:35 4,4 °C 79 % 1011,4 hPa 0,0 mm 0,0 km/h (0 Bft) W 263 ° 0 min 0,000 mm 0,0 UV-I 7 W/m² 1,1 °C 4,4 °C 0,0 km/h (0 Bft)
10.01.2018 16:36 4,3 °C 79 % 1011,4 hPa 0,0 mm 0,0 km/h (0 Bft) W 263 ° 0 min 0,000 mm 0,0 UV-I 7 W/m² 1,0 °C 4,3 °C 0,0 km/h (0 Bft)
10.01.2018 16:37 4,3 °C 79 % 1011,4 hPa 0,0 mm 0,0 km/h (0 Bft) W 263 ° 0 min 0,000 mm 0,0 UV-I 5 W/m² 1,0 °C 4,3 °C 0,0 km/h (0 Bft)
10.01.2018 16:38 4,3 °C 79 % 1011,5 hPa 0,0 mm 0,0 km/h (0 Bft) W 263 ° 0 min 0,000 mm 0,0 UV-I 5 W/m² 1,0 °C 4,3 °C 0,0 km/h (0 Bft)
10.01.2018 16:39 4,3 °C 79 % 1011,5 hPa 0,0 mm 0,0 km/h (0 Bft) W 263 ° 0 min 0,000 mm 0,0 UV-I 5 W/m² 1,0 °C 4,3 °C 0,0 km/h (0 Bft)
10.01.2018 16:40 4,3 °C 79 % 1011,5 hPa 0,0 mm 0,0 km/h (0 Bft) W 263 ° 0 min 0,000 mm 0,0 UV-I 5 W/m² 1,0 °C 4,3 °C 0,0 km/h (0 Bft)
10.01.2018 16:41 4,2 °C 79 % 1011,5 hPa 0,0 mm 0,0 km/h (0 Bft) W 263 ° 0 min 0,000 mm 0,0 UV-I 5 W/m² 0,9 °C 4,2 °C 0,0 km/h (0 Bft)
10.01.2018 16:42 4,3 °C 79 % 1011,5 hPa 0,0 mm 0,0 km/h (0 Bft) W 263 ° 0 min 0,000 mm 0,0 UV-I 0 W/m² 1,0 °C 4,3 °C 0,0 km/h (0 Bft)
10.01.2018 16:43 4,2 °C 79 % 1011,5 hPa 0,0 mm 0,0 km/h (0 Bft) W 263 ° 0 min 0,000 mm 0,0 UV-I 0 W/m² 0,9 °C 4,2 °C 0,0 km/h (0 Bft)
10.01.2018 16:44 4,2 °C 79 % 1011,5 hPa 0,0 mm 0,0 km/h (0 Bft) W 263 ° 0 min 0,000 mm 0,0 UV-I 0 W/m² 0,9 °C 4,2 °C 0,0 km/h (0 Bft)
10.01.2018 16:45 4,2 °C 79 % 1011,5 hPa 0,0 mm 0,0 km/h (0 Bft) W 263 ° 0 min 0,000 mm 0,0 UV-I 0 W/m² 0,9 °C 4,2 °C 0,0 km/h (0 Bft)
10.01.2018 16:46 4,1 °C 79 % 1011,5 hPa 0,0 mm 0,0 km/h (0 Bft) W 263 ° 0 min 0,000 mm 0,0 UV-I 0 W/m² 0,8 °C 4,1 °C 0,0 km/h (0 Bft)
10.01.2018 16:47 4,1 °C 79 % 1011,5 hPa 0,0 mm 0,0 km/h (0 Bft) W 263 ° 0 min 0,000 mm 0,0 UV-I 0 W/m² 0,8 °C 4,1 °C 0,0 km/h (0 Bft)
10.01.2018 16:49 3,9 °C 80 % 1011,5 hPa 0,0 mm 0,0 km/h (0 Bft) W 263 ° 0 min 0,000 mm 0,0 UV-I 0 W/m² 0,8 °C 3,9 °C 0,0 km/h (0 Bft)
10.01.2018 16:50 3,9 °C 80 % 1011,5 hPa 0,0 mm 0,0 km/h (0 Bft) W 263 ° 0 min 0,000 mm 0,0 UV-I 0 W/m² 0,8 °C 3,9 °C 0,0 km/h (0 Bft)
10.01.2018 16:51 3,9 °C 80 % 1011,5 hPa 0,0 mm 0,0 km/h (0 Bft) W 263 ° 0 min 0,000 mm 0,0 UV-I 0 W/m² 0,8 °C 3,9 °C 0,0 km/h (0 Bft)
10.01.2018 16:52 3,8 °C 79 % 1011,6 hPa 0,0 mm 0,0 km/h (0 Bft) W 263 ° 0 min 0,000 mm 0,0 UV-I 0 W/m² 0,5 °C 3,8 °C 0,0 km/h (0 Bft)
10.01.2018 16:53 3,7 °C 78 % 1011,6 hPa 0,0 mm 0,0 km/h (0 Bft) W 263 ° 0 min 0,000 mm 0,0 UV-I 0 W/m² 0,2 °C 3,7 °C 0,0 km/h (0 Bft)
10.01.2018 16:54 3,7 °C 79 % 1011,6 hPa 0,0 mm 0,0 km/h (0 Bft) W 263 ° 0 min 0,000 mm 0,0 UV-I 0 W/m² 0,4 °C 3,7 °C 0,0 km/h (0 Bft)
10.01.2018 16:55 3,6 °C 79 % 1011,6 hPa 0,0 mm 0,0 km/h (0 Bft) W 263 ° 0 min 0,000 mm 0,0 UV-I 0 W/m² 0,3 °C 3,6 °C 0,0 km/h (0 Bft)
10.01.2018 16:56 3,6 °C 79 % 1011,6 hPa 0,0 mm 0,0 km/h (0 Bft) W 263 ° 0 min 0,000 mm 0,0 UV-I 0 W/m² 0,3 °C 3,6 °C 0,0 km/h (0 Bft)
10.01.2018 16:57 3,6 °C 79 % 1011,6 hPa 0,0 mm 0,0 km/h (0 Bft) W 263 ° 0 min 0,000 mm 0,0 UV-I 0 W/m² 0,3 °C 3,6 °C 0,0 km/h (0 Bft)
10.01.2018 16:58 3,5 °C 79 % 1011,6 hPa 0,0 mm 0,0 km/h (0 Bft) W 263 ° 0 min 0,000 mm 0,0 UV-I 0 W/m² 0,2 °C 3,5 °C 0,0 km/h (0 Bft)
10.01.2018 16:59 3,5 °C 79 % 1011,6 hPa 0,0 mm 0,0 km/h (0 Bft) W 263 ° 0 min 0,000 mm 0,0 UV-I 0 W/m² 0,2 °C 3,5 °C 0,0 km/h (0 Bft)
10.01.2018 17:00 3,4 °C 79 % 1011,6 hPa 0,0 mm 0,0 km/h (0 Bft) W 263 ° 0 min 0,000 mm 0,0 UV-I 0 W/m² 0,1 °C 3,4 °C 0,0 km/h (0 Bft)
10.01.2018 17:01 3,4 °C 79 % 1011,6 hPa 0,0 mm 0,0 km/h (0 Bft) W 263 ° 0 min 0,000 mm 0,0 UV-I 0 W/m² 0,1 °C 3,4 °C 0,0 km/h (0 Bft)
10.01.2018 17:02 3,3 °C 79 % 1011,6 hPa 0,0 mm 0,0 km/h (0 Bft) W 263 ° 0 min 0,000 mm 0,0 UV-I 0 W/m² 0,0 °C 3,3 °C 0,0 km/h (0 Bft)
10.01.2018 17:03 3,3 °C 79 % 1011,6 hPa 0,0 mm 0,0 km/h (0 Bft) W 263 ° 0 min 0,000 mm 0,0 UV-I 0 W/m² 0,0 °C 3,3 °C 0,0 km/h (0 Bft)
10.01.2018 17:04 3,3 °C 79 % 1011,6 hPa 0,0 mm 0,0 km/h (0 Bft) W 263 ° 0 min 0,000 mm 0,0 UV-I 0 W/m² 0,0 °C 3,3 °C 0,0 km/h (0 Bft)
10.01.2018 17:05 3,3 °C 79 % 1011,6 hPa 0,0 mm 0,0 km/h (0 Bft) W 263 ° 0 min 0,000 mm 0,0 UV-I 0 W/m² 0,0 °C 3,3 °C 0,0 km/h (0 Bft)
10.01.2018 17:06 3,2 °C 80 % 1011,6 hPa 0,0 mm 0,0 km/h (0 Bft) W 263 ° 0 min 0,000 mm 0,0 UV-I 0 W/m² 0,1 °C 3,2 °C 0,0 km/h (0 Bft)
10.01.2018 17:07 3,2 °C 79 % 1011,6 hPa 0,0 mm 0,0 km/h (0 Bft) W 263 ° 0 min 0,000 mm 0,0 UV-I 0 W/m² -0,1 °C 3,2 °C 0,0 km/h (0 Bft)
10.01.2018 17:08 3,2 °C 79 % 1011,6 hPa 0,0 mm 0,0 km/h (0 Bft) W 263 ° 0 min 0,000 mm 0,0 UV-I 0 W/m² -0,1 °C 3,2 °C 0,0 km/h (0 Bft)
10.01.2018 17:09 3,1 °C 80 % 1011,6 hPa 0,0 mm 0,0 km/h (0 Bft) W 263 ° 0 min 0,000 mm 0,0 UV-I 0 W/m² -0,0 °C 3,1 °C 0,0 km/h (0 Bft)
10.01.2018 17:10 3,1 °C 80 % 1011,6 hPa 0,0 mm 0,0 km/h (0 Bft) W 263 ° 0 min 0,000 mm 0,0 UV-I 0 W/m² -0,0 °C 3,1 °C 0,0 km/h (0 Bft)
10.01.2018 17:11 3,0 °C 80 % 1011,6 hPa 0,0 mm 0,0 km/h (0 Bft) W 263 ° 0 min 0,000 mm 0,0 UV-I 0 W/m² -0,1 °C 3,0 °C 0,0 km/h (0 Bft)
10.01.2018 17:12 2,9 °C 81 % 1011,6 hPa 0,0 mm 1,8 km/h (1 Bft) W 263 ° 0 min 0,000 mm 0,0 UV-I 0 W/m² -0,0 °C 2,9 °C 4,8 km/h (1 Bft)
10.01.2018 17:13 2,9 °C 81 % 1011,6 hPa 0,0 mm 4,0 km/h (1 Bft) W 263 ° 0 min 0,000 mm 0,0 UV-I 0 W/m² -0,0 °C 2,9 °C 4,8 km/h (1 Bft)
10.01.2018 17:14 2,8 °C 81 % 1011,6 hPa 0,0 mm 4,0 km/h (1 Bft) W 263 ° 0 min 0,000 mm 0,0 UV-I 0 W/m² -0,1 °C 2,8 °C 4,8 km/h (1 Bft)
10.01.2018 17:15 2,7 °C 81 % 1011,6 hPa 0,0 mm 2,6 km/h (1 Bft) W 263 ° 0 min 0,000 mm 0,0 UV-I 0 W/m² -0,2 °C 2,7 °C 4,8 km/h (1 Bft)
10.01.2018 17:16 2,7 °C 82 % 1011,6 hPa 0,0 mm 1,5 km/h (1 Bft) W 263 ° 0 min 0,000 mm 0,0 UV-I 0 W/m² -0,1 °C 2,7 °C 3,2 km/h (1 Bft)
10.01.2018 17:17 2,7 °C 82 % 1011,6 hPa 0,0 mm 2,7 km/h (1 Bft) W 262 ° 0 min 0,000 mm 0,0 UV-I 0 W/m² -0,1 °C 2,7 °C 3,2 km/h (1 Bft)
10.01.2018 17:18 2,6 °C 83 % 1011,6 hPa 0,0 mm 3,1 km/h (1 Bft) W 261 ° 0 min 0,000 mm 0,0 UV-I 0 W/m² 0,0 °C 2,6 °C 3,2 km/h (1 Bft)
10.01.2018 17:19 2,6 °C 83 % 1011,6 hPa 0,0 mm 3,8 km/h (1 Bft) W 259 ° 0 min 0,000 mm 0,0 UV-I 0 W/m² 0,0 °C 2,6 °C 4,8 km/h (1 Bft)
10.01.2018 17:20 2,6 °C 83 % 1011,6 hPa 0,0 mm 3,6 km/h (1 Bft) W 259 ° 0 min 0,000 mm 0,0 UV-I 0 W/m² 0,0 °C 2,6 °C 4,8 km/h (1 Bft)
10.01.2018 17:21 2,6 °C 84 % 1011,6 hPa 0,0 mm 3,3 km/h (1 Bft) W 259 ° 0 min 0,000 mm 0,0 UV-I 0 W/m² 0,2 °C 2,6 °C 4,8 km/h (1 Bft)
10.01.2018 17:22 2,5 °C 84 % 1011,6 hPa 0,0 mm 2,7 km/h (1 Bft) W 259 ° 0 min 0,000 mm 0,0 UV-I 0 W/m² 0,1 °C 2,5 °C 4,8 km/h (1 Bft)
10.01.2018 17:23 2,4 °C 84 % 1011,6 hPa 0,0 mm 2,7 km/h (1 Bft) W 259 ° 0 min 0,000 mm 0,0 UV-I 0 W/m² -0,0 °C 2,4 °C 4,8 km/h (1 Bft)
10.01.2018 17:24 2,4 °C 84 % 1011,6 hPa 0,0 mm 1,3 km/h (1 Bft) W 259 ° 0 min 0,000 mm 0,0 UV-I 0 W/m² -0,0 °C 2,4 °C 3,2 km/h (1 Bft)
10.01.2018 17:25 2,4 °C 84 % 1011,6 hPa 0,0 mm 1,2 km/h (1 Bft) W 259 ° 0 min 0,000 mm 0,0 UV-I 0 W/m² -0,0 °C 2,4 °C 3,2 km/h (1 Bft)
10.01.2018 17:26 2,4 °C 84 % 1011,6 hPa 0,0 mm 2,5 km/h (1 Bft) W 259 ° 0 min 0,000 mm 0,0 UV-I 0 W/m² -0,0 °C 2,4 °C 4,8 km/h (1 Bft)
10.01.2018 17:27 2,4 °C 84 % 1011,6 hPa 0,0 mm 3,5 km/h (1 Bft) W 259 ° 0 min 0,000 mm 0,0 UV-I 0 W/m² -0,0 °C 2,4 °C 4,8 km/h (1 Bft)
10.01.2018 17:28 2,4 °C 84 % 1011,7 hPa 0,0 mm 3,6 km/h (1 Bft) W 259 ° 0 min 0,000 mm 0,0 UV-I 0 W/m² -0,0 °C 2,4 °C 4,8 km/h (1 Bft)
10.01.2018 17:29 2,3 °C 84 % 1011,7 hPa 0,0 mm 2,8 km/h (1 Bft) W 259 ° 0 min 0,000 mm 0,0 UV-I 0 W/m² -0,1 °C 2,3 °C 3,2 km/h (1 Bft)
10.01.2018 17:30 2,3 °C 84 % 1011,7 hPa 0,0 mm 1,8 km/h (1 Bft) W 259 ° 0 min 0,000 mm 0,0 UV-I 0 W/m² -0,1 °C 2,3 °C 3,2 km/h (1 Bft)
10.01.2018 17:31 2,3 °C 84 % 1011,6 hPa 0,0 mm 0,5 km/h (0 Bft) W 259 ° 0 min 0,000 mm 0,0 UV-I 0 W/m² -0,1 °C 2,3 °C 1,6 km/h (1 Bft)
10.01.2018 17:32 2,3 °C 85 % 1011,6 hPa 0,0 mm 0,0 km/h (0 Bft) W 259 ° 0 min 0,000 mm 0,0 UV-I 0 W/m² 0,0 °C 2,3 °C 0,0 km/h (0 Bft)
10.01.2018 17:33 2,3 °C 85 % 1011,6 hPa 0,0 mm 0,0 km/h (0 Bft) W 259 ° 0 min 0,000 mm 0,0 UV-I 0 W/m² 0,0 °C 2,3 °C 0,0 km/h (0 Bft)
10.01.2018 17:34 2,3 °C 84 % 1011,6 hPa 0,0 mm 0,0 km/h (0 Bft) W 259 ° 0 min 0,000 mm 0,0 UV-I 0 W/m² -0,1 °C 2,3 °C 0,0 km/h (0 Bft)
10.01.2018 17:35 2,2 °C 83 % 1011,6 hPa 0,0 mm 0,0 km/h (0 Bft) W 259 ° 0 min 0,000 mm 0,0 UV-I 0 W/m² -0,4 °C 2,2 °C 0,0 km/h (0 Bft)
10.01.2018 17:36 2,2 °C 83 % 1011,6 hPa 0,0 mm 0,0 km/h (0 Bft) W 259 ° 0 min 0,000 mm 0,0 UV-I 0 W/m² -0,4 °C 2,2 °C 0,0 km/h (0 Bft)
10.01.2018 17:37 2,1 °C 83 % 1011,6 hPa 0,0 mm 0,0 km/h (0 Bft) W 259 ° 0 min 0,000 mm 0,0 UV-I 0 W/m² -0,5 °C 2,1 °C 0,0 km/h (0 Bft)
10.01.2018 17:38 2,0 °C 83 % 1011,7 hPa 0,0 mm 0,0 km/h (0 Bft) W 259 ° 0 min 0,000 mm 0,0 UV-I 0 W/m² -0,6 °C 2,0 °C 0,0 km/h (0 Bft)
10.01.2018 17:39 2,0 °C 84 % 1011,7 hPa 0,0 mm 0,6 km/h (0 Bft) W 259 ° 0 min 0,000 mm 0,0 UV-I 0 W/m² -0,4 °C 2,0 °C 1,6 km/h (1 Bft)
10.01.2018 17:40 1,9 °C 84 % 1011,7 hPa 0,0 mm 0,3 km/h (0 Bft) W 259 ° 0 min 0,000 mm 0,0 UV-I 0 W/m² -0,5 °C 1,9 °C 1,6 km/h (1 Bft)
10.01.2018 17:41 1,9 °C 84 % 1011,8 hPa 0,0 mm 0,0 km/h (0 Bft) W 259 ° 0 min 0,000 mm 0,0 UV-I 0 W/m² -0,5 °C 1,9 °C 0,0 km/h (0 Bft)
10.01.2018 17:42 1,9 °C 84 % 1011,8 hPa 0,0 mm 0,0 km/h (0 Bft) W 259 ° 0 min 0,000 mm 0,0 UV-I 0 W/m² -0,5 °C 1,9 °C 0,0 km/h (0 Bft)
10.01.2018 17:43 1,9 °C 84 % 1011,8 hPa 0,0 mm 0,0 km/h (0 Bft) W 259 ° 0 min 0,000 mm 0,0 UV-I 0 W/m² -0,5 °C 1,9 °C 0,0 km/h (0 Bft)
10.01.2018 17:44 1,9 °C 84 % 1011,8 hPa 0,0 mm 0,0 km/h (0 Bft) W 259 ° 0 min 0,000 mm 0,0 UV-I 0 W/m² -0,5 °C 1,9 °C 0,0 km/h (0 Bft)
10.01.2018 17:45 1,9 °C 84 % 1011,8 hPa 0,0 mm 0,0 km/h (0 Bft) W 259 ° 0 min 0,000 mm 0,0 UV-I 0 W/m² -0,5 °C 1,9 °C 0,0 km/h (0 Bft)
10.01.2018 17:46 1,9 °C 84 % 1011,8 hPa 0,0 mm 0,0 km/h (0 Bft) W 259 ° 0 min 0,000 mm 0,0 UV-I 0 W/m² -0,5 °C 1,9 °C 0,0 km/h (0 Bft)
10.01.2018 17:47 1,8 °C 84 % 1011,9 hPa 0,0 mm 0,7 km/h (0 Bft) W 259 ° 0 min 0,000 mm 0,0 UV-I 0 W/m² -0,6 °C 1,8 °C 3,2 km/h (1 Bft)
10.01.2018 17:48 1,8 °C 85 % 1011,9 hPa 0,0 mm 1,6 km/h (1 Bft) W 259 ° 0 min 0,000 mm 0,0 UV-I 0 W/m² -0,4 °C 1,8 °C 3,2 km/h (1 Bft)
10.01.2018 17:49 1,8 °C 85 % 1011,9 hPa 0,0 mm 0,0 km/h (0 Bft) W 259 ° 0 min 0,000 mm 0,0 UV-I 0 W/m² -0,4 °C 1,8 °C 0,0 km/h (0 Bft)
10.01.2018 17:50 1,8 °C 85 % 1011,8 hPa 0,0 mm 0,0 km/h (0 Bft) W 259 ° 0 min 0,000 mm 0,0 UV-I 0 W/m² -0,4 °C 1,8 °C 0,0 km/h (0 Bft)
10.01.2018 17:51 1,8 °C 85 % 1011,8 hPa 0,0 mm 0,0 km/h (0 Bft) W 259 ° 0 min 0,000 mm 0,0 UV-I 0 W/m² -0,4 °C 1,8 °C 0,0 km/h (0 Bft)
10.01.2018 17:52 1,8 °C 85 % 1011,9 hPa 0,0 mm 0,0 km/h (0 Bft) W 259 ° 0 min 0,000 mm 0,0 UV-I 0 W/m² -0,4 °C 1,8 °C 0,0 km/h (0 Bft)
10.01.2018 17:53 1,7 °C 84 % 1011,9 hPa 0,0 mm 0,0 km/h (0 Bft) W 259 ° 0 min 0,000 mm 0,0 UV-I 0 W/m² -0,7 °C 1,7 °C 0,0 km/h (0 Bft)
10.01.2018 17:54 1,7 °C 84 % 1011,9 hPa 0,0 mm 0,0 km/h (0 Bft) W 259 ° 0 min 0,000 mm 0,0 UV-I 0 W/m² -0,7 °C 1,7 °C 0,0 km/h (0 Bft)
10.01.2018 17:55 1,7 °C 84 % 1011,9 hPa 0,0 mm 0,0 km/h (0 Bft) W 259 ° 0 min 0,000 mm 0,0 UV-I 0 W/m² -0,7 °C 1,7 °C 0,0 km/h (0 Bft)
10.01.2018 17:56 1,6 °C 84 % 1011,9 hPa 0,0 mm 0,0 km/h (0 Bft) W 259 ° 0 min 0,000 mm 0,0 UV-I 0 W/m² -0,8 °C 1,6 °C 0,0 km/h (0 Bft)
10.01.2018 17:57 1,6 °C 83 % 1011,9 hPa 0,0 mm 0,0 km/h (0 Bft) W 259 ° 0 min 0,000 mm 0,0 UV-I 0 W/m² -1,0 °C 1,6 °C 0,0 km/h (0 Bft)
10.01.2018 17:58 1,6 °C 83 % 1011,9 hPa 0,0 mm 0,0 km/h (0 Bft) W 259 ° 0 min 0,000 mm 0,0 UV-I 0 W/m² -1,0 °C 1,6 °C 0,0 km/h (0 Bft)
10.01.2018 17:59 1,6 °C 83 % 1011,9 hPa 0,0 mm 0,0 km/h (0 Bft) W 259 ° 0 min 0,000 mm 0,0 UV-I 0 W/m² -1,0 °C 1,6 °C 0,0 km/h (0 Bft)
10.01.2018 18:00 1,6 °C 84 % 1011,9 hPa 0,0 mm 0,0 km/h (0 Bft) W 259 ° 0 min 0,000 mm 0,0 UV-I 0 W/m² -0,8 °C 1,6 °C 0,0 km/h (0 Bft)
10.01.2018 18:01 1,6 °C 84 % 1011,9 hPa 0,0 mm 0,0 km/h (0 Bft) W 259 ° 0 min 0,000 mm 0,0 UV-I 0 W/m² -0,8 °C 1,6 °C 0,0 km/h (0 Bft)
10.01.2018 18:02 1,6 °C 84 % 1012,0 hPa 0,0 mm 0,0 km/h (0 Bft) W 259 ° 0 min 0,000 mm 0,0 UV-I 0 W/m² -0,8 °C 1,6 °C 0,0 km/h (0 Bft)
10.01.2018 18:03 1,5 °C 84 % 1012,0 hPa 0,0 mm 0,0 km/h (0 Bft) W 259 ° 0 min 0,000 mm 0,0 UV-I 0 W/m² -0,9 °C 1,5 °C 0,0 km/h (0 Bft)
10.01.2018 18:04 1,4 °C 84 % 1012,0 hPa 0,0 mm 0,0 km/h (0 Bft) W 259 ° 0 min 0,000 mm 0,0 UV-I 0 W/m² -1,0 °C 1,4 °C 0,0 km/h (0 Bft)
10.01.2018 18:05 1,4 °C 84 % 1012,0 hPa 0,0 mm 0,0 km/h (0 Bft) W 259 ° 0 min 0,000 mm 0,0 UV-I 0 W/m² -1,0 °C 1,4 °C 0,0 km/h (0 Bft)
10.01.2018 18:06 1,4 °C 84 % 1012,0 hPa 0,0 mm 0,0 km/h (0 Bft) W 259 ° 0 min 0,000 mm 0,0 UV-I 0 W/m² -1,0 °C 1,4 °C 0,0 km/h (0 Bft)
10.01.2018 18:07 1,4 °C 84 % 1012,0 hPa 0,0 mm 0,0 km/h (0 Bft) W 259 ° 0 min 0,000 mm 0,0 UV-I 0 W/m² -1,0 °C 1,4 °C 0,0 km/h (0 Bft)
10.01.2018 18:08 1,3 °C 85 % 1012,0 hPa 0,0 mm 0,0 km/h (0 Bft) W 259 ° 0 min 0,000 mm 0,0 UV-I 0 W/m² -0,9 °C 1,3 °C 0,0 km/h (0 Bft)
10.01.2018 18:09 1,3 °C 85 % 1012,0 hPa 0,0 mm 0,0 km/h (0 Bft) W 259 ° 0 min 0,000 mm 0,0 UV-I 0 W/m² -0,9 °C 1,3 °C 0,0 km/h (0 Bft)
10.01.2018 18:10 1,3 °C 85 % 1012,0 hPa 0,0 mm 0,0 km/h (0 Bft) W 259 ° 0 min 0,000 mm 0,0 UV-I 0 W/m² -0,9 °C 1,3 °C 0,0 km/h (0 Bft)
10.01.2018 18:11 1,3 °C 85 % 1012,0 hPa 0,0 mm 0,0 km/h (0 Bft) W 259 ° 0 min 0,000 mm 0,0 UV-I 0 W/m² -0,9 °C 1,3 °C 0,0 km/h (0 Bft)
10.01.2018 18:12 1,3 °C 85 % 1012,0 hPa 0,0 mm 0,0 km/h (0 Bft) W 259 ° 0 min 0,000 mm 0,0 UV-I 0 W/m² -0,9 °C 1,3 °C 0,0 km/h (0 Bft)
10.01.2018 18:13 1,3 °C 85 % 1012,0 hPa 0,0 mm 0,0 km/h (0 Bft) W 259 ° 0 min 0,000 mm 0,0 UV-I 0 W/m² -0,9 °C 1,3 °C 0,0 km/h (0 Bft)
10.01.2018 18:14 1,2 °C 85 % 1012,0 hPa 0,0 mm 0,0 km/h (0 Bft) W 259 ° 0 min 0,000 mm 0,0 UV-I 0 W/m² -1,0 °C 1,2 °C 0,0 km/h (0 Bft)
10.01.2018 18:15 1,2 °C 85 % 1012,0 hPa 0,0 mm 0,0 km/h (0 Bft) W 259 ° 0 min 0,000 mm 0,0 UV-I 0 W/m² -1,0 °C 1,2 °C 0,0 km/h (0 Bft)
10.01.2018 18:16 1,2 °C 86 % 1012,0 hPa 0,0 mm 0,0 km/h (0 Bft) W 259 ° 0 min 0,000 mm 0,0 UV-I 0 W/m² -0,9 °C 1,2 °C 0,0 km/h (0 Bft)
10.01.2018 18:17 1,2 °C 86 % 1011,9 hPa 0,0 mm 0,0 km/h (0 Bft) W 259 ° 0 min 0,000 mm 0,0 UV-I 0 W/m² -0,9 °C 1,2 °C 0,0 km/h (0 Bft)
10.01.2018 18:18 1,2 °C 86 % 1011,9 hPa 0,0 mm 0,0 km/h (0 Bft) W 259 ° 0 min 0,000 mm 0,0 UV-I 0 W/m² -0,9 °C 1,2 °C 0,0 km/h (0 Bft)
10.01.2018 18:19 1,1 °C 86 % 1012,0 hPa 0,0 mm 0,0 km/h (0 Bft) W 259 ° 0 min 0,000 mm 0,0 UV-I 0 W/m² -1,0 °C 1,1 °C 0,0 km/h (0 Bft)
10.01.2018 18:20 1,1 °C 86 % 1012,0 hPa 0,0 mm 0,0 km/h (0 Bft) W 259 ° 0 min 0,000 mm 0,0 UV-I 0 W/m² -1,0 °C 1,1 °C 0,0 km/h (0 Bft)
10.01.2018 18:21 1,1 °C 86 % 1012,0 hPa 0,0 mm 0,0 km/h (0 Bft) W 259 ° 0 min 0,000 mm 0,0 UV-I 0 W/m² -1,0 °C 1,1 °C 0,0 km/h (0 Bft)
10.01.2018 18:22 1,1 °C 86 % 1012,0 hPa 0,0 mm 0,0 km/h (0 Bft) W 259 ° 0 min 0,000 mm 0,0 UV-I 0 W/m² -1,0 °C 1,1 °C 0,0 km/h (0 Bft)
10.01.2018 18:23 1,1 °C 86 % 1012,0 hPa 0,0 mm 0,0 km/h (0 Bft) W 259 ° 0 min 0,000 mm 0,0 UV-I 0 W/m² -1,0 °C 1,1 °C 0,0 km/h (0 Bft)
10.01.2018 18:24 1,1 °C 86 % 1012,0 hPa 0,0 mm 0,0 km/h (0 Bft) W 259 ° 0 min 0,000 mm 0,0 UV-I 0 W/m² -1,0 °C 1,1 °C 0,0 km/h (0 Bft)
10.01.2018 18:25 1,0 °C 86 % 1012,0 hPa 0,0 mm 0,0 km/h (0 Bft) W 259 ° 0 min 0,000 mm 0,0 UV-I 0 W/m² -1,1 °C 1,0 °C 0,0 km/h (0 Bft)
10.01.2018 18:26 1,0 °C 86 % 1012,0 hPa 0,0 mm 0,0 km/h (0 Bft) W 259 ° 0 min 0,000 mm 0,0 UV-I 0 W/m² -1,1 °C 1,0 °C 0,0 km/h (0 Bft)
10.01.2018 18:27 0,9 °C 86 % 1012,0 hPa 0,0 mm 0,0 km/h (0 Bft) W 259 ° 0 min 0,000 mm 0,0 UV-I 0 W/m² -1,2 °C 0,9 °C 0,0 km/h (0 Bft)
10.01.2018 18:28 0,9 °C 86 % 1012,0 hPa 0,0 mm 0,0 km/h (0 Bft) W 259 ° 0 min 0,000 mm 0,0 UV-I 0 W/m² -1,2 °C 0,9 °C 0,0 km/h (0 Bft)
10.01.2018 18:29 0,9 °C 85 % 1012,1 hPa 0,0 mm 0,0 km/h (0 Bft) W 259 ° 0 min 0,000 mm 0,0 UV-I 0 W/m² -1,3 °C 0,9 °C 0,0 km/h (0 Bft)
10.01.2018 18:30 0,8 °C 85 % 1012,0 hPa 0,0 mm 0,0 km/h (0 Bft) W 259 ° 0 min 0,000 mm 0,0 UV-I 0 W/m² -1,4 °C 0,8 °C 0,0 km/h (0 Bft)
10.01.2018 18:31 0,8 °C 85 % 1012,1 hPa 0,0 mm 0,0 km/h (0 Bft) W 259 ° 0 min 0,000 mm 0,0 UV-I 0 W/m² -1,4 °C 0,8 °C 0,0 km/h (0 Bft)
10.01.2018 18:32 0,8 °C 85 % 1012,1 hPa 0,0 mm 0,0 km/h (0 Bft) W 259 ° 0 min 0,000 mm 0,0 UV-I 0 W/m² -1,4 °C 0,8 °C 0,0 km/h (0 Bft)
10.01.2018 18:33 0,8 °C 86 % 1012,1 hPa 0,0 mm 0,0 km/h (0 Bft) W 259 ° 0 min 0,000 mm 0,0 UV-I 0 W/m² -1,3 °C 0,8 °C 0,0 km/h (0 Bft)
10.01.2018 18:34 0,8 °C 86 % 1012,1 hPa 0,0 mm 0,0 km/h (0 Bft) W 259 ° 0 min 0,000 mm 0,0 UV-I 0 W/m² -1,3 °C 0,8 °C 0,0 km/h (0 Bft)
10.01.2018 18:35 0,8 °C 86 % 1012,1 hPa 0,0 mm 0,0 km/h (0 Bft) W 259 ° 0 min 0,000 mm 0,0 UV-I 0 W/m² -1,3 °C 0,8 °C 0,0 km/h (0 Bft)
10.01.2018 18:36 0,8 °C 86 % 1012,1 hPa 0,0 mm 0,0 km/h (0 Bft) W 259 ° 0 min 0,000 mm 0,0 UV-I 0 W/m² -1,3 °C 0,8 °C 0,0 km/h (0 Bft)
10.01.2018 18:37 0,8 °C 86 % 1012,1 hPa 0,0 mm 0,0 km/h (0 Bft) W 259 ° 0 min 0,000 mm 0,0 UV-I 0 W/m² -1,3 °C 0,8 °C 0,0 km/h (0 Bft)
10.01.2018 18:38 0,7 °C 86 % 1012,1 hPa 0,0 mm 0,0 km/h (0 Bft) W 259 ° 0 min 0,000 mm 0,0 UV-I 0 W/m² -1,4 °C 0,7 °C 0,0 km/h (0 Bft)
10.01.2018 18:39 0,7 °C 86 % 1012,2 hPa 0,0 mm 0,0 km/h (0 Bft) W 259 ° 0 min 0,000 mm 0,0 UV-I 0 W/m² -1,4 °C 0,7 °C 0,0 km/h (0 Bft)
10.01.2018 18:40 0,7 °C 86 % 1012,2 hPa 0,0 mm 0,0 km/h (0 Bft) W 259 ° 0 min 0,000 mm 0,0 UV-I 0 W/m² -1,4 °C 0,7 °C 0,0 km/h (0 Bft)
10.01.2018 18:41 0,7 °C 86 % 1012,1 hPa 0,0 mm 0,0 km/h (0 Bft) W 259 ° 0 min 0,000 mm 0,0 UV-I 0 W/m² -1,4 °C 0,7 °C 0,0 km/h (0 Bft)
10.01.2018 18:42 0,7 °C 86 % 1012,2 hPa 0,0 mm 0,0 km/h (0 Bft) W 259 ° 0 min 0,000 mm 0,0 UV-I 0 W/m² -1,4 °C 0,7 °C 0,0 km/h (0 Bft)
10.01.2018 18:43 0,7 °C 86 % 1012,2 hPa 0,0 mm 0,0 km/h (0 Bft) W 259 ° 0 min 0,000 mm 0,0 UV-I 0 W/m² -1,4 °C 0,7 °C 0,0 km/h (0 Bft)
10.01.2018 18:44 0,6 °C 86 % 1012,2 hPa 0,0 mm 0,0 km/h (0 Bft) W 259 ° 0 min 0,000 mm 0,0 UV-I 0 W/m² -1,5 °C 0,6 °C 0,0 km/h (0 Bft)
10.01.2018 18:45 0,6 °C 86 % 1012,2 hPa 0,0 mm 0,0 km/h (0 Bft) W 259 ° 0 min 0,000 mm 0,0 UV-I 0 W/m² -1,5 °C 0,6 °C 0,0 km/h (0 Bft)
10.01.2018 18:46 0,6 °C 86 % 1012,2 hPa 0,0 mm 0,0 km/h (0 Bft) W 259 ° 0 min 0,000 mm 0,0 UV-I 0 W/m² -1,5 °C 0,6 °C 0,0 km/h (0 Bft)
10.01.2018 18:47 0,6 °C 87 % 1012,2 hPa 0,0 mm 0,0 km/h (0 Bft) W 259 ° 0 min 0,000 mm 0,0 UV-I 0 W/m² -1,3 °C 0,6 °C 0,0 km/h (0 Bft)
10.01.2018 18:48 0,6 °C 87 % 1012,1 hPa 0,0 mm 0,0 km/h (0 Bft) W 259 ° 0 min 0,000 mm 0,0 UV-I 0 W/m² -1,3 °C 0,6 °C 0,0 km/h (0 Bft)
10.01.2018 18:49 0,6 °C 87 % 1012,2 hPa 0,0 mm 0,0 km/h (0 Bft) W 259 ° 0 min 0,000 mm 0,0 UV-I 0 W/m² -1,3 °C 0,6 °C 0,0 km/h (0 Bft)
10.01.2018 18:50 0,5 °C 87 % 1012,2 hPa 0,0 mm 0,0 km/h (0 Bft) W 259 ° 0 min 0,000 mm 0,0 UV-I 0 W/m² -1,4 °C 0,5 °C 0,0 km/h (0 Bft)
10.01.2018 18:51 0,4 °C 87 % 1012,2 hPa 0,0 mm 0,0 km/h (0 Bft) W 259 ° 0 min 0,000 mm 0,0 UV-I 0 W/m² -1,5 °C 0,4 °C 0,0 km/h (0 Bft)
10.01.2018 18:52 0,4 °C 87 % 1012,2 hPa 0,0 mm 0,0 km/h (0 Bft) W 259 ° 0 min 0,000 mm 0,0 UV-I 0 W/m² -1,5 °C 0,4 °C 0,0 km/h (0 Bft)
10.01.2018 18:53 0,4 °C 87 % 1012,2 hPa 0,0 mm 0,0 km/h (0 Bft) W 259 ° 0 min 0,000 mm 0,0 UV-I 0 W/m² -1,5 °C 0,4 °C 0,0 km/h (0 Bft)
10.01.2018 18:54 0,4 °C 87 % 1012,2 hPa 0,0 mm 0,0 km/h (0 Bft) W 259 ° 0 min 0,000 mm 0,0 UV-I 0 W/m² -1,5 °C 0,4 °C 0,0 km/h (0 Bft)
10.01.2018 18:55 0,4 °C 87 % 1012,2 hPa 0,0 mm 0,0 km/h (0 Bft) W 259 ° 0 min 0,000 mm 0,0 UV-I 0 W/m² -1,5 °C 0,4 °C 0,0 km/h (0 Bft)
10.01.2018 18:56 0,4 °C 87 % 1012,2 hPa 0,0 mm 0,0 km/h (0 Bft) W 259 ° 0 min 0,000 mm 0,0 UV-I 0 W/m² -1,5 °C 0,4 °C 0,0 km/h (0 Bft)
10.01.2018 18:57 0,4 °C 87 % 1012,2 hPa 0,0 mm 0,0 km/h (0 Bft) W 259 ° 0 min 0,000 mm 0,0 UV-I 0 W/m² -1,5 °C 0,4 °C 0,0 km/h (0 Bft)
10.01.2018 18:58 0,4 °C 87 % 1012,3 hPa 0,0 mm 0,0 km/h (0 Bft) W 259 ° 0 min 0,000 mm 0,0 UV-I 0 W/m² -1,5 °C 0,4 °C 0,0 km/h (0 Bft)
10.01.2018 18:59 0,3 °C 87 % 1012,3 hPa 0,0 mm 0,0 km/h (0 Bft) W 259 ° 0 min 0,000 mm 0,0 UV-I 0 W/m² -1,6 °C 0,3 °C 0,0 km/h (0 Bft)
10.01.2018 19:00 0,3 °C 87 % 1012,3 hPa 0,0 mm 0,0 km/h (0 Bft) W 259 ° 0 min 0,000 mm 0,0 UV-I 0 W/m² -1,6 °C 0,3 °C 0,0 km/h (0 Bft)
10.01.2018 19:01 0,3 °C 87 % 1012,4 hPa 0,0 mm 0,0 km/h (0 Bft) W 259 ° 0 min 0,000 mm 0,0 UV-I 0 W/m² -1,6 °C 0,3 °C 0,0 km/h (0 Bft)
10.01.2018 19:02 0,3 °C 87 % 1012,4 hPa 0,0 mm 0,0 km/h (0 Bft) W 259 ° 0 min 0,000 mm 0,0 UV-I 0 W/m² -1,6 °C 0,3 °C 0,0 km/h (0 Bft)
10.01.2018 19:03 0,3 °C 87 % 1012,3 hPa 0,0 mm 0,0 km/h (0 Bft) W 259 ° 0 min 0,000 mm 0,0 UV-I 0 W/m² -1,6 °C 0,3 °C 0,0 km/h (0 Bft)
10.01.2018 19:04 0,3 °C 87 % 1012,3 hPa 0,0 mm 0,0 km/h (0 Bft) W 259 ° 0 min 0,000 mm 0,0 UV-I 0 W/m² -1,6 °C 0,3 °C 0,0 km/h (0 Bft)
10.01.2018 19:05 0,2 °C 87 % 1012,4 hPa 0,0 mm 0,0 km/h (0 Bft) W 259 ° 0 min 0,000 mm 0,0 UV-I 0 W/m² -1,7 °C 0,2 °C 0,0 km/h (0 Bft)
10.01.2018 19:06 0,2 °C 87 % 1012,4 hPa 0,0 mm 0,0 km/h (0 Bft) W 259 ° 0 min 0,000 mm 0,0 UV-I 0 W/m² -1,7 °C 0,2 °C 0,0 km/h (0 Bft)
10.01.2018 19:07 0,2 °C 87 % 1012,4 hPa 0,0 mm 0,0 km/h (0 Bft) W 259 ° 0 min 0,000 mm 0,0 UV-I 0 W/m² -1,7 °C 0,2 °C 0,0 km/h (0 Bft)
10.01.2018 19:08 0,1 °C 87 % 1012,4 hPa 0,0 mm 0,0 km/h (0 Bft) W 259 ° 0 min 0,000 mm 0,0 UV-I 0 W/m² -1,8 °C 0,1 °C 0,0 km/h (0 Bft)
10.01.2018 19:09 0,1 °C 87 % 1012,3 hPa 0,0 mm 0,0 km/h (0 Bft) W 259 ° 0 min 0,000 mm 0,0 UV-I 0 W/m² -1,8 °C 0,1 °C 0,0 km/h (0 Bft)
10.01.2018 19:10 0,1 °C 87 % 1012,3 hPa 0,0 mm 0,0 km/h (0 Bft) W 259 ° 0 min 0,000 mm 0,0 UV-I 0 W/m² -1,8 °C 0,1 °C 0,0 km/h (0 Bft)
10.01.2018 19:11 0,1 °C 87 % 1012,3 hPa 0,0 mm 0,0 km/h (0 Bft) W 259 ° 0 min 0,000 mm 0,0 UV-I 0 W/m² -1,8 °C 0,1 °C 0,0 km/h (0 Bft)
10.01.2018 19:12 0,1 °C 87 % 1012,4 hPa 0,0 mm 0,0 km/h (0 Bft) W 259 ° 0 min 0,000 mm 0,0 UV-I 0 W/m² -1,8 °C 0,1 °C 0,0 km/h (0 Bft)
10.01.2018 19:13 0,0 °C 86 % 1012,3 hPa 0,0 mm 0,0 km/h (0 Bft) W 259 ° 0 min 0,000 mm 0,0 UV-I 0 W/m² -2,1 °C 0,0 °C 0,0 km/h (0 Bft)
10.01.2018 19:14 0,0 °C 86 % 1012,3 hPa 0,0 mm 0,0 km/h (0 Bft) W 259 ° 0 min 0,000 mm 0,0 UV-I 0 W/m² -2,1 °C 0,0 °C 0,0 km/h (0 Bft)
10.01.2018 19:15 0,0 °C 86 % 1012,3 hPa 0,0 mm 0,0 km/h (0 Bft) W 259 ° 0 min 0,000 mm 0,0 UV-I 0 W/m² -2,1 °C 0,0 °C 0,0 km/h (0 Bft)
10.01.2018 19:16 -0,1 °C 86 % 1012,3 hPa 0,0 mm 0,0 km/h (0 Bft) W 259 ° 0 min 0,000 mm 0,0 UV-I 0 W/m² -2,2 °C -0,1 °C 0,0 km/h (0 Bft)
10.01.2018 19:17 -0,1 °C 86 % 1012,4 hPa 0,0 mm 0,0 km/h (0 Bft) W 259 ° 0 min 0,000 mm 0,0 UV-I 0 W/m² -2,2 °C -0,1 °C 0,0 km/h (0 Bft)
10.01.2018 19:18 -0,1 °C 86 % 1012,3 hPa 0,0 mm 0,0 km/h (0 Bft) W 259 ° 0 min 0,000 mm 0,0 UV-I 0 W/m² -2,2 °C -0,1 °C 0,0 km/h (0 Bft)
10.01.2018 19:19 -0,1 °C 87 % 1012,4 hPa 0,0 mm 0,0 km/h (0 Bft) W 259 ° 0 min 0,000 mm 0,0 UV-I 0 W/m² -2,0 °C -0,1 °C 0,0 km/h (0 Bft)
10.01.2018 19:20 -0,2 °C 87 % 1012,4 hPa 0,0 mm 0,0 km/h (0 Bft) W 259 ° 0 min 0,000 mm 0,0 UV-I 0 W/m² -2,1 °C -0,2 °C 0,0 km/h (0 Bft)
10.01.2018 19:21 -0,2 °C 87 % 1012,4 hPa 0,0 mm 0,0 km/h (0 Bft) W 259 ° 0 min 0,000 mm 0,0 UV-I 0 W/m² -2,1 °C -0,2 °C 0,0 km/h (0 Bft)
10.01.2018 19:22 -0,2 °C 87 % 1012,4 hPa 0,0 mm 0,0 km/h (0 Bft) W 259 ° 0 min 0,000 mm 0,0 UV-I 0 W/m² -2,1 °C -0,2 °C 0,0 km/h (0 Bft)
10.01.2018 19:23 -0,2 °C 87 % 1012,4 hPa 0,0 mm 0,0 km/h (0 Bft) W 259 ° 0 min 0,000 mm 0,0 UV-I 0 W/m² -2,1 °C -0,2 °C 0,0 km/h (0 Bft)
10.01.2018 19:24 -0,2 °C 87 % 1012,4 hPa 0,0 mm 0,0 km/h (0 Bft) W 259 ° 0 min 0,000 mm 0,0 UV-I 0 W/m² -2,1 °C -0,2 °C 0,0 km/h (0 Bft)
10.01.2018 19:25 -0,3 °C 87 % 1012,4 hPa 0,0 mm 0,0 km/h (0 Bft) W 259 ° 0 min 0,000 mm 0,0 UV-I 0 W/m² -2,2 °C -0,3 °C 0,0 km/h (0 Bft)
10.01.2018 19:26 -0,3 °C 87 % 1012,5 hPa 0,0 mm 0,0 km/h (0 Bft) W 259 ° 0 min 0,000 mm 0,0 UV-I 0 W/m² -2,2 °C -0,3 °C 0,0 km/h (0 Bft)
10.01.2018 19:27 -0,3 °C 87 % 1012,4 hPa 0,0 mm 0,0 km/h (0 Bft) W 259 ° 0 min 0,000 mm 0,0 UV-I 0 W/m² -2,2 °C -0,3 °C 0,0 km/h (0 Bft)
10.01.2018 19:28 -0,3 °C 87 % 1012,4 hPa 0,0 mm 0,0 km/h (0 Bft) W 259 ° 0 min 0,000 mm 0,0 UV-I 0 W/m² -2,2 °C -0,3 °C 0,0 km/h (0 Bft)
10.01.2018 19:29 -0,3 °C 87 % 1012,4 hPa 0,0 mm 0,0 km/h (0 Bft) W 259 ° 0 min 0,000 mm 0,0 UV-I 0 W/m² -2,2 °C -0,3 °C 0,0 km/h (0 Bft)
10.01.2018 19:30 -0,4 °C 87 % 1012,4 hPa 0,0 mm 0,0 km/h (0 Bft) W 259 ° 0 min 0,000 mm 0,0 UV-I 0 W/m² -2,3 °C -0,4 °C 0,0 km/h (0 Bft)
10.01.2018 19:31 -0,4 °C 87 % 1012,5 hPa 0,0 mm 0,0 km/h (0 Bft) W 259 ° 0 min 0,000 mm 0,0 UV-I 0 W/m² -2,3 °C -0,4 °C 0,0 km/h (0 Bft)
10.01.2018 19:32 -0,4 °C 87 % 1012,5 hPa 0,0 mm 0,0 km/h (0 Bft) W 259 ° 0 min 0,000 mm 0,0 UV-I 0 W/m² -2,3 °C -0,4 °C 0,0 km/h (0 Bft)
10.01.2018 19:33 -0,4 °C 87 % 1012,5 hPa 0,0 mm 0,0 km/h (0 Bft) W 259 ° 0 min 0,000 mm 0,0 UV-I 0 W/m² -2,3 °C -0,4 °C 0,0 km/h (0 Bft)
10.01.2018 19:34 -0,5 °C 87 % 1012,5 hPa 0,0 mm 0,0 km/h (0 Bft) W 259 ° 0 min 0,000 mm 0,0 UV-I 0 W/m² -2,4 °C -0,5 °C 0,0 km/h (0 Bft)
10.01.2018 19:35 -0,5 °C 87 % 1012,5 hPa 0,0 mm 0,0 km/h (0 Bft) W 259 ° 0 min 0,000 mm 0,0 UV-I 0 W/m² -2,4 °C -0,5 °C 0,0 km/h (0 Bft)
10.01.2018 19:36 -0,5 °C 87 % 1012,5 hPa 0,0 mm 0,0 km/h (0 Bft) W 259 ° 0 min 0,000 mm 0,0 UV-I 0 W/m² -2,4 °C -0,5 °C 0,0 km/h (0 Bft)
10.01.2018 19:37 -0,6 °C 87 % 1012,5 hPa 0,0 mm 0,0 km/h (0 Bft) W 259 ° 0 min 0,000 mm 0,0 UV-I 0 W/m² -2,5 °C -0,6 °C 0,0 km/h (0 Bft)
10.01.2018 19:38 -0,6 °C 87 % 1012,5 hPa 0,0 mm 0,0 km/h (0 Bft) W 259 ° 0 min 0,000 mm 0,0 UV-I 0 W/m² -2,5 °C -0,6 °C 0,0 km/h (0 Bft)
10.01.2018 19:39 -0,6 °C 88 % 1012,5 hPa 0,0 mm 0,0 km/h (0 Bft) W 259 ° 0 min 0,000 mm 0,0 UV-I 0 W/m² -2,3 °C -0,6 °C 0,0 km/h (0 Bft)
10.01.2018 19:40 -0,6 °C 88 % 1012,5 hPa 0,0 mm 0,0 km/h (0 Bft) W 259 ° 0 min 0,000 mm 0,0 UV-I 0 W/m² -2,3 °C -0,6 °C 0,0 km/h (0 Bft)
10.01.2018 19:41 -0,6 °C 88 % 1012,5 hPa 0,0 mm 0,0 km/h (0 Bft) W 259 ° 0 min 0,000 mm 0,0 UV-I 0 W/m² -2,3 °C -0,6 °C 0,0 km/h (0 Bft)
10.01.2018 19:42 -0,6 °C 88 % 1012,5 hPa 0,0 mm 0,0 km/h (0 Bft) W 259 ° 0 min 0,000 mm 0,0 UV-I 0 W/m² -2,3 °C -0,6 °C 0,0 km/h (0 Bft)
10.01.2018 19:43 -0,6 °C 88 % 1012,5 hPa 0,0 mm 0,0 km/h (0 Bft) W 259 ° 0 min 0,000 mm 0,0 UV-I 0 W/m² -2,3 °C -0,6 °C 0,0 km/h (0 Bft)
10.01.2018 19:44 -0,6 °C 88 % 1012,5 hPa 0,0 mm 0,0 km/h (0 Bft) W 259 ° 0 min 0,000 mm 0,0 UV-I 0 W/m² -2,3 °C -0,6 °C 0,0 km/h (0 Bft)
10.01.2018 19:45 -0,7 °C 88 % 1012,5 hPa 0,0 mm 0,0 km/h (0 Bft) W 259 ° 0 min 0,000 mm 0,0 UV-I 0 W/m² -2,4 °C -0,7 °C 0,0 km/h (0 Bft)
10.01.2018 19:46 -0,7 °C 88 % 1012,5 hPa 0,0 mm 0,0 km/h (0 Bft) W 259 ° 0 min 0,000 mm 0,0 UV-I 0 W/m² -2,4 °C -0,7 °C 0,0 km/h (0 Bft)
10.01.2018 19:47 -0,7 °C 88 % 1012,5 hPa 0,0 mm 0,0 km/h (0 Bft) W 259 ° 0 min 0,000 mm 0,0 UV-I 0 W/m² -2,4 °C -0,7 °C 0,0 km/h (0 Bft)
10.01.2018 19:48 -0,7 °C 89 % 1012,5 hPa 0,0 mm 0,0 km/h (0 Bft) W 259 ° 0 min 0,000 mm 0,0 UV-I 0 W/m² -2,3 °C -0,7 °C 0,0 km/h (0 Bft)
10.01.2018 19:49 -0,7 °C 89 % 1012,5 hPa 0,0 mm 0,0 km/h (0 Bft) W 259 ° 0 min 0,000 mm 0,0 UV-I 0 W/m² -2,3 °C -0,7 °C 0,0 km/h (0 Bft)
10.01.2018 19:50 -0,7 °C 89 % 1012,5 hPa 0,0 mm 0,0 km/h (0 Bft) W 259 ° 0 min 0,000 mm 0,0 UV-I 0 W/m² -2,3 °C -0,7 °C 0,0 km/h (0 Bft)
10.01.2018 19:51 -0,7 °C 89 % 1012,5 hPa 0,0 mm 0,0 km/h (0 Bft) W 259 ° 0 min 0,000 mm 0,0 UV-I 0 W/m² -2,3 °C -0,7 °C 0,0 km/h (0 Bft)
10.01.2018 19:52 -0,7 °C 89 % 1012,5 hPa 0,0 mm 0,0 km/h (0 Bft) W 259 ° 0 min 0,000 mm 0,0 UV-I 0 W/m² -2,3 °C -0,7 °C 0,0 km/h (0 Bft)
10.01.2018 19:53 -0,7 °C 89 % 1012,5 hPa 0,0 mm 0,0 km/h (0 Bft) W 259 ° 0 min 0,000 mm 0,0 UV-I 0 W/m² -2,3 °C -0,7 °C 0,0 km/h (0 Bft)
10.01.2018 19:54 -0,7 °C 89 % 1012,5 hPa 0,0 mm 0,0 km/h (0 Bft) W 259 ° 0 min 0,000 mm 0,0 UV-I 0 W/m² -2,3 °C -0,7 °C 0,0 km/h (0 Bft)
10.01.2018 19:55 -0,7 °C 89 % 1012,5 hPa 0,0 mm 0,0 km/h (0 Bft) W 259 ° 0 min 0,000 mm 0,0 UV-I 0 W/m² -2,3 °C -0,7 °C 0,0 km/h (0 Bft)
10.01.2018 19:56 -0,8 °C 89 % 1012,5 hPa 0,0 mm 0,0 km/h (0 Bft) W 259 ° 0 min 0,000 mm 0,0 UV-I 0 W/m² -2,4 °C -0,8 °C 0,0 km/h (0 Bft)
10.01.2018 19:57 -0,7 °C 89 % 1012,5 hPa 0,0 mm 0,0 km/h (0 Bft) W 259 ° 0 min 0,000 mm 0,0 UV-I 0 W/m² -2,3 °C -0,7 °C 0,0 km/h (0 Bft)
10.01.2018 19:58 -0,8 °C 89 % 1012,5 hPa 0,0 mm 0,0 km/h (0 Bft) W 259 ° 0 min 0,000 mm 0,0 UV-I 0 W/m² -2,4 °C -0,8 °C 0,0 km/h (0 Bft)
10.01.2018 19:59 -0,8 °C 89 % 1012,5 hPa 0,0 mm 0,0 km/h (0 Bft) W 259 ° 0 min 0,000 mm 0,0 UV-I 0 W/m² -2,4 °C -0,8 °C 0,0 km/h (0 Bft)
10.01.2018 20:00 -0,8 °C 89 % 1012,4 hPa 0,0 mm 0,0 km/h (0 Bft) W 259 ° 0 min 0,000 mm 0,0 UV-I 0 W/m² -2,4 °C -0,8 °C 0,0 km/h (0 Bft)
10.01.2018 20:01 -0,8 °C 89 % 1012,4 hPa 0,0 mm 0,0 km/h (0 Bft) W 259 ° 0 min 0,000 mm 0,0 UV-I 0 W/m² -2,4 °C -0,8 °C 0,0 km/h (0 Bft)
10.01.2018 20:02 -0,8 °C 89 % 1012,4 hPa 0,0 mm 0,0 km/h (0 Bft) W 259 ° 0 min 0,000 mm 0,0 UV-I 0 W/m² -2,4 °C -0,8 °C 0,0 km/h (0 Bft)
10.01.2018 20:03 -0,8 °C 89 % 1012,4 hPa 0,0 mm 0,0 km/h (0 Bft) W 259 ° 0 min 0,000 mm 0,0 UV-I 0 W/m² -2,4 °C -0,8 °C 0,0 km/h (0 Bft)
10.01.2018 20:04 -0,8 °C 89 % 1012,4 hPa 0,0 mm 0,0 km/h (0 Bft) W 259 ° 0 min 0,000 mm 0,0 UV-I 0 W/m² -2,4 °C -0,8 °C 0,0 km/h (0 Bft)
10.01.2018 20:05 -0,9 °C 89 % 1012,5 hPa 0,0 mm 0,0 km/h (0 Bft) W 259 ° 0 min 0,000 mm 0,0 UV-I 0 W/m² -2,5 °C -0,9 °C 0,0 km/h (0 Bft)
10.01.2018 20:06 -0,9 °C 89 % 1012,5 hPa 0,0 mm 0,0 km/h (0 Bft) W 259 ° 0 min 0,000 mm 0,0 UV-I 0 W/m² -2,5 °C -0,9 °C 0,0 km/h (0 Bft)
10.01.2018 20:07 -0,9 °C 89 % 1012,5 hPa 0,0 mm 0,0 km/h (0 Bft) W 259 ° 0 min 0,000 mm 0,0 UV-I 0 W/m² -2,5 °C -0,9 °C 0,0 km/h (0 Bft)
10.01.2018 20:08 -0,9 °C 89 % 1012,5 hPa 0,0 mm 0,0 km/h (0 Bft) W 259 ° 0 min 0,000 mm 0,0 UV-I 0 W/m² -2,5 °C -0,9 °C 0,0 km/h (0 Bft)
10.01.2018 20:09 -0,9 °C 89 % 1012,4 hPa 0,0 mm 0,0 km/h (0 Bft) W 259 ° 0 min 0,000 mm 0,0 UV-I 0 W/m² -2,5 °C -0,9 °C 0,0 km/h (0 Bft)
10.01.2018 20:10 -0,9 °C 89 % 1012,5 hPa 0,0 mm 0,0 km/h (0 Bft) W 259 ° 0 min 0,000 mm 0,0 UV-I 0 W/m² -2,5 °C -0,9 °C 0,0 km/h (0 Bft)
10.01.2018 20:11 -0,9 °C 89 % 1012,5 hPa 0,0 mm 0,0 km/h (0 Bft) W 259 ° 0 min 0,000 mm 0,0 UV-I 0 W/m² -2,5 °C -0,9 °C 0,0 km/h (0 Bft)
10.01.2018 20:12 -0,9 °C 89 % 1012,4 hPa 0,0 mm 0,0 km/h (0 Bft) W 259 ° 0 min 0,000 mm 0,0 UV-I 0 W/m² -2,5 °C -0,9 °C 0,0 km/h (0 Bft)
10.01.2018 20:13 -1,0 °C 89 % 1012,4 hPa 0,0 mm 0,0 km/h (0 Bft) W 259 ° 0 min 0,000 mm 0,0 UV-I 0 W/m² -2,6 °C -1,0 °C 0,0 km/h (0 Bft)
10.01.2018 20:14 -1,0 °C 89 % 1012,5 hPa 0,0 mm 0,0 km/h (0 Bft) W 259 ° 0 min 0,000 mm 0,0 UV-I 0 W/m² -2,6 °C -1,0 °C 0,0 km/h (0 Bft)
10.01.2018 20:15 -1,0 °C 89 % 1012,5 hPa 0,0 mm 0,0 km/h (0 Bft) W 259 ° 0 min 0,000 mm 0,0 UV-I 0 W/m² -2,6 °C -1,0 °C 0,0 km/h (0 Bft)
10.01.2018 20:16 -1,1 °C 89 % 1012,5 hPa 0,0 mm 0,0 km/h (0 Bft) W 259 ° 0 min 0,000 mm 0,0 UV-I 0 W/m² -2,7 °C -1,1 °C 0,0 km/h (0 Bft)
10.01.2018 20:17 -1,1 °C 89 % 1012,5 hPa 0,0 mm 0,0 km/h (0 Bft) W 259 ° 0 min 0,000 mm 0,0 UV-I 0 W/m² -2,7 °C -1,1 °C 0,0 km/h (0 Bft)
10.01.2018 20:18 -1,1 °C 89 % 1012,5 hPa 0,0 mm 0,0 km/h (0 Bft) W 259 ° 0 min 0,000 mm 0,0 UV-I 0 W/m² -2,7 °C -1,1 °C 0,0 km/h (0 Bft)
10.01.2018 20:19 -1,1 °C 89 % 1012,5 hPa 0,0 mm 0,0 km/h (0 Bft) W 259 ° 0 min 0,000 mm 0,0 UV-I 0 W/m² -2,7 °C -1,1 °C 0,0 km/h (0 Bft)
10.01.2018 20:20 -1,1 °C 89 % 1012,5 hPa 0,0 mm 0,0 km/h (0 Bft) W 259 ° 0 min 0,000 mm 0,0 UV-I 0 W/m² -2,7 °C -1,1 °C 0,0 km/h (0 Bft)
10.01.2018 20:21 -1,1 °C 89 % 1012,4 hPa 0,0 mm 0,0 km/h (0 Bft) W 259 ° 0 min 0,000 mm 0,0 UV-I 0 W/m² -2,7 °C -1,1 °C 0,0 km/h (0 Bft)
10.01.2018 20:22 -1,2 °C 89 % 1012,5 hPa 0,0 mm 0,0 km/h (0 Bft) W 259 ° 0 min 0,000 mm 0,0 UV-I 0 W/m² -2,8 °C -1,2 °C 0,0 km/h (0 Bft)
10.01.2018 20:23 -1,2 °C 89 % 1012,4 hPa 0,0 mm 0,0 km/h (0 Bft) W 259 ° 0 min 0,000 mm 0,0 UV-I 0 W/m² -2,8 °C -1,2 °C 0,0 km/h (0 Bft)
10.01.2018 20:24 -1,2 °C 89 % 1012,4 hPa 0,0 mm 0,0 km/h (0 Bft) W 259 ° 0 min 0,000 mm 0,0 UV-I 0 W/m² -2,8 °C -1,2 °C 0,0 km/h (0 Bft)
10.01.2018 20:25 -1,2 °C 89 % 1012,4 hPa 0,0 mm 0,0 km/h (0 Bft) W 259 ° 0 min 0,000 mm 0,0 UV-I 0 W/m² -2,8 °C -1,2 °C 0,0 km/h (0 Bft)
10.01.2018 20:26 -1,2 °C 89 % 1012,5 hPa 0,0 mm 0,0 km/h (0 Bft) W 259 ° 0 min 0,000 mm 0,0 UV-I 0 W/m² -2,8 °C -1,2 °C 0,0 km/h (0 Bft)
10.01.2018 20:27 -1,2 °C 89 % 1012,4 hPa 0,0 mm 0,0 km/h (0 Bft) W 259 ° 0 min 0,000 mm 0,0 UV-I 0 W/m² -2,8 °C -1,2 °C 0,0 km/h (0 Bft)
10.01.2018 20:28 -1,2 °C 89 % 1012,5 hPa 0,0 mm 0,0 km/h (0 Bft) W 259 ° 0 min 0,000 mm 0,0 UV-I 0 W/m² -2,8 °C -1,2 °C 0,0 km/h (0 Bft)
10.01.2018 20:29 -1,3 °C 89 % 1012,5 hPa 0,0 mm 0,0 km/h (0 Bft) W 259 ° 0 min 0,000 mm 0,0 UV-I 0 W/m² -2,9 °C -1,3 °C 0,0 km/h (0 Bft)
10.01.2018 20:30 -1,3 °C 89 % 1012,5 hPa 0,0 mm 0,0 km/h (0 Bft) W 259 ° 0 min 0,000 mm 0,0 UV-I 0 W/m² -2,9 °C -1,3 °C 0,0 km/h (0 Bft)
10.01.2018 20:31 -1,3 °C 89 % 1012,5 hPa 0,0 mm 0,0 km/h (0 Bft) W 259 ° 0 min 0,000 mm 0,0 UV-I 0 W/m² -2,9 °C -1,3 °C 0,0 km/h (0 Bft)
10.01.2018 20:32 -1,3 °C 89 % 1012,4 hPa 0,0 mm 0,0 km/h (0 Bft) W 259 ° 0 min 0,000 mm 0,0 UV-I 0 W/m² -2,9 °C -1,3 °C 0,0 km/h (0 Bft)
10.01.2018 20:33 -1,3 °C 89 % 1012,5 hPa 0,0 mm 0,0 km/h (0 Bft) W 259 ° 0 min 0,000 mm 0,0 UV-I 0 W/m² -2,9 °C -1,3 °C 0,0 km/h (0 Bft)
10.01.2018 20:34 -1,3 °C 89 % 1012,4 hPa 0,0 mm 0,0 km/h (0 Bft) W 259 ° 0 min 0,000 mm 0,0 UV-I 0 W/m² -2,9 °C -1,3 °C 0,0 km/h (0 Bft)
10.01.2018 20:35 -1,3 °C 89 % 1012,5 hPa 0,0 mm 0,0 km/h (0 Bft) W 259 ° 0 min 0,000 mm 0,0 UV-I 0 W/m² -2,9 °C -1,3 °C 0,0 km/h (0 Bft)
10.01.2018 20:36 -1,3 °C 89 % 1012,4 hPa 0,0 mm 0,0 km/h (0 Bft) W 259 ° 0 min 0,000 mm 0,0 UV-I 0 W/m² -2,9 °C -1,3 °C 0,0 km/h (0 Bft)
10.01.2018 20:37 -1,4 °C 89 % 1012,5 hPa 0,0 mm 0,0 km/h (0 Bft) W 259 ° 0 min 0,000 mm 0,0 UV-I 0 W/m² -3,0 °C -1,4 °C 0,0 km/h (0 Bft)
10.01.2018 20:39 -1,4 °C 89 % 1012,4 hPa 0,0 mm 0,0 km/h (0 Bft) W 259 ° 0 min 0,000 mm 0,0 UV-I 0 W/m² -3,0 °C -1,4 °C 0,0 km/h (0 Bft)
10.01.2018 20:40 -1,4 °C 89 % 1012,4 hPa 0,0 mm 0,0 km/h (0 Bft) W 259 ° 0 min 0,000 mm 0,0 UV-I 0 W/m² -3,0 °C -1,4 °C 0,0 km/h (0 Bft)
10.01.2018 20:41 -1,4 °C 89 % 1012,4 hPa 0,0 mm 0,0 km/h (0 Bft) W 259 ° 0 min 0,000 mm 0,0 UV-I 0 W/m² -3,0 °C -1,4 °C 0,0 km/h (0 Bft)
10.01.2018 20:42 -1,4 °C 89 % 1012,4 hPa 0,0 mm 0,0 km/h (0 Bft) W 259 ° 0 min 0,000 mm 0,0 UV-I 0 W/m² -3,0 °C -1,4 °C 0,0 km/h (0 Bft)
10.01.2018 20:43 -1,4 °C 89 % 1012,4 hPa 0,0 mm 0,0 km/h (0 Bft) W 259 ° 0 min 0,000 mm 0,0 UV-I 0 W/m² -3,0 °C -1,4 °C 0,0 km/h (0 Bft)
10.01.2018 20:44 -1,5 °C 89 % 1012,4 hPa 0,0 mm 0,0 km/h (0 Bft) W 259 ° 0 min 0,000 mm 0,0 UV-I 0 W/m² -3,1 °C -1,5 °C 0,0 km/h (0 Bft)
10.01.2018 20:45 -1,5 °C 89 % 1012,5 hPa 0,0 mm 0,0 km/h (0 Bft) W 259 ° 0 min 0,000 mm 0,0 UV-I 0 W/m² -3,1 °C -1,5 °C 0,0 km/h (0 Bft)
10.01.2018 20:46 -1,5 °C 89 % 1012,5 hPa 0,0 mm 0,0 km/h (0 Bft) W 259 ° 0 min 0,000 mm 0,0 UV-I 0 W/m² -3,1 °C -1,5 °C 0,0 km/h (0 Bft)
10.01.2018 20:47 -1,5 °C 89 % 1012,4 hPa 0,0 mm 0,0 km/h (0 Bft) W 259 ° 0 min 0,000 mm 0,0 UV-I 0 W/m² -3,1 °C -1,5 °C 0,0 km/h (0 Bft)
10.01.2018 20:48 -1,6 °C 89 % 1012,4 hPa 0,0 mm 0,0 km/h (0 Bft) W 259 ° 0 min 0,000 mm 0,0 UV-I 0 W/m² -3,2 °C -1,6 °C 0,0 km/h (0 Bft)
10.01.2018 20:49 -1,6 °C 89 % 1012,5 hPa 0,0 mm 0,0 km/h (0 Bft) W 259 ° 0 min 0,000 mm 0,0 UV-I 0 W/m² -3,2 °C -1,6 °C 0,0 km/h (0 Bft)
10.01.2018 20:50 -1,6 °C 89 % 1012,5 hPa 0,0 mm 0,0 km/h (0 Bft) W 259 ° 0 min 0,000 mm 0,0 UV-I 0 W/m² -3,2 °C -1,6 °C 0,0 km/h (0 Bft)
10.01.2018 20:51 -1,6 °C 89 % 1012,4 hPa 0,0 mm 0,0 km/h (0 Bft) W 259 ° 0 min 0,000 mm 0,0 UV-I 0 W/m² -3,2 °C -1,6 °C 0,0 km/h (0 Bft)
10.01.2018 20:52 -1,6 °C 89 % 1012,5 hPa 0,0 mm 0,0 km/h (0 Bft) W 259 ° 0 min 0,000 mm 0,0 UV-I 0 W/m² -3,2 °C -1,6 °C 0,0 km/h (0 Bft)
10.01.2018 20:53 -1,6 °C 89 % 1012,5 hPa 0,0 mm 0,0 km/h (0 Bft) W 259 ° 0 min 0,000 mm 0,0 UV-I 0 W/m² -3,2 °C -1,6 °C 0,0 km/h (0 Bft)
10.01.2018 20:54 -1,6 °C 89 % 1012,5 hPa 0,0 mm 0,0 km/h (0 Bft) W 259 ° 0 min 0,000 mm 0,0 UV-I 0 W/m² -3,2 °C -1,6 °C 0,0 km/h (0 Bft)
10.01.2018 20:55 -1,6 °C 89 % 1012,5 hPa 0,0 mm 0,0 km/h (0 Bft) W 259 ° 0 min 0,000 mm 0,0 UV-I 0 W/m² -3,2 °C -1,6 °C 0,0 km/h (0 Bft)
10.01.2018 20:56 -1,6 °C 89 % 1012,5 hPa 0,0 mm 0,0 km/h (0 Bft) W 259 ° 0 min 0,000 mm 0,0 UV-I 0 W/m² -3,2 °C -1,6 °C 0,0 km/h (0 Bft)
10.01.2018 20:57 -1,6 °C 89 % 1012,5 hPa 0,0 mm 0,0 km/h (0 Bft) W 259 ° 0 min 0,000 mm 0,0 UV-I 0 W/m² -3,2 °C -1,6 °C 0,0 km/h (0 Bft)
10.01.2018 20:58 -1,7 °C 89 % 1012,5 hPa 0,0 mm 0,0 km/h (0 Bft) W 259 ° 0 min 0,000 mm 0,0 UV-I 0 W/m² -3,3 °C -1,7 °C 0,0 km/h (0 Bft)
10.01.2018 20:59 -1,7 °C 90 % 1012,5 hPa 0,0 mm 0,0 km/h (0 Bft) W 259 ° 0 min 0,000 mm 0,0 UV-I 0 W/m² -3,1 °C -1,7 °C 0,0 km/h (0 Bft)
10.01.2018 21:00 -1,7 °C 90 % 1012,4 hPa 0,0 mm 0,0 km/h (0 Bft) W 259 ° 0 min 0,000 mm 0,0 UV-I 0 W/m² -3,1 °C -1,7 °C 0,0 km/h (0 Bft)
10.01.2018 21:01 -1,7 °C 90 % 1012,5 hPa 0,0 mm 0,0 km/h (0 Bft) W 259 ° 0 min 0,000 mm 0,0 UV-I 0 W/m² -3,1 °C -1,7 °C 0,0 km/h (0 Bft)
10.01.2018 21:02 -1,7 °C 90 % 1012,5 hPa 0,0 mm 0,0 km/h (0 Bft) W 259 ° 0 min 0,000 mm 0,0 UV-I 0 W/m² -3,1 °C -1,7 °C 0,0 km/h (0 Bft)
10.01.2018 21:03 -1,7 °C 90 % 1012,6 hPa 0,0 mm 0,0 km/h (0 Bft) W 259 ° 0 min 0,000 mm 0,0 UV-I 0 W/m² -3,1 °C -1,7 °C 0,0 km/h (0 Bft)
10.01.2018 21:04 -1,7 °C 90 % 1012,5 hPa 0,0 mm 0,0 km/h (0 Bft) W 259 ° 0 min 0,000 mm 0,0 UV-I 0 W/m² -3,1 °C -1,7 °C 0,0 km/h (0 Bft)
10.01.2018 21:05 -1,7 °C 90 % 1012,5 hPa 0,0 mm 0,0 km/h (0 Bft) W 259 ° 0 min 0,000 mm 0,0 UV-I 0 W/m² -3,1 °C -1,7 °C 0,0 km/h (0 Bft)
10.01.2018 21:06 -1,7 °C 90 % 1012,5 hPa 0,0 mm 0,0 km/h (0 Bft) W 259 ° 0 min 0,000 mm 0,0 UV-I 0 W/m² -3,1 °C -1,7 °C 0,0 km/h (0 Bft)
10.01.2018 21:07 -1,7 °C 90 % 1012,5 hPa 0,0 mm 0,0 km/h (0 Bft) W 259 ° 0 min 0,000 mm 0,0 UV-I 0 W/m² -3,1 °C -1,7 °C 0,0 km/h (0 Bft)
10.01.2018 21:08 -1,7 °C 90 % 1012,6 hPa 0,0 mm 0,0 km/h (0 Bft) W 259 ° 0 min 0,000 mm 0,0 UV-I 0 W/m² -3,1 °C -1,7 °C 0,0 km/h (0 Bft)
10.01.2018 21:09 -1,7 °C 90 % 1012,5 hPa 0,0 mm 0,0 km/h (0 Bft) W 259 ° 0 min 0,000 mm 0,0 UV-I 0 W/m² -3,1 °C -1,7 °C 0,0 km/h (0 Bft)
10.01.2018 21:10 -1,7 °C 90 % 1012,5 hPa 0,0 mm 0,0 km/h (0 Bft) W 259 ° 0 min 0,000 mm 0,0 UV-I 0 W/m² -3,1 °C -1,7 °C 0,0 km/h (0 Bft)
10.01.2018 21:11 -1,7 °C 90 % 1012,5 hPa 0,0 mm 0,0 km/h (0 Bft) W 259 ° 0 min 0,000 mm 0,0 UV-I 0 W/m² -3,1 °C -1,7 °C 0,0 km/h (0 Bft)
10.01.2018 21:12 -1,7 °C 90 % 1012,5 hPa 0,0 mm 0,0 km/h (0 Bft) W 259 ° 0 min 0,000 mm 0,0 UV-I 0 W/m² -3,1 °C -1,7 °C 0,0 km/h (0 Bft)
10.01.2018 21:13 -1,7 °C 90 % 1012,5 hPa 0,0 mm 0,0 km/h (0 Bft) W 259 ° 0 min 0,000 mm 0,0 UV-I 0 W/m² -3,1 °C -1,7 °C 0,0 km/h (0 Bft)
10.01.2018 21:14 -1,7 °C 90 % 1012,5 hPa 0,0 mm 0,0 km/h (0 Bft) W 259 ° 0 min 0,000 mm 0,0 UV-I 0 W/m² -3,1 °C -1,7 °C 0,0 km/h (0 Bft)
10.01.2018 21:15 -1,7 °C 90 % 1012,5 hPa 0,0 mm 0,0 km/h (0 Bft) W 259 ° 0 min 0,000 mm 0,0 UV-I 0 W/m² -3,1 °C -1,7 °C 0,0 km/h (0 Bft)
10.01.2018 21:16 -1,7 °C 90 % 1012,5 hPa 0,0 mm 0,0 km/h (0 Bft) W 259 ° 0 min 0,000 mm 0,0 UV-I 0 W/m² -3,1 °C -1,7 °C 0,0 km/h (0 Bft)
10.01.2018 21:17 -1,7 °C 90 % 1012,5 hPa 0,0 mm 0,0 km/h (0 Bft) W 259 ° 0 min 0,000 mm 0,0 UV-I 0 W/m² -3,1 °C -1,7 °C 0,0 km/h (0 Bft)
10.01.2018 21:18 -1,8 °C 90 % 1012,4 hPa 0,0 mm 0,0 km/h (0 Bft) W 259 ° 0 min 0,000 mm 0,0 UV-I 0 W/m² -3,2 °C -1,8 °C 0,0 km/h (0 Bft)
10.01.2018 21:19 -1,8 °C 90 % 1012,4 hPa 0,0 mm 0,0 km/h (0 Bft) W 259 ° 0 min 0,000 mm 0,0 UV-I 0 W/m² -3,2 °C -1,8 °C 0,0 km/h (0 Bft)
10.01.2018 21:20 -1,7 °C 90 % 1012,4 hPa 0,0 mm 0,0 km/h (0 Bft) W 259 ° 0 min 0,000 mm 0,0 UV-I 0 W/m² -3,1 °C -1,7 °C 0,0 km/h (0 Bft)
10.01.2018 21:21 -1,7 °C 90 % 1012,4 hPa 0,0 mm 0,0 km/h (0 Bft) W 259 ° 0 min 0,000 mm 0,0 UV-I 0 W/m² -3,1 °C -1,7 °C 0,0 km/h (0 Bft)
10.01.2018 21:22 -1,7 °C 91 % 1012,4 hPa 0,0 mm 0,3 km/h (0 Bft) W 259 ° 0 min 0,000 mm 0,0 UV-I 0 W/m² -3,0 °C -1,7 °C 1,6 km/h (1 Bft)
10.01.2018 21:23 -1,7 °C 91 % 1012,4 hPa 0,0 mm 0,7 km/h (0 Bft) W 259 ° 0 min 0,000 mm 0,0 UV-I 0 W/m² -3,0 °C -1,7 °C 1,6 km/h (1 Bft)
10.01.2018 21:24 -1,7 °C 91 % 1012,4 hPa 0,0 mm 0,3 km/h (0 Bft) W 259 ° 0 min 0,000 mm 0,0 UV-I 0 W/m² -3,0 °C -1,7 °C 1,6 km/h (1 Bft)
10.01.2018 21:25 -1,7 °C 91 % 1012,4 hPa 0,0 mm 0,0 km/h (0 Bft) W 259 ° 0 min 0,000 mm 0,0 UV-I 0 W/m² -3,0 °C -1,7 °C 0,0 km/h (0 Bft)
10.01.2018 21:26 -1,7 °C 91 % 1012,4 hPa 0,0 mm 0,0 km/h (0 Bft) W 259 ° 0 min 0,000 mm 0,0 UV-I 0 W/m² -3,0 °C -1,7 °C 0,0 km/h (0 Bft)
10.01.2018 21:27 -1,7 °C 91 % 1012,4 hPa 0,0 mm 0,0 km/h (0 Bft) W 259 ° 0 min 0,000 mm 0,0 UV-I 0 W/m² -3,0 °C -1,7 °C 0,0 km/h (0 Bft)
10.01.2018 21:28 -1,7 °C 91 % 1012,4 hPa 0,0 mm 0,0 km/h (0 Bft) W 259 ° 0 min 0,000 mm 0,0 UV-I 0 W/m² -3,0 °C -1,7 °C 0,0 km/h (0 Bft)
10.01.2018 21:29 -1,7 °C 91 % 1012,4 hPa 0,0 mm 0,0 km/h (0 Bft) W 259 ° 0 min 0,000 mm 0,0 UV-I 0 W/m² -3,0 °C -1,7 °C 0,0 km/h (0 Bft)
10.01.2018 21:30 -1,7 °C 91 % 1012,4 hPa 0,0 mm 0,0 km/h (0 Bft) W 259 ° 0 min 0,000 mm 0,0 UV-I 0 W/m² -3,0 °C -1,7 °C 0,0 km/h (0 Bft)
10.01.2018 21:31 -1,7 °C 91 % 1012,5 hPa 0,0 mm 0,0 km/h (0 Bft) W 259 ° 0 min 0,000 mm 0,0 UV-I 0 W/m² -3,0 °C -1,7 °C 0,0 km/h (0 Bft)
10.01.2018 21:32 -1,7 °C 91 % 1012,4 hPa 0,0 mm 0,0 km/h (0 Bft) W 259 ° 0 min 0,000 mm 0,0 UV-I 0 W/m² -3,0 °C -1,7 °C 0,0 km/h (0 Bft)
10.01.2018 21:33 -1,7 °C 91 % 1012,5 hPa 0,0 mm 0,0 km/h (0 Bft) W 259 ° 0 min 0,000 mm 0,0 UV-I 0 W/m² -3,0 °C -1,7 °C 0,0 km/h (0 Bft)
10.01.2018 21:34 -1,7 °C 91 % 1012,5 hPa 0,0 mm 0,0 km/h (0 Bft) W 259 ° 0 min 0,000 mm 0,0 UV-I 0 W/m² -3,0 °C -1,7 °C 0,0 km/h (0 Bft)
10.01.2018 21:35 -1,6 °C 91 % 1012,5 hPa 0,0 mm 0,0 km/h (0 Bft) W 259 ° 0 min 0,000 mm 0,0 UV-I 0 W/m² -2,9 °C -1,6 °C 0,0 km/h (0 Bft)
10.01.2018 21:36 -1,6 °C 91 % 1012,5 hPa 0,0 mm 0,0 km/h (0 Bft) W 259 ° 0 min 0,000 mm 0,0 UV-I 0 W/m² -2,9 °C -1,6 °C 0,0 km/h (0 Bft)
10.01.2018 21:37 -1,6 °C 91 % 1012,5 hPa 0,0 mm 0,0 km/h (0 Bft) W 259 ° 0 min 0,000 mm 0,0 UV-I 0 W/m² -2,9 °C -1,6 °C 0,0 km/h (0 Bft)
10.01.2018 21:38 -1,6 °C 91 % 1012,5 hPa 0,0 mm 0,0 km/h (0 Bft) W 259 ° 0 min 0,000 mm 0,0 UV-I 0 W/m² -2,9 °C -1,6 °C 0,0 km/h (0 Bft)
10.01.2018 21:39 -1,6 °C 91 % 1012,5 hPa 0,0 mm 0,0 km/h (0 Bft) W 259 ° 0 min 0,000 mm 0,0 UV-I 0 W/m² -2,9 °C -1,6 °C 0,0 km/h (0 Bft)
10.01.2018 21:40 -1,6 °C 91 % 1012,5 hPa 0,0 mm 0,0 km/h (0 Bft) W 259 ° 0 min 0,000 mm 0,0 UV-I 0 W/m² -2,9 °C -1,6 °C 0,0 km/h (0 Bft)
10.01.2018 21:41 -1,6 °C 91 % 1012,5 hPa 0,0 mm 0,0 km/h (0 Bft) W 259 ° 0 min 0,000 mm 0,0 UV-I 0 W/m² -2,9 °C -1,6 °C 0,0 km/h (0 Bft)
10.01.2018 21:42 -1,6 °C 91 % 1012,5 hPa 0,0 mm 0,0 km/h (0 Bft) W 259 ° 0 min 0,000 mm 0,0 UV-I 0 W/m² -2,9 °C -1,6 °C 0,0 km/h (0 Bft)
10.01.2018 21:43 -1,6 °C 91 % 1012,5 hPa 0,0 mm 0,0 km/h (0 Bft) W 259 ° 0 min 0,000 mm 0,0 UV-I 0 W/m² -2,9 °C -1,6 °C 0,0 km/h (0 Bft)
10.01.2018 21:44 -1,6 °C 91 % 1012,5 hPa 0,0 mm 0,0 km/h (0 Bft) W 259 ° 0 min 0,000 mm 0,0 UV-I 0 W/m² -2,9 °C -1,6 °C 0,0 km/h (0 Bft)
10.01.2018 21:45 -1,6 °C 91 % 1012,5 hPa 0,0 mm 0,0 km/h (0 Bft) W 259 ° 0 min 0,000 mm 0,0 UV-I 0 W/m² -2,9 °C -1,6 °C 0,0 km/h (0 Bft)
10.01.2018 21:46 -1,6 °C 91 % 1012,5 hPa 0,0 mm 0,0 km/h (0 Bft) W 259 ° 0 min 0,000 mm 0,0 UV-I 0 W/m² -2,9 °C -1,6 °C 0,0 km/h (0 Bft)
10.01.2018 21:47 -1,6 °C 91 % 1012,5 hPa 0,0 mm 0,0 km/h (0 Bft) W 259 ° 0 min 0,000 mm 0,0 UV-I 0 W/m² -2,9 °C -1,6 °C 0,0 km/h (0 Bft)
10.01.2018 21:48 -1,6 °C 91 % 1012,5 hPa 0,0 mm 0,0 km/h (0 Bft) W 259 ° 0 min 0,000 mm 0,0 UV-I 0 W/m² -2,9 °C -1,6 °C 0,0 km/h (0 Bft)
10.01.2018 21:49 -1,6 °C 91 % 1012,5 hPa 0,0 mm 0,0 km/h (0 Bft) W 259 ° 0 min 0,000 mm 0,0 UV-I 0 W/m² -2,9 °C -1,6 °C 0,0 km/h (0 Bft)
10.01.2018 21:50 -1,5 °C 91 % 1012,4 hPa 0,0 mm 0,0 km/h (0 Bft) W 259 ° 0 min 0,000 mm 0,0 UV-I 0 W/m² -2,8 °C -1,5 °C 0,0 km/h (0 Bft)
10.01.2018 21:51 -1,6 °C 91 % 1012,5 hPa 0,0 mm 0,0 km/h (0 Bft) W 259 ° 0 min 0,000 mm 0,0 UV-I 0 W/m² -2,9 °C -1,6 °C 0,0 km/h (0 Bft)
10.01.2018 21:52 -1,6 °C 91 % 1012,5 hPa 0,0 mm 0,0 km/h (0 Bft) W 259 ° 0 min 0,000 mm 0,0 UV-I 0 W/m² -2,9 °C -1,6 °C 0,0 km/h (0 Bft)
10.01.2018 21:53 -1,5 °C 91 % 1012,4 hPa 0,0 mm 0,0 km/h (0 Bft) W 259 ° 0 min 0,000 mm 0,0 UV-I 0 W/m² -2,8 °C -1,5 °C 0,0 km/h (0 Bft)
10.01.2018 21:54 -1,6 °C 91 % 1012,5 hPa 0,0 mm 0,0 km/h (0 Bft) W 259 ° 0 min 0,000 mm 0,0 UV-I 0 W/m² -2,9 °C -1,6 °C 0,0 km/h (0 Bft)
10.01.2018 21:55 -1,6 °C 91 % 1012,5 hPa 0,0 mm 0,0 km/h (0 Bft) W 259 ° 0 min 0,000 mm 0,0 UV-I 0 W/m² -2,9 °C -1,6 °C 0,0 km/h (0 Bft)
10.01.2018 21:56 -1,6 °C 91 % 1012,5 hPa 0,0 mm 1,8 km/h (1 Bft) SW 232 ° 0 min 0,000 mm 0,0 UV-I 0 W/m² -2,9 °C -1,6 °C 3,2 km/h (1 Bft)
10.01.2018 21:57 -1,6 °C 91 % 1012,4 hPa 0,0 mm 0,8 km/h (0 Bft) SW 232 ° 0 min 0,000 mm 0,0 UV-I 0 W/m² -2,9 °C -1,6 °C 1,6 km/h (1 Bft)
10.01.2018 21:58 -1,6 °C 91 % 1012,5 hPa 0,0 mm 2,7 km/h (1 Bft) SW 232 ° 0 min 0,000 mm 0,0 UV-I 0 W/m² -2,9 °C -1,6 °C 3,2 km/h (1 Bft)
10.01.2018 21:59 -1,6 °C 91 % 1012,4 hPa 0,0 mm 3,1 km/h (1 Bft) SW 227 ° 0 min 0,000 mm 0,0 UV-I 0 W/m² -2,9 °C -1,6 °C 4,8 km/h (1 Bft)
10.01.2018 22:00 -1,5 °C 91 % 1012,4 hPa 0,0 mm 0,7 km/h (0 Bft) SW 227 ° 0 min 0,000 mm 0,0 UV-I 0 W/m² -2,8 °C -1,5 °C 3,2 km/h (1 Bft)
10.01.2018 22:01 -1,5 °C 92 % 1012,5 hPa 0,0 mm 0,4 km/h (0 Bft) SW 227 ° 0 min 0,000 mm 0,0 UV-I 0 W/m² -2,6 °C -1,5 °C 1,6 km/h (1 Bft)
10.01.2018 22:02 -1,5 °C 92 % 1012,4 hPa 0,0 mm 1,6 km/h (1 Bft) SW 227 ° 0 min 0,000 mm 0,0 UV-I 0 W/m² -2,6 °C -1,5 °C 3,2 km/h (1 Bft)
10.01.2018 22:03 -1,4 °C 92 % 1012,4 hPa 0,0 mm 0,3 km/h (0 Bft) SW 227 ° 0 min 0,000 mm 0,0 UV-I 0 W/m² -2,5 °C -1,4 °C 1,6 km/h (1 Bft)
10.01.2018 22:04 -1,4 °C 92 % 1012,5 hPa 0,0 mm 0,0 km/h (0 Bft) SW 227 ° 0 min 0,000 mm 0,0 UV-I 0 W/m² -2,5 °C -1,4 °C 0,0 km/h (0 Bft)
10.01.2018 22:05 -1,5 °C 92 % 1012,5 hPa 0,0 mm 0,0 km/h (0 Bft) SW 227 ° 0 min 0,000 mm 0,0 UV-I 0 W/m² -2,6 °C -1,5 °C 0,0 km/h (0 Bft)
10.01.2018 22:06 -1,4 °C 92 % 1012,4 hPa 0,0 mm 0,0 km/h (0 Bft) SW 227 ° 0 min 0,000 mm 0,0 UV-I 0 W/m² -2,5 °C -1,4 °C 0,0 km/h (0 Bft)
10.01.2018 22:07 -1,4 °C 92 % 1012,5 hPa 0,0 mm 0,0 km/h (0 Bft) SW 227 ° 0 min 0,000 mm 0,0 UV-I 0 W/m² -2,5 °C -1,4 °C 0,0 km/h (0 Bft)
10.01.2018 22:08 -1,4 °C 92 % 1012,5 hPa 0,0 mm 0,0 km/h (0 Bft) SW 227 ° 0 min 0,000 mm 0,0 UV-I 0 W/m² -2,5 °C -1,4 °C 0,0 km/h (0 Bft)
10.01.2018 22:09 -1,4 °C 92 % 1012,5 hPa 0,0 mm 0,0 km/h (0 Bft) SW 227 ° 0 min 0,000 mm 0,0 UV-I 0 W/m² -2,5 °C -1,4 °C 0,0 km/h (0 Bft)
10.01.2018 22:10 -1,4 °C 92 % 1012,5 hPa 0,0 mm 0,0 km/h (0 Bft) SW 227 ° 0 min 0,000 mm 0,0 UV-I 0 W/m² -2,5 °C -1,4 °C 0,0 km/h (0 Bft)
10.01.2018 22:11 -1,4 °C 92 % 1012,5 hPa 0,0 mm 0,0 km/h (0 Bft) SW 227 ° 0 min 0,000 mm 0,0 UV-I 0 W/m² -2,5 °C -1,4 °C 0,0 km/h (0 Bft)
10.01.2018 22:12 -1,4 °C 92 % 1012,5 hPa 0,0 mm 0,0 km/h (0 Bft) SW 227 ° 0 min 0,000 mm 0,0 UV-I 0 W/m² -2,5 °C -1,4 °C 0,0 km/h (0 Bft)
10.01.2018 22:13 -1,4 °C 92 % 1012,5 hPa 0,0 mm 0,4 km/h (0 Bft) SW 227 ° 0 min 0,000 mm 0,0 UV-I 0 W/m² -2,5 °C -1,4 °C 1,6 km/h (1 Bft)
10.01.2018 22:14 -1,4 °C 92 % 1012,5 hPa 0,0 mm 0,6 km/h (0 Bft) SW 227 ° 0 min 0,000 mm 0,0 UV-I 0 W/m² -2,5 °C -1,4 °C 1,6 km/h (1 Bft)
10.01.2018 22:15 -1,3 °C 92 % 1012,5 hPa 0,0 mm 0,0 km/h (0 Bft) SW 227 ° 0 min 0,000 mm 0,0 UV-I 0 W/m² -2,4 °C -1,3 °C 0,0 km/h (0 Bft)
10.01.2018 22:16 -1,3 °C 92 % 1012,5 hPa 0,0 mm 0,0 km/h (0 Bft) SW 227 ° 0 min 0,000 mm 0,0 UV-I 0 W/m² -2,4 °C -1,3 °C 0,0 km/h (0 Bft)
10.01.2018 22:17 -1,3 °C 92 % 1012,5 hPa 0,0 mm 0,0 km/h (0 Bft) SW 227 ° 0 min 0,000 mm 0,0 UV-I 0 W/m² -2,4 °C -1,3 °C 0,0 km/h (0 Bft)
10.01.2018 22:18 -1,3 °C 92 % 1012,5 hPa 0,0 mm 0,0 km/h (0 Bft) SW 227 ° 0 min 0,000 mm 0,0 UV-I 0 W/m² -2,4 °C -1,3 °C 0,0 km/h (0 Bft)
10.01.2018 22:19 -1,3 °C 92 % 1012,5 hPa 0,0 mm 0,0 km/h (0 Bft) SW 227 ° 0 min 0,000 mm 0,0 UV-I 0 W/m² -2,4 °C -1,3 °C 0,0 km/h (0 Bft)
10.01.2018 22:20 -1,3 °C 92 % 1012,5 hPa 0,0 mm 0,0 km/h (0 Bft) SW 227 ° 0 min 0,000 mm 0,0 UV-I 0 W/m² -2,4 °C -1,3 °C 0,0 km/h (0 Bft)
10.01.2018 22:21 -1,3 °C 92 % 1012,6 hPa 0,0 mm 0,0 km/h (0 Bft) SW 227 ° 0 min 0,000 mm 0,0 UV-I 0 W/m² -2,4 °C -1,3 °C 0,0 km/h (0 Bft)
10.01.2018 22:22 -1,3 °C 92 % 1012,6 hPa 0,0 mm 0,9 km/h (0 Bft) SW 227 ° 0 min 0,000 mm 0,0 UV-I 0 W/m² -2,4 °C -1,3 °C 3,2 km/h (1 Bft)
10.01.2018 22:23 -1,3 °C 92 % 1012,6 hPa 0,0 mm 0,1 km/h (0 Bft) SW 227 ° 0 min 0,000 mm 0,0 UV-I 0 W/m² -2,4 °C -1,3 °C 1,6 km/h (1 Bft)
10.01.2018 22:24 -1,3 °C 92 % 1012,6 hPa 0,0 mm 0,0 km/h (0 Bft) SW 227 ° 0 min 0,000 mm 0,0 UV-I 0 W/m² -2,4 °C -1,3 °C 0,0 km/h (0 Bft)
10.01.2018 22:25 -1,2 °C 92 % 1012,6 hPa 0,0 mm 0,0 km/h (0 Bft) SW 227 ° 0 min 0,000 mm 0,0 UV-I 0 W/m² -2,3 °C -1,2 °C 0,0 km/h (0 Bft)
10.01.2018 22:26 -1,3 °C 92 % 1012,6 hPa 0,0 mm 0,0 km/h (0 Bft) SW 227 ° 0 min 0,000 mm 0,0 UV-I 0 W/m² -2,4 °C -1,3 °C 0,0 km/h (0 Bft)
10.01.2018 22:27 -1,2 °C 92 % 1012,6 hPa 0,0 mm 0,0 km/h (0 Bft) SW 227 ° 0 min 0,000 mm 0,0 UV-I 0 W/m² -2,3 °C -1,2 °C 0,0 km/h (0 Bft)
10.01.2018 22:28 -1,2 °C 92 % 1012,6 hPa 0,0 mm 4,7 km/h (1 Bft) S-SW 211 ° 0 min 0,000 mm 0,0 UV-I 0 W/m² -2,3 °C -2,8 °C 9,7 km/h (2 Bft)
10.01.2018 22:29 -1,2 °C 92 % 1012,6 hPa 0,0 mm 7,1 km/h (2 Bft) S-SW 206 ° 0 min 0,000 mm 0,0 UV-I 0 W/m² -2,3 °C -3,8 °C 11,3 km/h (2 Bft)
10.01.2018 22:30 -1,2 °C 92 % 1012,7 hPa 0,0 mm 6,5 km/h (2 Bft) S 190 ° 0 min 0,000 mm 0,0 UV-I 0 W/m² -2,3 °C -3,6 °C 9,7 km/h (2 Bft)
10.01.2018 22:31 -1,2 °C 92 % 1012,6 hPa 0,0 mm 4,9 km/h (1 Bft) S-SO 148 ° 0 min 0,000 mm 0,0 UV-I 0 W/m² -2,3 °C -2,9 °C 9,7 km/h (2 Bft)
10.01.2018 22:32 -1,1 °C 92 % 1012,6 hPa 0,0 mm 1,7 km/h (1 Bft) S-SO 148 ° 0 min 0,000 mm 0,0 UV-I 0 W/m² -2,2 °C -1,1 °C 4,8 km/h (1 Bft)
10.01.2018 22:33 -1,1 °C 92 % 1012,6 hPa 0,0 mm 3,4 km/h (1 Bft) S-SW 201 ° 0 min 0,000 mm 0,0 UV-I 0 W/m² -2,2 °C -1,1 °C 4,8 km/h (1 Bft)
10.01.2018 22:34 -1,0 °C 92 % 1012,6 hPa 0,0 mm 0,3 km/h (0 Bft) S-SW 201 ° 0 min 0,000 mm 0,0 UV-I 0 W/m² -2,1 °C -1,0 °C 3,2 km/h (1 Bft)
10.01.2018 22:35 -0,9 °C 92 % 1012,7 hPa 0,0 mm 0,3 km/h (0 Bft) S-SW 201 ° 0 min 0,000 mm 0,0 UV-I 0 W/m² -2,0 °C -0,9 °C 1,6 km/h (1 Bft)
10.01.2018 22:36 -0,9 °C 92 % 1012,6 hPa 0,0 mm 0,0 km/h (0 Bft) S-SW 201 ° 0 min 0,000 mm 0,0 UV-I 0 W/m² -2,0 °C -0,9 °C 0,0 km/h (0 Bft)
10.01.2018 22:37 -0,9 °C 92 % 1012,7 hPa 0,0 mm 0,0 km/h (0 Bft) S-SW 201 ° 0 min 0,000 mm 0,0 UV-I 0 W/m² -2,0 °C -0,9 °C 0,0 km/h (0 Bft)
10.01.2018 22:38 -0,9 °C 92 % 1012,6 hPa 0,0 mm 0,0 km/h (0 Bft) S-SW 201 ° 0 min 0,000 mm 0,0 UV-I 0 W/m² -2,0 °C -0,9 °C 0,0 km/h (0 Bft)
10.01.2018 22:39 -0,9 °C 92 % 1012,6 hPa 0,0 mm 0,0 km/h (0 Bft) S-SW 201 ° 0 min 0,000 mm 0,0 UV-I 0 W/m² -2,0 °C -0,9 °C 0,0 km/h (0 Bft)
10.01.2018 22:40 -0,9 °C 92 % 1012,7 hPa 0,0 mm 0,0 km/h (0 Bft) S-SW 201 ° 0 min 0,000 mm 0,0 UV-I 0 W/m² -2,0 °C -0,9 °C 0,0 km/h (0 Bft)
10.01.2018 22:41 -0,9 °C 92 % 1012,7 hPa 0,0 mm 0,0 km/h (0 Bft) S-SW 201 ° 0 min 0,000 mm 0,0 UV-I 0 W/m² -2,0 °C -0,9 °C 0,0 km/h (0 Bft)
10.01.2018 22:42 -0,9 °C 92 % 1012,7 hPa 0,0 mm 0,0 km/h (0 Bft) S-SW 201 ° 0 min 0,000 mm 0,0 UV-I 0 W/m² -2,0 °C -0,9 °C 0,0 km/h (0 Bft)
10.01.2018 22:43 -0,8 °C 92 % 1012,7 hPa 0,0 mm 0,0 km/h (0 Bft) S-SW 201 ° 0 min 0,000 mm 0,0 UV-I 0 W/m² -1,9 °C -0,8 °C 0,0 km/h (0 Bft)
10.01.2018 22:44 -0,8 °C 92 % 1012,8 hPa 0,0 mm 0,0 km/h (0 Bft) S-SW 201 ° 0 min 0,000 mm 0,0 UV-I 0 W/m² -1,9 °C -0,8 °C 0,0 km/h (0 Bft)
10.01.2018 22:45 -0,8 °C 92 % 1012,7 hPa 0,0 mm 1,7 km/h (1 Bft) S-SW 201 ° 0 min 0,000 mm 0,0 UV-I 0 W/m² -1,9 °C -0,8 °C 3,2 km/h (1 Bft)
10.01.2018 22:46 -0,8 °C 92 % 1012,8 hPa 0,0 mm 1,5 km/h (1 Bft) S-SW 201 ° 0 min 0,000 mm 0,0 UV-I 0 W/m² -1,9 °C -0,8 °C 3,2 km/h (1 Bft)
10.01.2018 22:47 -0,8 °C 92 % 1012,8 hPa 0,0 mm 0,0 km/h (0 Bft) S-SW 201 ° 0 min 0,000 mm 0,0 UV-I 0 W/m² -1,9 °C -0,8 °C 0,0 km/h (0 Bft)
10.01.2018 22:48 -0,8 °C 92 % 1012,8 hPa 0,0 mm 0,0 km/h (0 Bft) S-SW 201 ° 0 min 0,000 mm 0,0 UV-I 0 W/m² -1,9 °C -0,8 °C 0,0 km/h (0 Bft)
10.01.2018 22:49 -0,8 °C 92 % 1012,8 hPa 0,0 mm 0,0 km/h (0 Bft) S-SW 201 ° 0 min 0,000 mm 0,0 UV-I 0 W/m² -1,9 °C -0,8 °C 0,0 km/h (0 Bft)
10.01.2018 22:50 -0,8 °C 92 % 1012,8 hPa 0,0 mm 1,6 km/h (1 Bft) S-SW 201 ° 0 min 0,000 mm 0,0 UV-I 0 W/m² -1,9 °C -0,8 °C 4,8 km/h (1 Bft)
10.01.2018 22:51 -0,8 °C 92 % 1012,8 hPa 0,0 mm 2,1 km/h (1 Bft) S-SW 201 ° 0 min 0,000 mm 0,0 UV-I 0 W/m² -1,9 °C -0,8 °C 3,2 km/h (1 Bft)
10.01.2018 22:52 -0,8 °C 92 % 1012,8 hPa 0,0 mm 0,9 km/h (0 Bft) S-SW 201 ° 0 min 0,000 mm 0,0 UV-I 0 W/m² -1,9 °C -0,8 °C 3,2 km/h (1 Bft)
10.01.2018 22:53 -0,8 °C 92 % 1012,8 hPa 0,0 mm 1,3 km/h (1 Bft) S-SW 201 ° 0 min 0,000 mm 0,0 UV-I 0 W/m² -1,9 °C -0,8 °C 3,2 km/h (1 Bft)
10.01.2018 22:54 -0,8 °C 92 % 1012,8 hPa 0,0 mm 1,8 km/h (1 Bft) S-SW 201 ° 0 min 0,000 mm 0,0 UV-I 0 W/m² -1,9 °C -0,8 °C 3,2 km/h (1 Bft)
10.01.2018 22:55 -0,8 °C 92 % 1012,8 hPa 0,0 mm 2,3 km/h (1 Bft) S-SW 201 ° 0 min 0,000 mm 0,0 UV-I 0 W/m² -1,9 °C -0,8 °C 3,2 km/h (1 Bft)
10.01.2018 22:56 -0,8 °C 92 % 1012,7 hPa 0,0 mm 2,1 km/h (1 Bft) S-SW 201 ° 0 min 0,000 mm 0,0 UV-I 0 W/m² -1,9 °C -0,8 °C 4,8 km/h (1 Bft)
10.01.2018 22:57 -0,8 °C 92 % 1012,7 hPa 0,0 mm 2,5 km/h (1 Bft) S-SW 201 ° 0 min 0,000 mm 0,0 UV-I 0 W/m² -1,9 °C -0,8 °C 3,2 km/h (1 Bft)
10.01.2018 22:58 -0,8 °C 92 % 1012,8 hPa 0,0 mm 5,9 km/h (2 Bft) S-SW 211 ° 0 min 0,000 mm 0,0 UV-I 0 W/m² -1,9 °C -2,9 °C 9,7 km/h (2 Bft)
10.01.2018 22:59 -0,8 °C 92 % 1012,8 hPa 0,0 mm 5,2 km/h (1 Bft) S 176 ° 0 min 0,000 mm 0,0 UV-I 0 W/m² -1,9 °C -2,6 °C 11,3 km/h (2 Bft)
10.01.2018 23:00 -0,7 °C 92 % 1012,8 hPa 0,0 mm 5,0 km/h (1 Bft) SW 214 ° 0 min 0,000 mm 0,0 UV-I 0 W/m² -1,8 °C -2,4 °C 9,7 km/h (2 Bft)
10.01.2018 23:01 -0,7 °C 92 % 1012,8 hPa 0,0 mm 6,8 km/h (2 Bft) S-SW 194 ° 0 min 0,000 mm 0,0 UV-I 0 W/m² -1,8 °C -3,1 °C 11,3 km/h (2 Bft)
10.01.2018 23:02 -0,7 °C 92 % 1012,8 hPa 0,0 mm 4,1 km/h (1 Bft) S 178 ° 0 min 0,000 mm 0,0 UV-I 0 W/m² -1,8 °C -0,7 °C 4,8 km/h (1 Bft)
10.01.2018 23:03 -0,7 °C 92 % 1012,8 hPa 0,0 mm 3,8 km/h (1 Bft) S 178 ° 0 min 0,000 mm 0,0 UV-I 0 W/m² -1,8 °C -0,7 °C 4,8 km/h (1 Bft)
10.01.2018 23:04 -0,7 °C 92 % 1012,8 hPa 0,0 mm 3,0 km/h (1 Bft) S 178 ° 0 min 0,000 mm 0,0 UV-I 0 W/m² -1,8 °C -0,7 °C 4,8 km/h (1 Bft)
10.01.2018 23:05 -0,7 °C 92 % 1012,8 hPa 0,0 mm 3,2 km/h (1 Bft) S 178 ° 0 min 0,000 mm 0,0 UV-I 0 W/m² -1,8 °C -0,7 °C 4,8 km/h (1 Bft)
10.01.2018 23:06 -0,7 °C 92 % 1012,8 hPa 0,0 mm 3,1 km/h (1 Bft) S 178 ° 0 min 0,000 mm 0,0 UV-I 0 W/m² -1,8 °C -0,7 °C 4,8 km/h (1 Bft)
10.01.2018 23:07 -0,6 °C 91 % 1012,8 hPa 0,0 mm 2,5 km/h (1 Bft) S 178 ° 0 min 0,000 mm 0,0 UV-I 0 W/m² -1,9 °C -0,6 °C 3,2 km/h (1 Bft)
10.01.2018 23:08 -0,7 °C 91 % 1012,8 hPa 0,0 mm 4,3 km/h (1 Bft) S-SO 168 ° 0 min 0,000 mm 0,0 UV-I 0 W/m² -2,0 °C -0,7 °C 8,0 km/h (2 Bft)
10.01.2018 23:09 -0,6 °C 91 % 1012,8 hPa 0,0 mm 3,1 km/h (1 Bft) S-SO 168 ° 0 min 0,000 mm 0,0 UV-I 0 W/m² -1,9 °C -0,6 °C 6,4 km/h (2 Bft)
10.01.2018 23:10 -0,6 °C 91 % 1012,8 hPa 0,0 mm 2,5 km/h (1 Bft) S-SO 168 ° 0 min 0,000 mm 0,0 UV-I 0 W/m² -1,9 °C -0,6 °C 6,4 km/h (2 Bft)
10.01.2018 23:11 -0,6 °C 91 % 1012,7 hPa 0,0 mm 3,8 km/h (1 Bft) S-SO 168 ° 0 min 0,000 mm 0,0 UV-I 0 W/m² -1,9 °C -0,6 °C 6,4 km/h (2 Bft)
10.01.2018 23:12 -0,6 °C 91 % 1012,8 hPa 0,0 mm 4,2 km/h (1 Bft) S-SO 166 ° 0 min 0,000 mm 0,0 UV-I 0 W/m² -1,9 °C -0,6 °C 6,4 km/h (2 Bft)
10.01.2018 23:13 -0,6 °C 91 % 1012,8 hPa 0,0 mm 3,1 km/h (1 Bft) S-SW 206 ° 0 min 0,000 mm 0,0 UV-I 0 W/m² -1,9 °C -0,6 °C 6,4 km/h (2 Bft)
10.01.2018 23:14 -0,6 °C 91 % 1012,8 hPa 0,0 mm 4,2 km/h (1 Bft) S 184 ° 0 min 0,000 mm 0,0 UV-I 0 W/m² -1,9 °C -0,6 °C 9,7 km/h (2 Bft)
10.01.2018 23:15 -0,6 °C 91 % 1012,7 hPa 0,0 mm 4,7 km/h (1 Bft) S 171 ° 0 min 0,000 mm 0,0 UV-I 0 W/m² -1,9 °C -2,1 °C 8,0 km/h (2 Bft)
10.01.2018 23:16 -0,5 °C 91 % 1012,8 hPa 0,0 mm 2,0 km/h (1 Bft) S 171 ° 0 min 0,000 mm 0,0 UV-I 0 W/m² -1,8 °C -0,5 °C 3,2 km/h (1 Bft)
10.01.2018 23:17 -0,5 °C 91 % 1012,8 hPa 0,0 mm 1,7 km/h (1 Bft) S 171 ° 0 min 0,000 mm 0,0 UV-I 0 W/m² -1,8 °C -0,5 °C 3,2 km/h (1 Bft)
10.01.2018 23:18 -0,5 °C 91 % 1012,8 hPa 0,0 mm 1,7 km/h (1 Bft) S 171 ° 0 min 0,000 mm 0,0 UV-I 0 W/m² -1,8 °C -0,5 °C 3,2 km/h (1 Bft)
10.01.2018 23:19 -0,5 °C 91 % 1012,8 hPa 0,0 mm 0,1 km/h (0 Bft) S 171 ° 0 min 0,000 mm 0,0 UV-I 0 W/m² -1,8 °C -0,5 °C 1,6 km/h (1 Bft)
10.01.2018 23:20 -0,5 °C 91 % 1012,8 hPa 0,0 mm 2,6 km/h (1 Bft) S 171 ° 0 min 0,000 mm 0,0 UV-I 0 W/m² -1,8 °C -0,5 °C 6,4 km/h (2 Bft)
10.01.2018 23:21 -0,5 °C 90 % 1012,7 hPa 0,0 mm 0,5 km/h (0 Bft) S 171 ° 0 min 0,000 mm 0,0 UV-I 0 W/m² -1,9 °C -0,5 °C 1,6 km/h (1 Bft)
10.01.2018 23:22 -0,5 °C 90 % 1012,8 hPa 0,0 mm 0,2 km/h (0 Bft) S 171 ° 0 min 0,000 mm 0,0 UV-I 0 W/m² -1,9 °C -0,5 °C 1,6 km/h (1 Bft)
10.01.2018 23:23 -0,5 °C 90 % 1012,8 hPa 0,0 mm 0,3 km/h (0 Bft) S 171 ° 0 min 0,000 mm 0,0 UV-I 0 W/m² -1,9 °C -0,5 °C 1,6 km/h (1 Bft)
10.01.2018 23:24 -0,5 °C 90 % 1012,8 hPa 0,0 mm 0,0 km/h (0 Bft) S 171 ° 0 min 0,000 mm 0,0 UV-I 0 W/m² -1,9 °C -0,5 °C 0,0 km/h (0 Bft)
10.01.2018 23:25 -0,5 °C 90 % 1012,8 hPa 0,0 mm 0,0 km/h (0 Bft) S 171 ° 0 min 0,000 mm 0,0 UV-I 0 W/m² -1,9 °C -0,5 °C 0,0 km/h (0 Bft)
10.01.2018 23:26 -0,5 °C 90 % 1012,8 hPa 0,0 mm 0,0 km/h (0 Bft) S 171 ° 0 min 0,000 mm 0,0 UV-I 0 W/m² -1,9 °C -0,5 °C 0,0 km/h (0 Bft)
10.01.2018 23:27 -0,5 °C 90 % 1012,8 hPa 0,0 mm 0,0 km/h (0 Bft) S 171 ° 0 min 0,000 mm 0,0 UV-I 0 W/m² -1,9 °C -0,5 °C 0,0 km/h (0 Bft)
10.01.2018 23:28 -0,5 °C 90 % 1012,8 hPa 0,0 mm 1,4 km/h (1 Bft) S 171 ° 0 min 0,000 mm 0,0 UV-I 0 W/m² -1,9 °C -0,5 °C 3,2 km/h (1 Bft)
10.01.2018 23:29 -0,5 °C 90 % 1012,8 hPa 0,0 mm 0,1 km/h (0 Bft) S 171 ° 0 min 0,000 mm 0,0 UV-I 0 W/m² -1,9 °C -0,5 °C 1,6 km/h (1 Bft)
10.01.2018 23:30 -0,5 °C 90 % 1012,8 hPa 0,0 mm 0,0 km/h (0 Bft) S 171 ° 0 min 0,000 mm 0,0 UV-I 0 W/m² -1,9 °C -0,5 °C 0,0 km/h (0 Bft)
10.01.2018 23:31 -0,5 °C 90 % 1012,8 hPa 0,0 mm 0,0 km/h (0 Bft) S 171 ° 0 min 0,000 mm 0,0 UV-I 0 W/m² -1,9 °C -0,5 °C 0,0 km/h (0 Bft)
10.01.2018 23:32 -0,5 °C 90 % 1012,8 hPa 0,0 mm 0,0 km/h (0 Bft) S 171 ° 0 min 0,000 mm 0,0 UV-I 0 W/m² -1,9 °C -0,5 °C 0,0 km/h (0 Bft)
10.01.2018 23:33 -0,5 °C 90 % 1012,8 hPa 0,0 mm 0,0 km/h (0 Bft) S 171 ° 0 min 0,000 mm 0,0 UV-I 0 W/m² -1,9 °C -0,5 °C 0,0 km/h (0 Bft)
10.01.2018 23:34 -0,6 °C 90 % 1012,8 hPa 0,0 mm 0,0 km/h (0 Bft) S 171 ° 0 min 0,000 mm 0,0 UV-I 0 W/m² -2,0 °C -0,6 °C 0,0 km/h (0 Bft)
10.01.2018 23:35 -0,6 °C 90 % 1012,8 hPa 0,0 mm 0,0 km/h (0 Bft) S 171 ° 0 min 0,000 mm 0,0 UV-I 0 W/m² -2,0 °C -0,6 °C 0,0 km/h (0 Bft)
10.01.2018 23:36 -0,6 °C 90 % 1012,8 hPa 0,0 mm 0,0 km/h (0 Bft) S 171 ° 0 min 0,000 mm 0,0 UV-I 0 W/m² -2,0 °C -0,6 °C 0,0 km/h (0 Bft)
10.01.2018 23:37 -0,6 °C 90 % 1012,8 hPa 0,0 mm 0,0 km/h (0 Bft) S 171 ° 0 min 0,000 mm 0,0 UV-I 0 W/m² -2,0 °C -0,6 °C 0,0 km/h (0 Bft)
10.01.2018 23:38 -0,6 °C 90 % 1012,8 hPa 0,0 mm 0,0 km/h (0 Bft) S 171 ° 0 min 0,000 mm 0,0 UV-I 0 W/m² -2,0 °C -0,6 °C 0,0 km/h (0 Bft)
10.01.2018 23:39 -0,6 °C 90 % 1012,8 hPa 0,0 mm 0,0 km/h (0 Bft) S 171 ° 0 min 0,000 mm 0,0 UV-I 0 W/m² -2,0 °C -0,6 °C 0,0 km/h (0 Bft)
10.01.2018 23:40 -0,6 °C 90 % 1012,8 hPa 0,0 mm 0,0 km/h (0 Bft) S 171 ° 0 min 0,000 mm 0,0 UV-I 0 W/m² -2,0 °C -0,6 °C 0,0 km/h (0 Bft)
10.01.2018 23:41 -0,6 °C 90 % 1012,8 hPa 0,0 mm 0,0 km/h (0 Bft) S 171 ° 0 min 0,000 mm 0,0 UV-I 0 W/m² -2,0 °C -0,6 °C 0,0 km/h (0 Bft)
10.01.2018 23:42 -0,6 °C 90 % 1012,8 hPa 0,0 mm 0,0 km/h (0 Bft) S 171 ° 0 min 0,000 mm 0,0 UV-I 0 W/m² -2,0 °C -0,6 °C 0,0 km/h (0 Bft)
10.01.2018 23:43 -0,6 °C 90 % 1012,8 hPa 0,0 mm 0,0 km/h (0 Bft) S 171 ° 0 min 0,000 mm 0,0 UV-I 0 W/m² -2,0 °C -0,6 °C 0,0 km/h (0 Bft)
10.01.2018 23:44 -0,6 °C 90 % 1012,8 hPa 0,0 mm 0,0 km/h (0 Bft) S 171 ° 0 min 0,000 mm 0,0 UV-I 0 W/m² -2,0 °C -0,6 °C 0,0 km/h (0 Bft)
10.01.2018 23:45 -0,7 °C 90 % 1012,8 hPa 0,0 mm 0,0 km/h (0 Bft) S 171 ° 0 min 0,000 mm 0,0 UV-I 0 W/m² -2,1 °C -0,7 °C 0,0 km/h (0 Bft)
10.01.2018 23:46 -0,7 °C 90 % 1012,8 hPa 0,0 mm 0,0 km/h (0 Bft) S 171 ° 0 min 0,000 mm 0,0 UV-I 0 W/m² -2,1 °C -0,7 °C 0,0 km/h (0 Bft)
10.01.2018 23:47 -0,7 °C 90 % 1012,8 hPa 0,0 mm 0,0 km/h (0 Bft) S 171 ° 0 min 0,000 mm 0,0 UV-I 0 W/m² -2,1 °C -0,7 °C 0,0 km/h (0 Bft)
10.01.2018 23:48 -0,7 °C 90 % 1012,8 hPa 0,0 mm 0,0 km/h (0 Bft) S 171 ° 0 min 0,000 mm 0,0 UV-I 0 W/m² -2,1 °C -0,7 °C 0,0 km/h (0 Bft)
10.01.2018 23:49 -0,7 °C 90 % 1012,8 hPa 0,0 mm 0,0 km/h (0 Bft) S 171 ° 0 min 0,000 mm 0,0 UV-I 0 W/m² -2,1 °C -0,7 °C 0,0 km/h (0 Bft)
10.01.2018 23:50 -0,7 °C 90 % 1012,8 hPa 0,0 mm 0,0 km/h (0 Bft) S 171 ° 0 min 0,000 mm 0,0 UV-I 0 W/m² -2,1 °C -0,7 °C 0,0 km/h (0 Bft)
10.01.2018 23:51 -0,7 °C 90 % 1012,8 hPa 0,0 mm 0,0 km/h (0 Bft) S 171 ° 0 min 0,000 mm 0,0 UV-I 0 W/m² -2,1 °C -0,7 °C 0,0 km/h (0 Bft)
10.01.2018 23:52 -0,7 °C 90 % 1012,8 hPa 0,0 mm 0,0 km/h (0 Bft) S 171 ° 0 min 0,000 mm 0,0 UV-I 0 W/m² -2,1 °C -0,7 °C 0,0 km/h (0 Bft)
10.01.2018 23:53 -0,7 °C 90 % 1012,8 hPa 0,0 mm 0,0 km/h (0 Bft) S 171 ° 0 min 0,000 mm 0,0 UV-I 0 W/m² -2,1 °C -0,7 °C 0,0 km/h (0 Bft)
10.01.2018 23:54 -0,7 °C 90 % 1012,8 hPa 0,0 mm 0,0 km/h (0 Bft) S 171 ° 0 min 0,000 mm 0,0 UV-I 0 W/m² -2,1 °C -0,7 °C 0,0 km/h (0 Bft)
10.01.2018 23:55 -0,7 °C 90 % 1012,8 hPa 0,0 mm 0,0 km/h (0 Bft) S 171 ° 0 min 0,000 mm 0,0 UV-I 0 W/m² -2,1 °C -0,7 °C 0,0 km/h (0 Bft)
10.01.2018 23:56 -0,7 °C 90 % 1012,8 hPa 0,0 mm 0,0 km/h (0 Bft) S 171 ° 0 min 0,000 mm 0,0 UV-I 0 W/m² -2,1 °C -0,7 °C 0,0 km/h (0 Bft)
10.01.2018 23:57 -0,7 °C 90 % 1012,8 hPa 0,0 mm 0,0 km/h (0 Bft) S 171 ° 0 min 0,000 mm 0,0 UV-I 0 W/m² -2,1 °C -0,7 °C 0,0 km/h (0 Bft)
10.01.2018 23:58 -0,7 °C 90 % 1012,8 hPa 0,0 mm 0,0 km/h (0 Bft) S 171 ° 0 min 0,000 mm 0,0 UV-I 0 W/m² -2,1 °C -0,7 °C 0,0 km/h (0 Bft)
10.01.2018 23:59 -0,7 °C 90 % 1012,8 hPa 0,0 mm 0,0 km/h (0 Bft) S 171 ° 0 min 0,000 mm 0,0 UV-I 0 W/m² -2,1 °C -0,7 °C 0,0 km/h (0 Bft)
_ Min-Zeit 06:21 15:11 14:58 - 23:59 - - - - - - 05:49 09:19 23:59
Minimum _ -1,9 °C 74 % 1010,7 hPa - 0,0 km/h (0 Bft) - - - - - - -3,6 °C -4,6 °C 0,0 km/h (0 Bft)
_ Max-Zeit 14:01 23:06 00:50 23:59 09:19 - - 23:59 15:00 14:05 13:59 14:00 14:01 09:19
Maximum _ 6,0 °C 92 % 1014,2 hPa 0,0 mm 8,8 km/h
S-SW (2 Bft)
- - 0 min 0,051 mm 1,0 UV-I 227 W/m² 2,2 °C 6,0 °C 12,9 km/h
S-SW (3 Bft)
Durchschnitt _ 1,1 °C 84 % 1012,6 hPa #0,0 mm 0,6 km/h (0 Bft) W - #0 min. #0,152 mm 0,8 UV-I 14 W/m² -1,3 °C 1,1 °C 1,1 km/h (1 Bft)